[[{"header":{"parameterUnit":"m.s-1","parameterCategory":1,"la1":30.6,"la2":28.766,"lo1":-90.7593,"lo2":-88.6598,"dy":0.0162,"dx":0.0183,"nx":116,"ny":114,"refTime":"2023-07-13T06:00:00:Z","depth":0,"parameterNumber":2,"parameterNumberName":"U-component_of_WINDS"},"data":[0.0,0.0,0.0,0.0,0.0,0.0,0.0,0.0,0.0,0.0,0.0,0.0,0.0,0.0,0.0,0.0,0.0,0.0,0.0,0.0,0.0,0.0,0.0,0.0,0.0,0.0,0.0,0.0,0.0,0.0,0.0,0.0,0.0,0.0,0.0,0.0,0.0,0.0,0.0,0.0,0.0,0.0,0.0,0.0,0.0,0.0,0.0,0.0,0.0,0.0,0.0,0.0,0.0,0.0,0.0,0.0,0.0,0.0,0.0,0.0,0.0,0.0,0.0,0.0,0.0,0.0,0.0,0.0,0.0,0.0,0.0,0.0,0.0,0.0,0.0,0.0,0.0,0.0,0.0,0.0,0.0,0.0,0.0,0.0,0.0,0.0,0.0,0.0,0.0,0.0,0.0,0.0,0.0,0.0,0.0,0.0,0.0,0.0,0.0,0.0,0.0,0.0,0.0,0.0,0.0,0.0,0.0,0.0,0.0,0.0,0.0,0.0,0.0,0.0,0.0,0.0,0.0,0.0,0.0,0.0,0.0,0.0,0.0,0.0,0.0,0.0,0.0,0.0,0.0,0.0,0.0,0.0,0.0,0.0,0.0,0.0,0.0,0.0,0.0,0.0,0.0,0.0,0.0,0.0,0.0,0.0,0.0,0.0,0.0,0.0,0.0,0.0,0.0,0.0,0.0,0.0,0.0,0.0,0.0,0.0,0.0,0.0,0.0,0.0,0.0,0.0,0.0,0.0,0.0,0.0,0.0,0.0,0.0,0.0,0.0,0.0,0.0,0.0,0.0,0.0,0.0,0.0,0.0,0.0,0.0,0.0,0.0,0.0,0.0,0.0,0.0,0.0,0.0,0.0,0.0,0.0,0.0,0.0,0.0,0.0,0.0,0.0,0.0,0.0,0.0,0.0,0.0,0.0,0.0,0.0,0.0,0.0,0.0,0.0,0.0,0.0,0.0,0.0,0.0,0.0,0.0,0.0,0.0,0.0,0.0,0.0,0.0,0.0,0.0,0.0,0.0,0.0,0.0,0.0,0.0,0.0,0.0,0.0,0.0,0.0,0.0,0.0,0.0,0.0,0.0,0.0,0.0,0.0,0.0,0.0,0.0,0.0,0.0,0.0,0.0,0.0,0.0,0.0,0.0,0.0,0.0,0.0,0.0,0.0,0.0,0.0,0.0,0.0,0.0,0.0,0.0,0.0,0.0,0.0,0.0,0.0,0.0,0.0,0.0,0.0,0.0,0.0,0.0,0.0,0.0,0.0,0.0,0.0,0.0,0.0,0.0,0.0,0.0,0.0,0.0,0.0,0.0,0.0,0.0,0.0,0.0,0.0,0.0,0.0,0.0,0.0,0.0,0.0,0.0,0.0,0.0,0.0,0.0,0.0,0.0,0.0,0.0,0.0,0.0,0.0,0.0,0.0,0.0,0.0,0.0,0.0,0.0,0.0,0.0,0.0,0.0,0.0,0.0,0.0,0.0,0.0,0.0,0.0,0.0,0.0,0.0,0.0,0.0,0.0,0.0,0.0,0.0,0.0,0.0,0.0,0.0,0.0,0.0,0.0,0.0,0.0,0.0,0.0,0.0,0.0,0.0,0.0,0.0,0.0,0.0,0.0,0.0,0.0,0.0,0.0,0.0,0.0,0.0,0.0,0.0,0.0,0.0,0.0,0.0,0.0,0.0,0.0,0.0,0.0,0.0,0.0,0.0,0.0,0.0,0.0,0.0,0.0,0.0,0.0,0.0,0.0,0.0,0.0,0.0,0.0,0.0,0.0,0.0,0.0,0.0,0.0,0.0,0.0,0.0,0.0,0.0,0.0,0.0,0.0,0.0,0.0,0.0,0.0,0.0,0.0,0.0,0.0,0.0,0.0,0.0,0.0,0.0,0.0,0.0,0.0,0.0,0.0,0.0,0.0,0.0,0.0,0.0,0.0,0.0,0.0,0.0,0.0,0.0,0.0,0.0,0.0,0.0,0.0,0.0,0.0,0.0,0.0,0.0,0.0,0.0,0.0,0.0,0.0,0.0,0.0,0.0,0.0,0.0,0.0,0.0,0.0,0.0,0.0,0.0,0.0,0.0,0.0,0.0,0.0,0.0,0.0,0.0,0.0,0.0,0.0,0.0,0.0,0.0,0.0,0.0,0.0,0.0,0.0,0.0,0.0,0.0,0.0,0.0,0.0,0.0,0.0,0.0,0.0,0.0,0.0,0.0,0.0,0.0,0.0,0.0,0.0,0.0,0.0,0.0,0.0,0.0,0.0,0.0,0.0,0.0,0.0,0.0,0.0,0.0,0.0,0.0,0.0,0.0,0.0,0.0,0.0,0.0,0.0,0.0,0.0,0.0,0.0,0.0,0.0,0.0,0.0,0.0,0.0,0.0,0.0,0.0,0.0,0.0,0.0,0.0,0.0,0.0,0.0,0.0,0.0,0.0,0.0,0.0,0.0,0.0,0.0,0.0,0.0,0.0,0.0,0.0,0.0,0.0,0.0,0.0,0.0,0.0,0.0,0.0,0.0,0.0,0.0,0.0,0.0,0.0,0.0,0.0,0.0,0.0,0.0,0.0,0.0,0.0,0.0,0.0,0.0,0.0,0.0,0.0,0.0,0.0,0.0,0.0,0.0,0.0,0.0,0.0,0.0,0.0,0.0,0.0,0.0,0.0,0.0,0.0,0.0,0.0,0.0,0.0,0.0,0.0,0.0,0.0,0.0,0.0,0.0,0.0,0.0,0.0,0.0,0.0,0.0,0.0,0.0,0.0,0.0,0.0,0.0,0.0,0.0,0.0,0.0,0.0,0.0,0.0,0.0,0.0,0.0,0.0,0.0,0.0,0.0,0.0,0.0,0.0,0.0,0.0,0.0,0.0,0.0,0.0,0.0,0.0,0.0,0.0,0.0,0.0,0.0,0.0,0.0,0.0,0.0,0.0,0.0,0.0,0.0,0.0,0.0,0.0,0.0,0.0,0.0,0.0,0.0,0.0,0.0,0.0,0.0,0.0,0.0,0.0,0.0,0.0,0.0,0.0,0.0,0.0,0.0,0.0,0.0,0.0,0.0,0.0,0.0,0.0,0.0,0.0,0.0,0.0,0.0,0.0,0.0,0.0,0.0,0.0,0.0,0.0,0.0,0.0,0.0,0.0,0.0,0.0,0.0,0.0,0.0,0.0,0.0,0.0,0.0,0.0,0.0,0.0,0.0,0.0,0.0,0.0,0.0,0.0,0.0,0.0,0.0,0.0,0.0,0.0,0.0,0.0,0.0,0.0,0.0,0.0,0.0,0.0,0.0,0.0,0.0,0.0,0.0,0.0,0.0,0.0,0.0,0.0,0.0,0.0,0.0,0.0,0.0,0.0,0.0,0.0,0.0,0.0,0.0,0.0,0.0,0.0,0.0,0.0,0.0,0.0,0.0,0.0,0.0,0.0,0.0,0.0,0.0,0.0,0.0,0.0,0.0,0.0,0.0,0.0,0.0,0.0,0.0,0.0,0.0,0.0,0.0,0.0,0.0,0.0,0.0,0.0,0.0,0.0,0.0,0.0,0.0,0.0,0.0,0.0,0.0,0.0,0.0,0.0,0.0,0.0,0.0,0.0,0.0,0.0,0.0,0.0,0.0,0.0,0.0,0.0,0.0,0.0,0.0,0.0,0.0,0.0,0.0,0.0,0.0,0.0,0.0,0.0,0.0,0.0,0.0,0.0,0.0,0.0,0.0,0.0,0.0,0.0,0.0,0.0,0.0,0.0,0.0,0.0,0.0,0.0,0.0,0.0,0.0,0.0,0.0,0.0,0.0,0.0,0.0,0.0,0.0,0.0,0.0,0.0,0.0,0.0,0.0,0.0,0.0,0.0,0.0,0.0,0.0,0.0,0.0,0.0,0.0,0.0,0.0,0.0,0.0,0.0,0.0,0.0,0.0,0.0,0.0,0.0,0.0,0.0,0.0,0.0,0.0,0.0,0.0,0.0,0.0,0.0,0.0,0.0,0.0,0.0,0.0,0.0,0.0,0.0,0.0,0.0,0.0,0.0,0.0,0.0,0.0,0.0,0.0,0.0,0.0,0.0,0.0,0.0,0.0,0.0,0.0,0.0,0.0,0.0,0.0,0.0,0.0,0.0,0.0,0.0,0.0,0.0,0.0,0.0,0.0,0.0,0.0,0.0,0.0,0.0,0.0,0.0,0.0,0.0,0.0,0.0,0.0,0.0,0.0,0.0,0.0,0.0,0.0,0.0,0.0,0.0,0.0,0.0,0.0,0.0,0.0,0.0,0.0,0.0,0.0,0.0,0.0,0.0,0.0,0.0,0.0,0.0,0.0,0.0,0.0,0.0,0.0,0.0,0.0,0.0,0.0,0.0,0.0,0.0,0.0,0.0,0.0,0.0,0.0,0.0,0.0,0.0,0.0,0.0,0.0,0.0,0.0,0.0,0.0,0.0,0.0,0.0,0.0,0.0,0.0,0.0,0.0,0.0,0.0,0.0,0.0,0.0,0.0,0.0,0.0,0.0,0.0,0.0,0.0,0.0,0.0,0.0,0.0,0.0,0.0,0.0,0.0,0.0,0.0,0.0,0.0,0.0,0.0,0.0,0.0,0.0,0.0,0.0,0.0,0.0,0.0,0.0,0.0,0.0,0.0,0.0,0.0,0.0,0.0,0.0,0.0,0.0,0.0,0.0,0.0,0.0,0.0,0.0,0.0,0.0,0.0,0.0,0.0,0.0,0.0,0.0,0.0,0.0,0.0,0.0,0.0,0.0,0.0,0.0,0.0,0.0,0.0,0.0,0.0,0.0,0.0,0.0,0.0,0.0,0.0,0.0,0.0,0.0,0.0,0.0,0.0,0.0,0.0,0.0,0.0,0.0,0.0,0.0,0.0,0.0,0.0,0.0,0.0,0.0,0.0,0.0,0.0,0.0,0.0,0.0,0.0,0.0,0.0,0.0,0.0,0.0,0.0,0.0,0.0,0.0,0.0,0.0,0.0,0.0,0.0,0.0,0.0,0.0,0.0,0.0,0.0,0.0,0.0,0.0,0.0,0.0,0.0,0.0,0.0,0.0,0.0,0.0,0.0,0.0,0.0,0.0,0.0,0.0,0.0,0.0,0.0,0.0,0.0,0.0,0.0,0.0,0.0,0.0,0.0,0.0,0.0,0.0,0.0,0.0,0.0,0.0,0.0,0.0,0.0,0.0,0.0,0.0,0.0,0.0,0.0,0.0,0.0,0.0,0.0,0.0,0.0,0.0,0.0,0.0,0.0,0.0,0.0,0.0,0.0,0.0,0.0,0.0,0.0,0.0,0.0,0.0,0.0,0.0,0.0,0.0,0.0,0.0,0.0,0.0,0.0,0.0,0.0,0.0,0.0,0.0,0.0,0.0,0.0,0.0,0.0,0.0,0.0,0.0,0.0,0.0,0.0,0.0,0.0,0.0,0.0,0.0,0.0,0.0,0.0,0.0,0.0,0.0,0.0,0.0,0.0,0.0,0.0,0.0,0.0,0.0,0.0,0.0,0.0,0.0,0.0,0.0,0.0,0.0,0.0,0.0,0.0,0.0,0.0,0.0,0.0,0.0,0.0,0.0,0.0,0.0,0.0,0.0,0.0,0.0,0.0,0.0,0.0,0.0,0.0,0.0,0.0,0.0,0.0,0.0,0.0,0.0,0.0,0.0,0.0,0.0,0.0,0.0,0.0,0.0,0.0,0.0,0.0,0.0,0.0,0.0,0.0,0.0,0.0,0.0,0.0,0.0,0.0,0.0,0.0,0.0,0.0,0.0,0.0,0.0,0.0,0.0,0.0,0.0,0.0,0.0,0.0,0.0,0.0,0.0,0.0,0.0,0.0,0.0,0.0,0.0,0.0,0.0,0.0,0.0,0.0,0.0,0.0,0.0,0.0,0.0,0.0,0.0,0.0,0.0,0.0,0.0,0.0,0.0,0.0,0.0,0.0,0.0,0.0,0.0,0.0,0.0,0.0,0.0,0.0,0.0,0.0,0.0,0.0,0.0,0.0,0.0,0.0,0.0,0.0,0.0,0.0,0.0,0.0,0.0,0.0,0.0,0.0,0.0,0.0,0.0,0.0,0.0,0.0,0.0,0.0,0.0,0.0,-2.5508,-2.5176,0.0,0.0,0.0,0.0,0.0,0.0,0.0,0.0,0.0,0.0,0.0,0.0,0.0,0.0,0.0,0.0,0.0,0.0,0.0,0.0,0.0,0.0,0.0,0.0,0.0,0.0,0.0,0.0,0.0,0.0,0.0,0.0,0.0,0.0,0.0,0.0,0.0,0.0,0.0,0.0,0.0,0.0,0.0,0.0,0.0,0.0,0.0,0.0,0.0,0.0,0.0,0.0,0.0,0.0,0.0,0.0,0.0,0.0,0.0,0.0,0.0,0.0,0.0,0.0,0.0,0.0,0.0,0.0,0.0,0.0,0.0,0.0,0.0,0.0,0.0,0.0,0.0,0.0,0.0,0.0,0.0,0.0,0.0,0.0,0.0,0.0,0.0,0.0,0.0,0.0,0.0,0.0,0.0,0.0,0.0,0.0,0.0,0.0,0.0,0.0,0.0,0.0,0.0,0.0,0.0,0.0,0.0,0.0,0.0,0.0,0.0,0.0,0.0,0.0,-2.6321,-2.5611,0.0,0.0,0.0,0.0,0.0,0.0,0.0,0.0,0.0,0.0,0.0,0.0,0.0,0.0,0.0,0.0,0.0,0.0,0.0,0.0,0.0,0.0,0.0,0.0,0.0,0.0,0.0,0.0,0.0,0.0,0.0,0.0,0.0,0.0,0.0,0.0,0.0,0.0,0.0,0.0,0.0,0.0,0.0,0.0,0.0,0.0,0.0,0.0,0.0,0.0,0.0,0.0,0.0,0.0,0.0,0.0,0.0,0.0,0.0,0.0,0.0,0.0,0.0,0.0,0.0,0.0,0.0,0.0,0.0,0.0,0.0,0.0,0.0,0.0,0.0,0.0,0.0,0.0,0.0,0.0,0.0,0.0,0.0,0.0,0.0,0.0,0.0,0.0,0.0,0.0,0.0,0.0,0.0,0.0,0.0,0.0,0.0,0.0,0.0,0.0,0.0,0.0,0.0,0.0,0.0,0.0,0.0,0.0,-2.6571,-2.7786,-2.8264,-2.8814,-2.8397,-2.7176,-2.7101,-2.6297,-2.505,-2.4472,0.0,0.0,0.0,0.0,0.0,0.0,0.0,0.0,0.0,0.0,0.0,0.0,0.0,0.0,0.0,0.0,0.0,0.0,0.0,0.0,0.0,0.0,0.0,0.0,0.0,0.0,0.0,0.0,0.0,0.0,0.0,0.0,0.0,0.0,0.0,0.0,0.0,0.0,-3.1072,-3.1205,-3.0904,-3.0307,0.0,0.0,0.0,0.0,0.0,0.0,0.0,0.0,0.0,0.0,0.0,0.0,0.0,0.0,0.0,0.0,0.0,0.0,0.0,0.0,0.0,0.0,0.0,0.0,0.0,0.0,0.0,0.0,0.0,0.0,0.0,0.0,0.0,0.0,0.0,0.0,0.0,0.0,0.0,0.0,0.0,0.0,0.0,0.0,-1.2733,-1.2575,0.0,0.0,0.0,0.0,0.0,0.0,0.0,0.0,0.0,0.0,0.0,0.0,0.0,-2.1998,-2.3223,-2.584,-2.7108,-2.6999,-2.9803,-3.0842,-3.0402,-2.9752,-2.8995,-2.8278,-2.7597,0.0,-2.4883,-2.4249,0.0,0.0,0.0,0.0,0.0,0.0,0.0,0.0,0.0,0.0,0.0,0.0,0.0,0.0,0.0,0.0,0.0,0.0,0.0,0.0,0.0,0.0,0.0,0.0,0.0,0.0,0.0,0.0,0.0,0.0,0.0,0.0,0.0,0.0,0.0,0.0,-2.8682,-3.0121,-3.0716,-3.0749,-3.0032,-2.8722,-2.9129,-2.8651,-2.7506,-2.684,0.0,0.0,0.0,0.0,0.0,0.0,0.0,0.0,0.0,0.0,0.0,0.0,0.0,0.0,0.0,0.0,0.0,0.0,0.0,0.0,0.0,0.0,0.0,0.0,0.0,0.0,0.0,0.0,0.0,0.0,0.0,0.0,0.0,0.0,0.0,0.0,0.0,0.0,0.0,-1.1927,-1.117,-1.005,-0.8968,-0.7943,0.0,0.0,0.0,0.0,0.0,0.0,0.0,0.0,0.0,-2.2569,-2.346,-2.4835,-2.6712,-2.8201,-2.9632,-3.1131,-3.186,-3.2068,-3.1806,-3.0833,-2.9823,-2.8741,-2.8331,-2.7435,-2.6149,-2.5277,-2.472,-2.4456,0.0,0.0,0.0,0.0,-2.4456,-2.4469,0.0,0.0,0.0,0.0,0.0,0.0,0.0,0.0,0.0,0.0,0.0,0.0,0.0,0.0,0.0,0.0,0.0,0.0,0.0,0.0,0.0,0.0,0.0,0.0,0.0,0.0,0.0,0.0,-2.906,-3.0028,-3.0064,-2.9729,-2.8794,-2.7375,-2.751,-2.7504,-2.7314,-2.6472,-2.5511,0.0,0.0,0.0,0.0,0.0,0.0,0.0,0.0,0.0,0.0,0.0,0.0,0.0,0.0,0.0,0.0,0.0,0.0,0.0,0.0,0.0,0.0,0.0,0.0,0.0,0.0,0.0,0.0,0.0,0.0,0.0,0.0,0.0,0.0,0.0,0.0,0.0,0.0,-1.0455,-0.9423,-0.733,-0.6867,-0.6726,0.0,0.0,0.0,0.0,0.0,0.0,-2.0197,-2.1802,-2.3171,-2.4192,-2.554,-2.7356,-2.9487,-3.0232,-3.1635,-3.3671,-3.3171,-3.2749,-3.2249,-3.1536,-3.0371,-2.8925,-2.8775,-2.8172,-2.7205,-2.6226,-2.5498,-2.5021,-2.5021,-2.5021,-2.5021,-2.5021,-2.5021,-2.5059,0.0,0.0,0.0,0.0,0.0,0.0,0.0,0.0,0.0,0.0,0.0,0.0,0.0,0.0,0.0,0.0,0.0,0.0,0.0,0.0,0.0,0.0,0.0,0.0,0.0,0.0,0.0,-2.6474,-2.8329,-2.931,-2.9406,-2.8148,-2.7495,-2.7339,-2.5907,-2.4964,-2.4553,-2.5667,-2.4997,-2.3263,0.0,0.0,0.0,0.0,0.0,0.0,0.0,0.0,0.0,0.0,0.0,0.0,0.0,0.0,0.0,0.0,0.0,0.0,0.0,0.0,0.0,0.0,0.0,0.0,0.0,0.0,0.0,0.0,0.0,0.0,0.0,0.0,0.0,0.0,0.0,0.0,0.0,0.0,0.0,-0.4979,-0.6597,0.0,0.0,0.0,0.0,-1.5658,-1.7095,-1.9551,-2.3078,-2.3769,-2.5267,-2.7794,-2.877,-2.9872,-3.1053,-3.2848,-3.3366,-3.2664,-3.3518,-3.3031,-3.1241,-3.1254,-3.0371,-2.89,-2.8373,-2.7821,-2.7243,-2.6653,-2.6076,-2.5548,-2.5548,-2.5548,-2.5548,-2.5548,-2.5548,-2.5485,0.0,0.0,0.0,0.0,0.0,0.0,0.0,0.0,0.0,0.0,0.0,0.0,0.0,0.0,0.0,0.0,0.0,0.0,0.0,0.0,0.0,0.0,0.0,0.0,0.0,0.0,-2.553,-2.6474,-2.753,-2.7673,-2.6964,-2.6485,-2.5725,-2.4789,-2.4222,-2.3832,-2.3582,-2.4436,-2.4137,-2.3115,-2.3516,-2.3428,0.0,0.0,0.0,0.0,0.0,0.0,0.0,0.0,0.0,0.0,0.0,0.0,0.0,0.0,0.0,0.0,0.0,0.0,0.0,0.0,0.0,0.0,0.0,0.0,0.0,0.0,0.0,0.0,0.0,0.0,0.0,0.0,0.0,0.0,0.0,0.0,0.0,-0.8184,-0.8822,0.0,-1.2586,-1.517,-1.6919,-1.7588,-2.0833,-2.3238,-2.4304,-2.5847,-2.7449,-2.8934,-3.0037,-3.1409,-3.2961,-3.3101,-3.3241,-3.3518,-3.2593,-3.1815,-3.118,-3.0558,-3.0025,-2.9478,-2.9277,-2.8875,-2.8298,-2.7745,-2.6979,-2.6151,-2.6151,-2.6151,-2.6151,-2.6151,-2.6151,-2.6126,0.0,0.0,0.0,0.0,0.0,0.0,0.0,0.0,0.0,0.0,0.0,0.0,0.0,0.0,0.0,0.0,0.0,0.0,0.0,0.0,0.0,0.0,0.0,0.0,0.0,0.0,-2.5233,-2.6198,-2.6812,-2.6476,-2.5292,-2.5055,-2.4275,-2.316,-2.308,-2.2949,-2.2899,-2.3464,-2.3489,-2.309,-2.3351,-2.3314,-2.3078,0.0,0.0,0.0,0.0,0.0,0.0,0.0,0.0,0.0,0.0,0.0,0.0,0.0,0.0,0.0,0.0,0.0,0.0,0.0,0.0,0.0,0.0,0.0,0.0,0.0,0.0,0.0,0.0,0.0,0.0,0.0,0.0,0.0,0.0,-0.9307,-0.8848,-0.989,-1.0863,-1.2357,-1.4721,-1.6608,-1.8345,-1.9973,-2.2872,-2.5005,-2.588,-2.7267,-2.8694,-3.0024,-3.0843,-3.196,-3.3518,-3.289,-3.2749,-3.3031,-3.1815,-3.1044,-3.0696,-3.0075,-2.9792,-2.9779,-2.9578,-2.9289,-2.8888,-2.8335,-2.7557,-2.6716,-2.6596,-2.6533,-2.6533,-2.6533,-2.6533,-2.6533,0.0,0.0,0.0,0.0,0.0,0.0,0.0,0.0,0.0,0.0,0.0,0.0,0.0,0.0,0.0,0.0,0.0,0.0,0.0,0.0,0.0,0.0,0.0,0.0,0.0,0.0,0.0,0.0,0.0,0.0,0.0,0.0,0.0,-2.2511,-2.2337,-2.2272,-2.2322,-2.2874,-2.3053,-2.3103,-2.374,-2.364,-2.319,0.0,0.0,0.0,0.0,0.0,0.0,0.0,0.0,0.0,0.0,0.0,0.0,0.0,0.0,0.0,0.0,0.0,0.0,0.0,0.0,0.0,0.0,0.0,0.0,0.0,0.0,0.0,0.0,0.0,0.0,0.0,0.0,0.0,-0.9485,-1.0281,-1.0181,-0.9618,-1.2448,-1.461,-1.5397,-1.6916,-1.9306,-2.2805,-2.3181,-2.4629,-2.7992,-2.8164,-2.9164,-3.1167,-3.1254,-3.1669,-3.2593,-3.2593,-3.2105,-3.118,-3.118,-3.0696,-2.9792,-2.9792,-2.9792,-2.9767,-2.9202,-2.895,-2.8913,-2.8348,-2.7795,-2.7268,-2.6703,-2.6546,-2.6533,-2.6533,-2.6533,-2.6533,0.0,0.0,0.0,0.0,0.0,0.0,0.0,0.0,0.0,0.0,0.0,0.0,0.0,0.0,0.0,0.0,0.0,0.0,0.0,0.0,0.0,0.0,0.0,0.0,0.0,0.0,0.0,0.0,0.0,0.0,0.0,0.0,0.0,0.0,-2.115,-2.1343,-2.1757,-2.2297,-2.2535,-2.2585,-2.315,-2.3276,-2.3042,0.0,0.0,0.0,0.0,0.0,0.0,0.0,0.0,0.0,0.0,0.0,0.0,0.0,0.0,0.0,0.0,0.0,0.0,0.0,0.0,0.0,0.0,0.0,0.0,0.0,0.0,0.0,0.0,0.0,0.0,0.0,0.4893,-0.0,-0.6159,-0.9465,-1.1331,-1.1582,-1.401,-1.6348,-1.8029,-2.0828,-2.2976,-2.4077,-2.6406,-2.8138,-2.9061,-2.991,-3.0917,-3.2177,-3.2249,-3.2321,-3.2593,-3.1888,-3.1462,-3.118,-3.0482,-3.0075,-2.9792,-2.9792,-2.9792,-2.9779,-2.9628,-2.9553,-2.9478,-2.8511,-2.8247,-2.8386,-2.7431,-2.6816,-2.6533,-2.6533,-2.6533,-2.6533,0.0,0.0,0.0,0.0,0.0,0.0,0.0,0.0,0.0,0.0,0.0,0.0,0.0,0.0,0.0,0.0,0.0,0.0,0.0,0.0,0.0,0.0,0.0,0.0,0.0,0.0,0.0,0.0,0.0,0.0,0.0,0.0,0.0,0.0,0.0,-2.084,-2.1179,-2.1732,-2.2096,-2.2334,-2.2661,-2.2924,-2.3067,-2.2618,-2.2374,-2.2226,-2.1893,-2.0959,-1.9968,-1.9659,0.0,0.0,0.0,0.0,0.0,0.0,0.0,0.0,0.0,0.0,0.0,0.0,0.0,0.0,0.0,0.0,0.0,0.0,0.0,0.0,0.0,0.0,0.0,0.0,0.9538,0.5277,-0.2294,-0.824,-1.2149,-1.3164,-1.5985,-1.876,-2.0978,-2.3444,-2.548,-2.6926,-2.8857,-3.0189,-3.0803,-3.1409,-3.2033,-3.2593,-3.2249,-3.2033,-3.2033,-3.1044,-3.062,-3.0633,-3.0075,-2.9792,-2.9792,-2.9792,-2.9792,-2.9792,-2.9792,-2.9792,-2.9729,-2.8825,-2.8499,-2.8473,0.0,0.0,0.0,0.0,-2.6533,-2.6533,0.0,0.0,0.0,0.0,0.0,0.0,0.0,0.0,0.0,0.0,0.0,0.0,0.0,0.0,0.0,0.0,0.0,0.0,0.0,0.0,0.0,0.0,0.0,0.0,0.0,0.0,0.0,0.0,0.0,0.0,0.0,0.0,0.0,0.0,0.0,0.0,-2.0756,-2.1255,-2.1807,-2.2322,-2.2385,-2.2698,-2.3117,-2.3018,-2.2534,-2.176,-2.1176,-1.9814,-1.8208,-1.7925,0.0,0.0,0.0,0.0,0.0,0.0,0.0,0.0,0.0,0.0,0.0,0.0,0.0,0.0,0.0,0.0,0.0,0.0,0.0,0.0,0.0,0.0,0.0,0.0,1.1308,0.8957,0.081,-0.7392,-1.3034,-1.4261,-1.7966,-2.1318,-2.3722,-2.5267,-2.7413,-3.047,-3.0849,-3.1575,-3.2899,-3.2888,0.0,0.0,0.0,-3.1281,-3.1136,-3.0241,-2.9792,-2.9792,-2.9792,-2.9792,-2.9792,-2.9792,-2.9792,-2.9792,-2.9792,-2.9792,-2.9741,-2.9164,-2.8599,-2.7996,-2.6892,-2.6753,-2.713,-2.671,-2.6533,-2.6533,0.0,0.0,0.0,0.0,0.0,0.0,0.0,0.0,0.0,0.0,0.0,0.0,0.0,0.0,0.0,0.0,0.0,0.0,0.0,0.0,0.0,0.0,0.0,0.0,0.0,0.0,0.0,0.0,0.0,0.0,0.0,0.0,0.0,0.0,0.0,0.0,-2.0756,-2.1255,-2.1807,-2.2347,-2.2799,-2.3037,-2.2969,-2.1637,-2.1237,-2.1105,-1.9107,-1.8394,-1.7925,-1.5619,-1.4423,-1.3622,-1.1822,0.0,0.0,0.0,0.0,0.0,0.0,0.0,0.0,0.0,0.0,0.0,0.0,0.0,0.0,0.0,0.0,0.0,0.0,0.0,0.0,1.0732,0.8288,0.4096,-0.1382,-0.9994,-1.5405,-1.4561,-1.8641,-2.2621,-2.4918,-2.818,-3.0823,-3.2424,-3.3695,-3.4692,-3.5282,-3.4838,-3.4356,-3.4029,-3.2959,-3.1837,-3.0735,-3.0083,-2.9792,-2.9792,-2.9792,0.0,-2.9792,-2.9792,-2.9792,-2.9792,-2.9792,-2.9792,-2.9741,-2.9164,-2.8599,-2.7996,-2.6892,-2.6596,-2.6603,-2.6571,-2.6533,-2.6533,0.0,0.0,0.0,0.0,0.0,0.0,0.0,0.0,0.0,0.0,0.0,0.0,0.0,0.0,0.0,0.0,0.0,0.0,0.0,0.0,0.0,0.0,0.0,0.0,0.0,0.0,0.0,0.0,0.0,0.0,0.0,0.0,0.0,0.0,0.0,0.0,-2.0756,-2.1255,-2.1807,-2.2334,-2.2611,-2.2635,-2.2408,-2.1312,-2.1029,-2.0895,-1.8629,-1.7592,-1.6911,-1.4445,-1.3211,-1.2326,-1.0819,-1.0049,-0.9727,0.0,0.0,0.0,0.0,0.0,0.0,0.0,0.0,0.0,0.0,0.0,0.0,0.0,0.0,-0.4422,-0.0192,0.0,0.2303,0.5331,0.3095,-0.0446,-0.4578,-1.3118,-1.8451,-1.742,-2.119,-2.5115,-2.8119,-3.0897,-3.3172,-3.4796,-3.5619,-3.6282,-3.6696,-3.6358,-3.5653,-3.4463,-3.3518,-3.2273,-3.062,-3.0068,-2.9792,-2.9792,-2.9792,-2.9792,-2.9792,-2.9792,-2.9792,-2.9792,-2.9792,-2.9792,-2.9741,-2.9164,-2.8599,-2.8047,-2.7494,-2.7118,-2.6866,-2.6866,-2.6703,-2.6452,0.0,0.0,0.0,0.0,0.0,0.0,0.0,0.0,0.0,0.0,0.0,0.0,0.0,0.0,0.0,0.0,0.0,0.0,0.0,0.0,0.0,0.0,0.0,0.0,0.0,0.0,0.0,0.0,0.0,0.0,0.0,0.0,0.0,0.0,0.0,0.0,0.0,-2.1455,-2.197,-2.2426,-2.2337,-2.2068,-2.1654,-2.0941,-2.0619,-2.0261,-1.8206,-1.6655,-1.5194,-1.3308,-1.1933,-1.088,-0.999,-0.9572,-0.9361,-0.8538,-0.8139,0.0,0.0,0.0,0.0,0.0,0.0,0.0,0.0,-0.7878,-0.841,-0.8524,-0.8493,-0.7674,-0.4995,-0.4571,-0.4035,-0.2535,-0.3726,-0.6275,-0.9871,-1.6636,-2.1335,-2.1473,-2.432,-2.764,-3.1123,-3.3091,-3.4825,-3.6546,-3.7111,-3.7274,-3.7205,-3.7212,-3.6388,-3.4355,-3.3655,-3.2417,-3.062,-3.0068,-2.9792,-2.9792,-2.9792,-2.9792,-2.9792,-2.9792,-2.9792,-2.9792,-2.9792,-2.9792,-2.9754,-2.9289,-2.8762,-2.8285,-2.8386,-2.7875,-2.7133,-2.7008,-2.6706,-2.6094,0.0,0.0,0.0,0.0,0.0,0.0,0.0,0.0,0.0,0.0,0.0,0.0,0.0,0.0,0.0,0.0,0.0,0.0,0.0,0.0,0.0,0.0,0.0,0.0,0.0,0.0,0.0,0.0,0.0,0.0,0.0,0.0,0.0,0.0,0.0,0.0,0.0,-2.2196,-2.2535,-2.2955,-2.2597,-2.1922,-2.0842,-1.9377,-1.8557,-1.8056,-1.6471,-1.4687,-1.2829,-1.0897,-0.9609,-0.8569,-0.7454,-0.7022,-0.6896,-0.6757,-0.675,-0.6655,-0.6579,-0.6698,-0.7253,-0.8824,-0.8991,-0.9072,0.0,-0.9736,-0.9376,-0.8685,-0.8385,-0.8624,-0.979,-1.0018,-1.0251,-1.0915,-1.2986,-1.5663,-1.914,-2.0954,-2.3102,-2.6296,-2.7097,-2.8563,-3.1768,-3.398,-3.5471,-3.6217,-3.8014,-3.8311,-3.6395,-3.665,-3.5963,-3.3887,-3.276,-3.168,-3.062,-3.0068,-2.9792,-2.9792,-2.9792,-2.9792,-2.9792,-2.9792,-2.9792,-2.9792,-2.9792,-2.9792,-2.9779,-2.9729,-2.9352,-2.8888,-2.9402,-2.8396,-2.6506,-2.6152,-2.5649,-2.5004,0.0,0.0,0.0,0.0,0.0,0.0,0.0,0.0,0.0,0.0,0.0,0.0,0.0,0.0,0.0,0.0,0.0,0.0,0.0,0.0,0.0,0.0,0.0,0.0,0.0,0.0,0.0,0.0,0.0,0.0,0.0,0.0,0.0,0.0,0.0,0.0,0.0,-2.1794,-2.2168,-2.2313,-2.152,-2.0599,-1.9595,-1.8142,-1.6438,-1.4784,-1.3895,-1.3079,0.0,0.0,-0.8396,-0.7849,-0.6835,-0.6403,-0.6376,-0.6548,-0.6549,-0.6569,-0.6817,-0.7534,-0.8464,-0.9216,-0.9958,-1.0667,-1.1009,-1.0493,-1.0075,-1.0513,-1.0002,-1.0228,-1.2446,-1.2845,-1.3143,-1.433,-1.5894,-1.8022,-2.0772,-2.2578,-2.4763,-2.7939,-2.9201,-3.0682,-3.292,-3.4299,-3.5343,-3.6105,-3.7007,-3.7161,-3.6277,-3.6353,-3.5659,-3.3847,-3.2988,-3.1967,-3.062,-3.0068,-2.9792,-2.9792,-2.9792,-2.9792,-2.9792,-2.9792,-2.9792,-2.9792,-2.9792,-2.9603,-2.9315,-2.9654,-2.9264,-2.8424,-2.843,-2.7625,-2.651,-2.6633,-2.5761,-2.4408,0.0,0.0,0.0,0.0,0.0,0.0,0.0,0.0,0.0,0.0,0.0,0.0,0.0,0.0,0.0,0.0,0.0,0.0,0.0,0.0,0.0,0.0,0.0,0.0,0.0,0.0,0.0,0.0,0.0,0.0,0.0,0.0,0.0,0.0,0.0,0.0,0.0,-2.1087,-2.1231,-2.093,-1.994,-1.8883,-1.7665,-1.6703,-1.4651,-1.2363,-1.2216,-1.171,0.0,0.0,-0.7629,-0.7242,-0.6437,-0.6234,-0.6288,-0.6434,-0.6505,-0.6709,-0.7343,-0.8584,-0.9887,-1.0716,-1.1854,-1.277,-1.2975,-1.2047,-1.1519,-1.2672,-1.205,-1.2161,-1.4724,-1.5153,-1.549,-1.6746,-1.802,-1.9535,-2.1796,-2.3993,-2.634,-2.9078,-3.0548,-3.1914,-3.3242,-3.4157,-3.4979,-3.5734,-3.629,-3.6369,-3.5814,-3.6124,-3.5595,-3.4005,-3.3443,-3.2343,-3.0749,-3.042,-3.0075,-2.9792,-2.9792,-2.9792,-2.9792,-2.9792,-2.9792,-2.9792,-2.9792,-2.9465,-2.8963,-2.9377,-2.8976,-2.8061,-2.7436,-2.6813,-2.6263,-2.6228,-2.5294,-2.3831,0.0,0.0,0.0,0.0,0.0,0.0,0.0,0.0,0.0,0.0,0.0,0.0,0.0,0.0,0.0,0.0,0.0,0.0,0.0,0.0,0.0,0.0,0.0,0.0,0.0,0.0,0.0,0.0,0.0,0.0,0.0,0.0,0.0,0.0,0.0,0.0,0.0,0.0,-1.9626,-1.8672,-1.8245,-1.6754,-1.4734,-1.4847,-1.3519,-1.1561,-1.2071,0.0,0.0,0.0,-0.7176,-0.6311,-0.6084,-0.6139,0.0,-0.6088,-0.6251,-0.6785,-0.8266,-0.9734,-1.1516,-1.4235,-1.5147,-1.5504,-1.6072,-1.5097,-1.4079,-1.4504,-1.4217,-1.4661,-1.7266,-1.7485,-1.7849,-1.9222,-2.0413,-2.1966,-2.4196,-2.6029,-2.8041,-3.0263,-3.1072,-3.1599,-3.2152,-3.377,-3.4746,-3.4746,-3.6646,-3.688,-3.4815,-3.606,-3.6046,-3.4444,-3.3776,-3.2657,-3.1206,-3.1193,-3.0696,-2.9792,-2.9792,-2.9792,-2.9792,-2.9792,-2.9792,-2.9792,-2.9792,-2.9465,-2.8925,-2.895,-2.8612,-2.8024,-2.7013,-2.6221,-2.5472,-2.4143,-2.3492,-2.3168,0.0,0.0,0.0,0.0,0.0,0.0,0.0,0.0,0.0,0.0,0.0,0.0,0.0,0.0,0.0,0.0,0.0,0.0,0.0,0.0,0.0,0.0,0.0,0.0,0.0,0.0,0.0,0.0,0.0,0.0,0.0,0.0,0.0,0.0,0.0,0.0,0.0,0.0,-1.658,-1.5546,-1.4575,-1.4193,-1.4239,-1.3052,-1.2196,-1.1585,0.0,0.0,0.0,0.0,-0.7651,-0.7586,-0.6832,-0.6397,-0.6345,-0.7382,-0.8553,-0.9607,-1.0537,-1.1891,-1.3568,-1.5625,-1.632,-1.6649,-1.7196,-1.6209,-1.5577,-1.647,-1.6116,-1.6395,-1.883,-1.9233,-1.9834,-2.1832,-2.3008,-2.4385,-2.6617,-2.7476,-2.8381,-2.9899,-3.0545,-3.0947,-3.1135,-3.2282,-3.3053,-3.3053,-3.4312,-3.4618,-3.3516,-3.4539,-3.4682,-3.3748,-3.3528,-3.2704,-3.118,-3.118,-3.0771,-2.9792,-2.9792,-2.9792,-2.9792,-2.9792,-2.9792,-2.9792,-2.9792,-2.9264,-2.8411,-2.8775,-2.8172,-2.6972,-2.6324,-2.6111,-2.6097,-2.4904,-2.4642,-2.4475,0.0,0.0,0.0,0.0,0.0,0.0,0.0,0.0,0.0,0.0,0.0,0.0,0.0,0.0,0.0,0.0,0.0,0.0,0.0,0.0,0.0,0.0,0.0,0.0,0.0,0.0,0.0,0.0,0.0,0.0,0.0,0.0,0.0,0.0,0.0,0.0,0.0,0.0,0.0,-1.2747,-1.226,-1.251,-1.3182,-1.267,-1.2433,0.0,0.0,0.0,0.0,0.0,-0.8392,-0.8605,-0.7897,-0.7431,-0.7319,-0.8513,-0.9787,-1.1016,-1.1903,-1.3635,-1.5554,-1.7111,-1.7921,-1.8409,-1.8776,-1.8054,-1.7596,-1.8877,-1.8685,-1.8824,-2.0717,-2.1303,-2.1819,-2.2875,-2.3694,-2.4894,-2.6917,-2.7186,-2.7878,-2.9561,-3.0105,-3.0539,-3.1019,-3.1749,-3.2235,-3.2357,-3.3714,-3.4322,-3.3914,-3.4682,-3.491,-3.4555,-3.4257,-3.3366,-3.1756,-3.1669,-3.1044,-2.9792,-2.9792,-2.9792,-2.9792,-2.9792,-2.9792,-2.9792,-2.9792,-2.9264,-2.8411,-2.8561,-2.8009,-2.6972,-2.5949,-2.6039,-2.6623,-2.5051,-2.4892,-2.5046,0.0,0.0,0.0,0.0,0.0,0.0,0.0,0.0,0.0,0.0,0.0,0.0,0.0,0.0,0.0,0.0,0.0,0.0,0.0,0.0,0.0,0.0,0.0,0.0,0.0,0.0,0.0,0.0,0.0,0.0,0.0,0.0,0.0,0.0,0.0,0.0,0.0,0.0,0.0,0.0,-1.1422,0.0,-1.1799,-1.3639,0.0,0.0,0.0,0.0,0.0,0.0,-0.9422,-0.9301,-0.9155,-0.9171,-0.9296,-0.9381,-1.0024,-1.1099,-1.251,-1.4835,-1.7311,-1.8752,-1.9897,-2.0674,-2.0989,-2.0271,-1.9928,-2.1396,-2.1528,-2.1611,-2.2715,-2.3477,-2.3585,-2.2617,-2.2977,-2.392,-2.558,-2.5884,-2.6904,-2.9591,-2.9934,-3.0484,-3.1869,-3.2061,-3.2312,-3.2881,-3.4762,-3.5813,-3.5784,-3.6173,-3.6432,-3.6432,-3.5833,-3.4558,-3.2678,-3.2593,-3.1623,-2.9856,-2.9792,-2.9792,-2.9792,-2.9792,-2.9792,-2.9792,-2.9792,-2.9453,-2.885,-2.8323,-2.8072,-2.7836,-2.584,-2.5993,-2.6972,-2.462,-2.4326,-2.4959,0.0,0.0,0.0,0.0,0.0,0.0,0.0,0.0,0.0,0.0,0.0,0.0,0.0,0.0,0.0,0.0,0.0,0.0,0.0,0.0,0.0,0.0,0.0,0.0,0.0,0.0,0.0,0.0,0.0,0.0,0.0,0.0,0.0,0.0,0.0,0.0,0.0,0.0,0.0,0.0,0.0,-1.325,-1.4721,0.0,0.0,0.0,0.0,0.0,0.0,-1.2352,-1.0647,-0.9859,-0.9715,-1.0396,-1.1044,-1.0564,-1.1301,-1.2688,-1.4544,-1.5697,-1.703,-1.9568,-1.9975,-1.9928,-2.062,-2.0597,-2.0368,-2.0443,-2.0909,-2.122,-2.1219,-2.2204,-2.3345,-2.433,-2.5491,-2.6818,-2.8507,-2.9365,-3.0002,-3.0781,-3.1476,-3.2028,-3.2382,-3.3042,-3.3734,-3.4425,-3.4868,-3.4965,-3.4545,-3.5259,-3.5744,-3.5744,-3.5594,-3.492,-3.3671,-3.2249,-3.1328,-3.0833,-3.0139,-2.9792,-2.9792,-2.9792,-2.9792,-2.9792,-2.9792,-2.9227,-2.8298,-2.816,-2.762,-2.6854,-2.6345,-2.659,-2.7236,-2.6993,-2.6834,-2.6554,0.0,0.0,0.0,0.0,0.0,0.0,0.0,0.0,0.0,0.0,0.0,0.0,0.0,0.0,0.0,0.0,0.0,0.0,0.0,0.0,0.0,0.0,0.0,0.0,0.0,0.0,0.0,0.0,0.0,0.0,0.0,0.0,0.0,0.0,0.0,0.0,0.0,0.0,0.0,0.0,0.0,0.0,0.0,0.0,0.0,0.0,0.0,0.0,0.0,-1.4103,-1.2487,-1.1571,-1.1075,-1.1481,-1.2012,-1.1575,-1.2249,-1.3503,-1.5098,-1.6091,-1.7217,-1.9708,-2.0139,-2.008,-2.0738,-2.0945,-2.0782,-2.0354,-2.0954,-2.1467,-2.1199,-2.249,-2.401,-2.5115,-2.6371,-2.7873,-2.9666,-3.0401,-3.1023,-3.1721,-3.2321,-3.2749,-3.3171,-3.3982,-3.481,-3.5615,-3.5327,-3.5136,-3.5116,-3.5362,-3.5504,-3.5504,-3.5504,-3.4986,-3.4027,-3.2177,-3.118,-3.118,-3.0279,-2.9792,-2.9792,-2.9792,-2.9792,-2.9779,-2.9528,-2.9051,-2.8423,-2.7946,-2.7381,-2.6804,-2.6622,-2.6804,-2.7293,-2.7356,-2.7105,-2.6444,0.0,0.0,0.0,0.0,0.0,0.0,0.0,0.0,0.0,0.0,0.0,0.0,0.0,0.0,0.0,0.0,0.0,0.0,0.0,0.0,0.0,0.0,0.0,0.0,0.0,0.0,0.0,0.0,0.0,0.0,0.0,0.0,0.0,0.0,0.0,0.0,0.0,0.0,0.0,0.0,0.0,0.0,0.0,0.0,0.0,0.0,0.0,0.0,0.0,0.0,-1.43,-1.3579,-1.2558,-1.2271,-1.2305,-1.2305,-1.2879,-1.3745,-1.4879,-1.6111,-1.7518,-1.9272,-2.0078,-2.0513,-2.0764,-2.0777,-2.0611,-2.0324,-2.0949,-2.165,-2.1731,-2.3412,-2.5039,-2.5614,-2.6676,-2.816,-3.0145,-3.0522,-3.1174,-3.2625,-3.3003,-3.3518,-3.4385,-3.5098,-3.5931,-3.6835,-3.6225,-3.5994,-3.6447,-3.5863,-3.5504,-3.5504,-3.5504,-3.5067,-3.4177,-3.2464,-3.1609,-3.1536,-3.0495,-3.0011,-3.0011,-2.9869,-2.9792,-2.9767,-2.9264,-2.9001,-2.885,-2.7896,-2.7419,-2.7231,-2.6753,-2.6816,-2.713,-2.6716,-2.6218,-2.5514,0.0,0.0,0.0,0.0,0.0,0.0,0.0,0.0,0.0,0.0,0.0,0.0,0.0,0.0,0.0,0.0,0.0,0.0,0.0,0.0,0.0,0.0,0.0,0.0,0.0,0.0,0.0,0.0,0.0,0.0,0.0,0.0,0.0,0.0,0.0,0.0,0.0,0.0,0.0,0.0,0.0,0.0,0.0,0.0,0.0,0.0,0.0,0.0,0.0,0.0,-1.4736,-1.3985,-1.2453,-1.2104,-1.2305,-1.2305,-1.2445,-1.2945,-1.4736,-1.5869,-1.6875,-1.8436,-1.9167,-1.9354,-1.9042,-1.8383,-1.7917,-1.8291,-1.9352,-2.0304,-2.0708,-2.3156,-2.5559,-2.7178,-2.8484,-2.9992,-3.1889,-3.2831,-3.3436,-3.3696,-3.5035,-3.6224,-3.6996,-3.7764,-3.8498,-3.9117,-3.7987,-3.7052,-3.6543,-3.5863,-3.5504,-3.5504,-3.5504,-3.5439,-3.5213,-3.4109,-3.3518,-3.3518,-3.1756,-3.097,-3.0895,-3.0139,-2.9792,-2.9779,-2.9691,-2.9365,-2.8913,-2.8725,-2.8109,-2.7268,-2.718,-2.6917,-2.6653,-2.7005,-2.6316,-2.5039,0.0,0.0,0.0,0.0,0.0,0.0,0.0,0.0,0.0,0.0,0.0,0.0,0.0,0.0,0.0,0.0,0.0,0.0,0.0,0.0,0.0,0.0,0.0,0.0,0.0,0.0,-1.3529,-1.3529,0.0,0.0,0.0,-1.2451,-1.2451,-1.2451,0.0,0.0,0.0,0.0,0.0,0.0,0.0,0.0,0.0,0.0,0.0,0.0,0.0,0.0,0.0,0.0,-1.4832,-1.4149,-1.259,-1.2191,-1.2305,-1.2305,-1.2666,-1.3382,-1.4807,-1.5834,-1.6757,-1.7958,-1.8295,-1.8266,-1.757,-1.7424,-1.7499,-1.7828,-1.9165,-2.0532,-2.1643,-2.3912,-2.6262,-2.8326,-3.0003,-3.1659,-3.3365,-3.4549,-3.5272,-3.5272,-3.634,-3.7174,-3.7638,-3.7948,-3.8289,-3.8583,-3.7655,-3.7031,-3.6941,-3.6028,-3.5504,-3.5504,-3.5504,-3.5504,-3.5504,-3.4476,-3.4027,-3.3959,-3.2593,-3.196,-3.1888,-3.1476,-3.0983,-3.0545,-3.0261,-2.9616,-2.89,-2.8612,-2.8185,-2.7708,-2.7708,-2.7544,-2.7235,-2.6744,-2.5744,-2.4545,0.0,0.0,0.0,0.0,0.0,0.0,0.0,0.0,0.0,0.0,0.0,0.0,0.0,0.0,0.0,0.0,0.0,0.0,0.0,0.0,0.0,0.0,0.0,0.0,0.0,0.0,0.0,-1.4746,-1.3937,0.0,0.0,0.0,0.0,0.0,-1.4156,-1.521,-1.6377,0.0,0.0,0.0,0.0,-2.2885,0.0,0.0,0.0,0.0,0.0,0.0,0.0,0.0,-1.4921,-1.4378,-1.3433,-1.2938,-1.2673,-1.2956,-1.3755,-1.4681,-1.5681,-1.6718,-1.7745,-1.8212,-1.8264,-1.7879,-1.6827,-1.7063,-1.7633,-1.7852,-1.9552,-2.1434,-2.2921,-2.5203,-2.7502,-2.9475,-3.1314,-3.3077,-3.4678,-3.5938,-3.6798,-3.7186,-3.7758,-3.8279,-3.8559,-3.8515,-3.8335,-3.8039,-3.7112,-3.6626,-3.6985,-3.6043,-3.5504,-3.5504,-3.5504,-3.5504,-3.5504,-3.4691,-3.4312,-3.4312,-3.338,-3.289,-3.289,-3.2678,-3.2105,-3.1154,-3.0718,-3.0034,-2.9076,-2.8649,-2.8398,-2.8285,-2.8039,-2.789,-2.7594,-2.6137,-2.4929,-2.3941,0.0,0.0,0.0,0.0,0.0,0.0,0.0,0.0,0.0,0.0,0.0,0.0,0.0,0.0,0.0,0.0,0.0,0.0,0.0,0.0,0.0,0.0,0.0,0.0,0.0,0.0,0.0,-1.487,-1.4328,0.0,0.0,0.0,0.0,0.0,0.0,-1.6367,-1.7172,-1.8038,0.0,0.0,0.0,0.0,0.0,0.0,0.0,0.0,0.0,-1.6665,-1.6435,-1.55,-1.5188,-1.5259,-1.5852,-1.4885,-1.3797,-1.5113,-1.6173,-1.7142,-1.7957,-1.951,-2.0709,-1.9944,-1.9644,-1.9162,-1.7537,-1.7108,-1.7284,-1.7774,-2.026,-2.2672,-2.3703,-2.6775,-2.9622,-3.0974,-3.2421,-3.4086,-3.6069,-3.6881,-3.785,-3.9323,-4.0116,-4.0896,-4.1613,-4.174,-4.1123,-3.9613,-3.7628,-3.6252,-3.5714,-3.5564,-3.5504,-3.5504,-3.5504,-3.5504,-3.5504,-3.5439,-3.5359,-3.5359,-3.4327,-3.3876,-3.3808,-3.2961,-3.2105,-3.118,-3.1127,-3.0618,-2.9704,-2.9654,-2.9327,-2.87,-2.7726,-2.7055,-2.6486,-2.5324,-2.429,-2.3419,0.0,0.0,0.0,0.0,0.0,0.0,0.0,0.0,0.0,0.0,0.0,0.0,0.0,0.0,0.0,0.0,0.0,0.0,0.0,0.0,0.0,0.0,0.0,0.0,0.0,0.0,-1.5557,-1.5619,-1.5668,0.0,0.0,0.0,0.0,0.0,0.0,-1.7503,-1.8039,-1.8528,0.0,0.0,0.0,0.0,0.0,0.0,0.0,0.0,0.0,0.0,-1.4838,-1.5076,-1.4807,-1.4657,-1.6684,-1.6821,-1.6419,-1.7272,-1.8148,-1.9052,-1.9694,-2.0838,-2.1485,-1.9887,-1.9445,-1.9002,-1.7502,-1.7509,-1.8141,-1.9159,-2.1551,-2.3923,-2.5717,-2.8274,-3.0524,-3.1917,-3.3227,-3.4358,-3.5183,-3.6576,-3.7887,-3.8819,-3.9972,-4.1062,-4.1917,-4.111,-3.9725,-3.7892,-3.6586,-3.5789,-3.5519,-3.5504,-3.5504,-3.5504,-3.5504,-3.5504,-3.5504,-3.5504,-3.5504,-3.5504,-3.5067,-3.4905,-3.4839,-3.3891,-3.2961,-3.2033,-3.1462,-3.0696,-2.9792,-2.9792,-2.9229,-2.8361,-2.7944,-2.7261,-2.6337,-2.4993,-2.3977,-2.3374,0.0,0.0,0.0,0.0,0.0,0.0,0.0,0.0,0.0,0.0,0.0,0.0,0.0,0.0,0.0,0.0,0.0,0.0,0.0,0.0,0.0,0.0,0.0,0.0,0.0,0.0,-1.6328,-1.6455,-1.701,-1.7346,0.0,0.0,-1.7777,-1.7644,0.0,0.0,0.0,0.0,0.0,0.0,0.0,0.0,0.0,0.0,0.0,0.0,0.0,0.0,0.0,0.0,0.0,-1.5396,-1.7919,0.0,0.0,-1.9338,-2.0027,-2.0907,-2.1391,-2.2264,-2.2548,-2.0736,-2.0155,-1.9616,-1.8385,-1.8834,-1.9864,-2.1192,-2.3503,-2.5878,-2.7666,-2.9848,-3.1703,0.0,0.0,-3.4848,-3.5063,-3.6682,-3.8188,-3.9091,-4.005,-4.122,-4.2542,-4.095,-3.9037,-3.7252,-3.628,-3.5714,-3.5519,-3.5504,-3.5504,-3.5504,-3.5504,-3.5504,-3.5504,-3.5504,-3.5504,-3.5504,-3.5504,-3.5359,-3.5052,-3.4312,-3.331,-3.2177,-3.1462,-3.0696,-2.9792,-2.9456,-2.8846,-2.8004,-2.7348,-2.6696,-2.5826,-2.4615,-2.3916,-2.3583,0.0,0.0,0.0,0.0,0.0,0.0,0.0,0.0,0.0,0.0,0.0,0.0,0.0,0.0,0.0,0.0,0.0,0.0,0.0,0.0,0.0,0.0,0.0,0.0,0.0,0.0,0.0,-1.7373,-1.8168,-1.8837,-1.9288,-2.0128,-2.031,-1.9902,0.0,0.0,0.0,0.0,0.0,0.0,0.0,0.0,0.0,0.0,0.0,0.0,0.0,0.0,0.0,0.0,0.0,0.0,0.0,0.0,0.0,0.0,-2.1912,-2.2769,-2.3136,-2.3989,-2.4464,-2.3003,-2.2335,-2.1691,-2.0804,-2.1442,-2.2599,-2.3716,-2.629,-2.8569,-2.9262,-3.1622,-3.3479,-3.3472,0.0,0.0,-3.64,-3.7704,-3.9167,-4.0799,-4.0911,-4.1786,-4.4151,-4.2186,-4.0235,-3.8803,-3.7324,-3.6193,-3.5549,-3.5504,-3.5504,-3.5504,-3.5504,-3.5504,-3.5504,-3.5504,-3.5504,-3.5504,-3.5504,-3.4986,-3.4027,-3.4027,-3.2961,-3.118,-3.118,-3.0696,-2.9702,-2.8597,-2.8084,-2.7844,-2.5692,-2.4872,-2.4735,-2.4221,-2.3981,-2.4073,0.0,0.0,0.0,0.0,0.0,0.0,0.0,0.0,0.0,0.0,0.0,0.0,0.0,0.0,0.0,0.0,0.0,0.0,0.0,0.0,0.0,0.0,0.0,0.0,0.0,0.0,0.0,0.0,0.0,-2.005,-2.0204,-2.0462,-2.0512,-2.0355,-2.0355,-2.0355,0.0,0.0,0.0,0.0,0.0,0.0,-1.6622,0.0,0.0,0.0,0.0,0.0,0.0,0.0,0.0,0.0,0.0,0.0,0.0,0.0,0.0,-2.3714,-2.4181,-2.412,-2.3616,-2.2514,-2.1432,-2.0741,-2.0934,-2.1804,-2.2992,-2.4503,-2.71,-2.9319,-3.0007,-3.1977,-3.3666,-3.4127,-3.4937,0.0,-3.6474,-3.8294,-4.007,-4.1517,-4.3476,-4.435,-4.3421,-4.2341,-4.0617,-3.8007,-3.7022,-3.6207,-3.5549,-3.5504,-3.5504,-3.5504,-3.5504,-3.5504,-3.5504,-3.5504,-3.5504,-3.5504,-3.4839,-3.4312,-3.3959,-3.2664,-3.1742,-3.118,-3.0482,-2.9639,-2.8597,-2.8255,-2.7186,-2.5742,-2.4775,-2.3928,-2.3223,-2.3412,-2.3363,-2.3282,0.0,0.0,0.0,0.0,0.0,0.0,0.0,0.0,0.0,0.0,0.0,0.0,0.0,0.0,0.0,0.0,0.0,0.0,0.0,0.0,0.0,0.0,0.0,0.0,0.0,0.0,0.0,0.0,0.0,0.0,-2.1388,-2.1917,-2.2372,-2.2654,-2.2654,-2.2819,0.0,0.0,0.0,0.0,0.0,0.0,-1.7834,0.0,0.0,0.0,0.0,0.0,0.0,0.0,0.0,0.0,0.0,0.0,0.0,0.0,-2.3619,-2.3791,-2.4356,-2.3891,-2.2987,-2.2196,-2.127,-2.0828,-2.1754,-2.2819,-2.432,-2.6693,-2.8842,-3.0608,-3.1851,-3.3048,-3.4094,-3.4775,-3.5486,-3.6167,-3.6894,-3.8969,-4.0961,-4.2342,-4.4622,-4.518,-4.2784,-4.2442,-4.1131,-3.8105,-3.7233,-3.6447,-3.5549,-3.5504,-3.5504,-3.5504,-3.5504,-3.5504,-3.5504,-3.5504,-3.5294,-3.492,-3.4312,-3.3602,-3.289,-3.1742,-3.1044,-3.062,-3.0075,-2.9365,0.0,-2.7855,-2.6696,-2.5335,-2.4054,-2.3157,-2.2601,-2.3402,-2.352,-2.3437,0.0,0.0,0.0,0.0,0.0,0.0,0.0,0.0,0.0,0.0,0.0,0.0,0.0,0.0,0.0,0.0,0.0,0.0,0.0,0.0,0.0,0.0,0.0,0.0,0.0,0.0,0.0,-2.0771,-2.2197,-2.2907,-2.2983,0.0,-2.5408,-2.6193,-2.6193,-2.6593,0.0,0.0,0.0,0.0,0.0,0.0,0.0,0.0,0.0,0.0,0.0,0.0,0.0,0.0,0.0,0.0,0.0,0.0,0.0,0.0,0.0,0.0,0.0,-2.3238,-2.2497,-2.2083,-2.1677,-2.1731,-2.3072,-2.4392,0.0,-2.9781,-3.1175,-3.2347,-3.4345,-3.4668,-3.4845,-3.5602,-3.6226,-3.697,-3.7779,-4.0,-4.2063,-4.3453,-4.4735,-4.4589,-4.2302,-4.2428,-4.1565,-3.8781,-3.7721,-3.6724,-3.5484,-3.5359,-3.5359,-3.5359,-3.5439,-3.5504,-3.5504,-3.5439,-3.4905,-3.4027,-3.3876,-3.289,-3.118,-3.1106,-3.062,-2.9792,-2.9702,-2.9624,-2.9378,-2.7221,-2.6284,-2.5959,-2.3446,-2.2451,-2.2641,-2.3718,-2.4209,-2.4453,0.0,0.0,0.0,0.0,0.0,0.0,0.0,0.0,0.0,0.0,0.0,0.0,0.0,0.0,0.0,0.0,0.0,0.0,0.0,0.0,0.0,0.0,0.0,0.0,0.0,0.0,0.0,-2.2457,-2.3882,-2.4917,-2.5571,-2.6343,0.0,0.0,0.0,0.0,0.0,0.0,0.0,0.0,0.0,0.0,0.0,0.0,0.0,0.0,-2.245,-2.2855,0.0,0.0,0.0,0.0,0.0,0.0,0.0,0.0,-2.3708,-2.2982,-2.2542,0.0,-2.154,-2.1531,-2.1224,-2.1548,0.0,-2.588,-2.7874,-3.0071,-3.1874,-3.3459,-3.4494,-3.5106,-3.5641,-3.6381,-3.7096,-3.7987,-3.9332,-4.2468,-4.4983,-4.5892,-4.62,-4.5193,-4.2302,-4.1563,-4.0254,-3.7918,-3.6404,-3.5209,-3.437,-3.4327,-3.4327,-3.4327,-3.5133,-3.5504,-3.5504,-3.4758,-3.4245,-3.3959,-3.2522,-3.1609,-3.118,-3.0495,-2.9998,-2.9792,-2.8858,-2.8028,-2.7139,-2.5797,-2.4514,-2.3352,-2.2438,-2.2289,-2.2756,-2.3393,-2.4146,-2.4944,0.0,0.0,0.0,0.0,0.0,0.0,0.0,0.0,0.0,0.0,0.0,0.0,0.0,0.0,0.0,0.0,0.0,0.0,0.0,0.0,0.0,0.0,0.0,0.0,0.0,0.0,0.0,0.0,0.0,-2.6344,0.0,0.0,0.0,0.0,0.0,0.0,0.0,0.0,0.0,0.0,-2.5475,0.0,0.0,0.0,0.0,0.0,-2.4883,-2.5149,0.0,-2.5883,-2.6465,-2.7183,0.0,0.0,0.0,0.0,-2.4256,-2.2944,-2.2137,-2.1689,-2.1438,-2.1113,-2.1649,-2.2822,-2.4899,0.0,-2.9606,-3.1528,-3.3057,-3.4512,-3.5908,-3.6144,-3.6502,-3.7595,-3.839,-3.9519,-4.135,-4.3367,-4.4929,-4.5604,-4.5283,-4.4058,-4.167,-4.0286,-3.8586,-3.6468,-3.508,-3.403,-3.3408,-3.3739,-3.4027,-3.4027,-3.4986,-3.5504,-3.5504,-3.4476,-3.3808,-3.331,-3.1888,-3.097,-3.0558,-2.9998,-2.9792,-2.9714,-2.8597,-2.7646,-2.6887,-2.5365,-2.4198,-2.319,-2.229,-2.2046,-2.2449,-2.3187,-2.3818,-2.448,0.0,0.0,0.0,0.0,0.0,0.0,0.0,0.0,0.0,0.0,0.0,0.0,0.0,0.0,0.0,0.0,0.0,0.0,0.0,0.0,0.0,0.0,0.0,0.0,0.0,0.0,0.0,0.0,0.0,0.0,0.0,0.0,-2.8427,0.0,0.0,0.0,0.0,0.0,0.0,-2.6658,-2.6658,0.0,0.0,0.0,0.0,0.0,0.0,0.0,0.0,-2.7621,-2.8151,-2.867,-2.8583,0.0,0.0,0.0,0.0,0.0,-2.2149,-2.2073,-2.2059,-2.1267,-2.2657,-2.4653,-2.623,0.0,0.0,0.0,-3.4037,-3.5134,-3.7458,-3.7269,-3.7228,-3.8854,-3.9868,-4.1111,-4.3076,-4.3406,-4.3561,-4.3986,-4.3106,-4.1936,-4.052,-3.8629,-3.6836,-3.5067,-3.384,-3.3001,-3.242,-3.3171,-3.3671,-3.3808,-3.4624,-3.5148,-3.5279,-3.4245,-3.331,-3.2393,-3.1389,-3.0558,-2.9792,-2.9792,-2.9702,-2.9456,-2.8359,0.0,-2.6983,-2.5214,-2.422,-2.3836,-2.2446,-2.1918,-2.2169,-2.3123,-2.3501,-2.3599,0.0,0.0,0.0,0.0,0.0,0.0,0.0,0.0,0.0,0.0,0.0,0.0,0.0,0.0,0.0,0.0,0.0,0.0,0.0,0.0,0.0,0.0,0.0,0.0,0.0,0.0,0.0,0.0,0.0,0.0,-2.8183,-2.9366,-2.9566,-2.9002,0.0,-2.8492,-2.767,-2.767,-2.7604,-2.755,-2.755,0.0,0.0,0.0,0.0,0.0,0.0,0.0,0.0,-2.9313,-2.9906,-2.9939,-2.9347,0.0,0.0,0.0,0.0,0.0,-2.2258,-2.2786,-2.3642,-2.3343,-2.424,-2.5833,-2.8246,-3.0046,0.0,0.0,-3.3684,-3.4592,-3.741,-3.7319,-3.7484,-3.9598,-4.1047,-4.2299,-4.3181,-4.338,-4.3131,-4.2445,-4.1164,-3.9802,-3.8542,-3.6611,-3.5196,-3.4548,-3.2664,-3.1556,-3.1389,-3.1536,-3.196,-3.282,-3.2961,-3.3463,-3.4245,-3.331,-3.2321,-3.1389,-3.0482,-2.9934,-2.9792,-2.9792,-2.9275,-2.8267,0.0,-2.6168,-2.5071,-2.3547,-2.2814,-2.2705,-2.2134,-2.22,-2.2642,-2.3098,-2.3383,-2.3434,0.0,0.0,0.0,0.0,0.0,0.0,0.0,0.0,0.0,0.0,0.0,0.0,0.0,0.0,0.0,0.0,0.0,0.0,0.0,0.0,0.0,0.0,0.0,0.0,0.0,0.0,0.0,0.0,0.0,-2.8791,-2.8297,-2.8683,-2.8427,-2.767,0.0,-2.767,-2.767,-2.767,-2.7986,-2.8427,0.0,0.0,0.0,0.0,0.0,0.0,0.0,0.0,0.0,0.0,-3.0644,-3.0225,-2.9923,0.0,0.0,0.0,0.0,0.0,-2.3219,-2.3245,-2.3685,-2.4491,-2.5813,-2.7247,-2.8553,-3.0488,-3.218,-3.2917,-3.3339,-3.4237,-3.6315,-3.6767,-3.7801,-4.0779,-4.1211,-4.1366,-4.2047,-4.1138,-4.0317,-4.0149,-3.902,-3.8054,-3.7388,-3.5526,-3.4019,-3.3211,-3.1743,-3.074,-3.0432,-3.0895,-3.1389,-3.1815,-3.2321,-3.2522,-3.2464,-3.2033,-3.1609,-3.118,-3.0279,-2.9456,-2.8858,-2.8858,-2.8279,-2.7197,0.0,-2.5155,-2.443,-2.3242,-2.2715,-2.249,-2.2305,-2.233,-2.2615,-2.3111,-2.3207,-2.308,0.0,0.0,0.0,0.0,0.0,0.0,0.0,0.0,0.0,0.0,0.0,0.0,0.0,0.0,0.0,0.0,0.0,0.0,0.0,0.0,0.0,0.0,0.0,0.0,0.0,0.0,-2.5578,-2.5883,-2.8196,-2.8895,-2.8127,-2.7417,-2.6947,0.0,0.0,-2.7229,-2.7986,-2.7986,-2.8573,-2.9512,0.0,0.0,0.0,0.0,0.0,0.0,0.0,0.0,0.0,0.0,0.0,0.0,0.0,0.0,0.0,-2.6647,-2.5333,-2.4004,-2.4004,-2.3678,-2.359,-2.4821,-2.6486,-2.7952,-2.8553,-3.0483,-3.2182,-3.2501,-3.302,-3.3852,-3.5416,-3.6437,-3.8035,-4.1042,-4.0707,-4.0173,-4.0554,-3.9092,-3.8026,-3.8147,-3.718,-3.6441,-3.6354,-3.4638,-3.312,-3.1941,-3.1121,-3.0382,-2.9829,-3.0482,-3.097,-3.118,-3.1683,-3.1683,-3.118,-3.0706,-3.048,-3.048,-2.9716,-2.8937,-2.8096,-2.8096,-2.7683,-2.6801,-2.5714,-2.484,-2.4294,-2.3302,-2.2861,-2.2646,-2.2549,-2.2578,-2.2673,-2.292,-2.2814,-2.2577,0.0,0.0,0.0,0.0,0.0,0.0,0.0,0.0,0.0,0.0,0.0,0.0,0.0,0.0,0.0,0.0,0.0,0.0,0.0,0.0,0.0,0.0,0.0,0.0,0.0,-2.5007,-2.6063,-2.7319,-2.8065,-2.8194,-2.7735,-2.5995,-2.6032,-2.7604,0.0,-2.8117,-2.8939,-2.8939,-2.975,-3.1027,-3.1027,0.0,0.0,0.0,0.0,0.0,0.0,0.0,0.0,0.0,0.0,0.0,0.0,0.0,-2.6117,-2.5764,-2.4897,-2.4004,-2.4004,-2.3966,-2.3988,-2.4308,-2.5466,-2.7017,-2.9034,-3.0088,-3.1011,-3.2353,-3.2608,-3.3191,-3.5292,-3.6838,-3.8049,-3.9017,-3.9601,-3.97,-3.895,-3.876,-3.8213,-3.7041,-3.5826,-3.5018,-3.4834,-3.3688,-3.2475,-3.1486,-3.0884,-3.0382,-2.9829,-2.9856,-3.0279,-3.118,-3.0419,-3.0432,-3.118,-2.9319,-2.8323,-2.8323,-2.8255,-2.8176,-2.8096,-2.8096,-2.8084,-2.7924,-2.6883,-2.5786,-2.4629,-2.3198,-2.2773,-2.3057,-2.2666,-2.2754,-2.2998,-2.2261,-2.1938,-2.206,0.0,0.0,0.0,0.0,0.0,0.0,0.0,0.0,0.0,0.0,0.0,0.0,0.0,0.0,0.0,0.0,0.0,0.0,0.0,0.0,0.0,0.0,0.0,-2.3671,-2.3879,-2.4872,-2.5453,-2.5517,-2.5741,-2.6216,-2.679,-2.6108,0.0,0.0,0.0,-2.9002,-2.9827,-2.9827,-3.0398,-3.1382,-3.1382,-3.1382,0.0,0.0,0.0,0.0,0.0,0.0,0.0,0.0,-2.6987,0.0,0.0,0.0,-2.5767,-2.5668,-2.531,-2.4845,-2.418,-2.4481,-2.4874,-2.4446,-2.5202,0.0,-2.7946,-2.9455,-3.0518,-3.0697,-3.1709,-3.3169,-3.5237,-3.6801,-3.8004,-3.8798,-3.9057,-3.903,-3.8709,-3.7706,-3.6913,-3.6836,-3.5231,-3.4319,-3.464,-3.3299,-3.2148,-3.1411,-3.0909,-3.0382,-2.9829,-2.9792,-2.9934,-3.0355,-3.0011,-2.9664,-2.9254,-2.8469,-2.7429,-2.6025,-2.7429,-2.7763,-2.7116,-2.7434,-2.7202,-2.6554,-2.6082,-2.5676,-2.5245,-2.4023,-2.3657,-2.3706,-2.2814,-2.2607,-2.2744,-2.2685,-2.25,-2.2334,0.0,0.0,0.0,0.0,0.0,0.0,0.0,0.0,0.0,0.0,0.0,0.0,0.0,0.0,0.0,0.0,0.0,0.0,0.0,0.0,0.0,0.0,0.0,-2.3169,-2.3242,-2.4445,-2.5046,-2.4962,-2.4796,-2.5194,-2.6093,0.0,0.0,0.0,-2.97,-3.0408,-3.1028,-3.1028,-3.1352,-3.1839,-3.1839,-3.1839,0.0,0.0,0.0,0.0,0.0,0.0,0.0,0.0,0.0,0.0,0.0,0.0,0.0,0.0,-2.5234,-2.4971,-2.4418,-2.4669,-2.4987,-2.4554,0.0,-2.5895,-2.6787,-2.8268,-2.9475,-2.9404,-3.1028,-3.2989,-3.4927,-3.6198,-3.7076,-3.7297,-3.7625,-3.7615,-3.7091,-3.6285,-3.5713,-3.5807,-3.4562,-3.3721,-3.3879,-3.2835,-3.1913,-3.1198,-3.0821,-3.0382,-2.9829,-2.9792,-2.9792,-2.9792,-2.9792,-2.9275,-2.8084,-2.7763,-2.6614,-2.4787,-2.6526,-2.6956,-2.6237,-2.717,-2.7136,-2.6364,-2.6199,-2.6029,-2.5814,-2.4766,-2.4211,-2.3813,-2.3102,-2.2547,-2.2344,-2.2637,-2.2568,-2.2373,0.0,0.0,0.0,0.0,0.0,0.0,0.0,0.0,0.0,0.0,0.0,0.0,0.0,0.0,0.0,0.0,0.0,0.0,0.0,0.0,0.0,0.0,0.0,-2.2936,-2.2497,-2.3666,-2.4976,-2.6353,-2.5714,-2.5489,-2.5646,-2.6792,0.0,0.0,0.0,-3.2416,-3.2586,-3.2586,-3.2558,-3.2497,-3.2497,-3.2497,-3.2303,0.0,0.0,0.0,0.0,0.0,0.0,0.0,0.0,0.0,0.0,0.0,0.0,0.0,-2.4443,-2.4142,-2.4669,-2.4431,-2.4155,-2.4695,-2.4946,-2.5261,-2.5801,-2.6593,-2.7538,-2.874,-3.0729,-3.2649,-3.4211,-3.5026,-3.5133,-3.4177,-3.5037,-3.5266,-3.3661,-3.4479,-3.4876,-3.3793,-3.3645,-3.332,-3.2286,-3.2202,-3.1763,-3.0696,-3.0608,-3.0369,-2.9817,-2.9792,-2.9792,-2.9792,-2.9792,-2.9197,-2.8084,-2.7046,-2.5975,-2.4777,-2.5376,-2.563,-2.5652,-2.7345,-2.807,-2.8049,-2.7545,-2.7026,-2.6422,-2.5292,-2.4176,-2.3301,-2.3311,-2.2707,-2.1875,-2.1885,-2.1885,-2.1953,0.0,0.0,0.0,0.0,0.0,0.0,0.0,0.0,0.0,0.0,0.0,0.0,0.0,0.0,0.0,0.0,0.0,0.0,0.0,0.0,0.0,0.0,0.0,0.0,0.0,0.0,-2.47,-2.4416,-2.4684,-2.5294,0.0,0.0,0.0,-3.2011,0.0,-3.2992,-3.2586,-3.2586,-3.2283,-3.1824,-3.1824,-3.1824,-3.1692,0.0,0.0,0.0,0.0,0.0,0.0,0.0,0.0,0.0,0.0,0.0,0.0,0.0,-2.4946,-2.5511,-2.4506,-2.5247,-2.6076,-2.5071,-2.576,-2.6451,-2.5868,-2.6459,-2.7593,-2.8976,-3.0119,-3.1471,-3.3436,-3.38,-3.3833,-3.3955,-3.4144,-3.4078,-3.3591,-3.3607,-3.3579,-3.3278,-3.2574,-3.1952,-3.1637,-3.1298,-3.0959,-3.0633,-3.0256,-2.963,-2.8688,-2.8597,-2.8279,-2.7464,-2.7476,-2.6964,-2.5775,-2.6295,-2.5727,-2.4252,-2.5949,-2.6347,-2.5608,-2.6956,-2.753,-2.7532,-2.7394,-2.7224,-2.7003,-2.5905,-2.45,-2.2914,-2.291,-2.2507,-2.1863,-2.1885,-2.1885,-2.1953,0.0,0.0,0.0,0.0,0.0,0.0,0.0,0.0,0.0,0.0,0.0,0.0,0.0,0.0,0.0,0.0,0.0,0.0,0.0,0.0,0.0,0.0,0.0,0.0,0.0,-2.5487,-2.5487,0.0,0.0,0.0,0.0,0.0,0.0,-3.3216,0.0,-3.3633,-3.2986,-3.2695,-3.216,-3.1482,-3.1482,-3.1482,-3.1351,0.0,0.0,0.0,0.0,0.0,0.0,0.0,0.0,0.0,0.0,0.0,0.0,-2.4033,-2.446,-2.4982,-2.3815,-2.4546,-2.5493,-2.4761,-2.5133,-2.5539,-2.4817,-2.5832,-2.7211,-2.8172,-2.8932,-2.9854,-3.1435,-3.2115,-3.2448,-3.2541,-3.2901,-3.2965,-3.2466,-3.241,-3.2329,-3.2329,-3.1601,-3.1085,-3.1085,-3.0595,-3.0281,-3.0281,-2.9551,-2.8846,-2.8176,-2.7683,-2.7209,-2.6554,-2.6483,-2.6052,-2.5088,-2.5842,-2.5529,-2.433,-2.5865,-2.6223,-2.5673,-2.703,-2.7369,-2.6954,-2.6954,-2.6954,-2.6954,-2.634,-2.5076,-2.3647,-2.359,-2.2961,-2.1959,-2.1916,-2.1779,-2.167,0.0,0.0,0.0,0.0,0.0,0.0,0.0,0.0,0.0,0.0,0.0,0.0,0.0,0.0,0.0,0.0,0.0,0.0,0.0,0.0,0.0,0.0,0.0,0.0,0.0,0.0,0.0,0.0,0.0,0.0,0.0,0.0,-3.3216,-3.4688,0.0,-3.4235,-3.3547,-3.2895,-3.216,-3.1482,-3.1482,-3.1437,-3.1246,-2.9667,0.0,0.0,0.0,0.0,0.0,0.0,0.0,0.0,0.0,0.0,-2.4607,-2.3592,-2.3282,-2.3243,-2.2872,-2.3056,-2.3546,-2.4122,-2.3832,-2.3413,-2.3429,-2.4939,-2.6396,-2.6645,-2.7271,-2.8007,-2.8858,-3.014,-3.0928,-3.0559,-3.149,-3.1829,-3.0673,-3.0943,-3.1233,-3.1097,-3.075,-3.0461,-3.0382,-2.998,-2.9716,-2.9716,-2.8743,-2.8084,-2.7936,-2.6964,-2.6307,-2.6224,-2.6273,-2.6028,-2.548,-2.5596,-2.5396,-2.4903,-2.5459,-2.5742,-2.5718,-2.7261,-2.7406,-2.6533,-2.6533,-2.6533,-2.6533,-2.6533,-2.5918,-2.5087,-2.4992,-2.3868,-2.2189,-2.2017,-2.1716,-2.1252,0.0,0.0,0.0,0.0,0.0,0.0,0.0,0.0,0.0,0.0,0.0,0.0,0.0,0.0,0.0,0.0,0.0,0.0,0.0,0.0,0.0,0.0,0.0,0.0,0.0,0.0,0.0,0.0,0.0,0.0,0.0,0.0,0.0,-3.5362,0.0,-3.4235,-3.3547,-3.2895,-3.216,-3.1482,-3.1482,-3.121,-3.0604,-2.9667,-2.888,0.0,0.0,0.0,0.0,0.0,0.0,0.0,-2.5774,-2.5327,-2.4725,-2.3593,-2.3364,-2.344,-2.324,-2.3568,-2.4145,-2.4548,-2.4539,-2.4482,-2.4637,-2.4915,-2.5141,-2.4878,-2.5725,-2.691,-2.8322,-2.8669,-2.9205,-3.0693,-3.0609,-3.0161,-2.9738,-3.0326,-3.0262,-2.8949,-2.934,-2.9396,-2.8711,-2.8925,-2.9114,-2.9114,-2.8445,-2.7763,-2.6883,-2.5797,-2.4798,-2.3897,-2.4304,-2.449,-2.4384,-2.5678,-2.6001,-2.5475,-2.642,-2.6677,-2.6338,-2.6684,-2.6747,-2.6533,-2.6533,-2.6533,-2.6533,-2.6533,-2.6108,-2.5475,-2.5131,-2.446,-2.358,-2.2413,-2.1949,-2.1799,0.0,0.0,0.0,0.0,0.0,0.0,0.0,0.0,0.0,0.0,0.0,0.0,0.0,0.0,0.0,0.0,0.0,0.0,0.0,0.0,0.0,0.0,0.0,0.0,0.0,0.0,0.0,0.0,0.0,0.0,0.0,0.0,0.0,-3.4609,0.0,-3.3443,-3.3061,-3.2013,-3.1354,-3.1016,-3.0717,-3.0134,-2.9427,-2.8655,-2.7829,-2.7045,-2.6453,0.0,0.0,0.0,0.0,0.0,0.0,0.0,-2.4459,-2.3409,-2.2764,-2.2282,-2.1776,-2.2373,-2.314,-2.3381,-2.4139,-2.4568,-2.3686,-2.4177,-2.4621,-2.3893,-2.4464,-2.5415,-2.6634,-2.7072,-2.7755,-2.926,-2.947,-2.9315,-2.9067,-2.9414,-2.9214,-2.7971,-2.8235,-2.8339,-2.7754,-2.821,-2.84,-2.8182,-2.7404,-2.6519,-2.5469,-2.4106,-2.3335,-2.3157,-2.3505,-2.3998,-2.4725,-2.5634,-2.5947,-2.5594,-2.6532,-2.6741,-2.6533,-2.6533,-2.6533,-2.6533,-2.6533,-2.6533,-2.6533,-2.6533,-2.6276,-2.597,-2.5262,-2.4543,-2.3752,-2.2974,-2.2113,-2.1328,0.0,0.0,0.0,0.0,0.0,0.0,0.0,0.0,0.0,0.0,0.0,0.0,0.0,0.0,0.0,0.0,0.0,0.0,0.0,0.0,0.0,0.0,0.0,0.0,0.0,0.0,0.0,0.0,0.0,0.0,0.0,0.0,0.0,-3.3582,0.0,-3.2586,-3.2501,-3.1112,-3.0507,-3.0447,-2.9834,-2.9079,-2.8181,-2.7379,-2.6579,-2.588,-2.5574,-2.5523,-2.5686,-2.6332,0.0,0.0,0.0,0.0,-2.3933,-2.2992,-2.1983,-2.0974,-2.0335,-2.1045,-2.1963,-2.1807,-2.3238,-2.4214,-2.2343,-2.3364,-2.4381,-2.3351,-2.3514,-2.4137,-2.5005,-2.5741,-2.6604,-2.7746,-2.8564,-2.8924,-2.8664,-2.8622,-2.8307,-2.7433,-2.7394,-2.7323,-2.7012,-2.7426,-2.752,-2.709,-2.6017,-2.5048,-2.4164,-2.2704,-2.2267,-2.302,-2.3328,-2.4039,-2.5324,-2.5609,-2.5727,-2.5598,-2.5988,-2.6176,-2.6176,-2.6176,-2.6276,-2.6521,-2.6264,-2.6226,-2.6314,-2.6314,-2.6314,-2.6246,-2.5545,-2.4779,-2.3963,-2.3661,-2.2489,-2.1155,0.0,0.0,0.0,0.0,0.0,0.0,0.0,0.0,0.0,0.0,0.0,0.0,0.0,0.0,0.0,0.0,0.0,0.0,-2.761,0.0,0.0,-3.0477,-3.1165,0.0,0.0,0.0,0.0,0.0,0.0,0.0,-3.0615,-3.1946,0.0,-3.3582,0.0,-3.2586,-3.2501,-3.1112,-3.0507,-3.0447,-2.9834,-2.8813,-2.7561,-2.6763,-2.5955,-2.5227,-2.4963,-2.5222,-2.5686,-2.6332,-2.6533,0.0,0.0,0.0,-2.3425,-2.2381,-2.1435,-2.0712,-2.0947,-2.1728,-2.2256,-2.1504,-2.2679,-2.3716,-2.2265,-2.3013,-2.3929,-2.3215,-2.3128,-2.3646,-2.5129,-2.5466,-2.6188,-2.8165,-2.8566,-2.8557,-2.8369,-2.8368,-2.7874,-2.6317,-2.6667,-2.67,-2.5879,-2.6015,-2.6104,-2.6017,-2.467,-2.3748,-2.3587,-2.2533,-2.1958,-2.2122,-2.336,-2.418,-2.4416,-2.5696,-2.6102,-2.5586,-2.5222,-2.5046,-2.5046,-2.5046,-2.5561,-2.6471,-2.5448,-2.5297,-2.5711,-2.5711,-2.5711,-2.5762,-2.6115,-2.6233,-2.5873,-2.4108,-2.3368,-2.285,0.0,0.0,0.0,0.0,0.0,0.0,0.0,0.0,0.0,0.0,0.0,0.0,0.0,0.0,0.0,-2.9451,-2.8826,-2.856,-2.8704,-2.925,-3.0028,-3.1046,-3.1317,-3.097,0.0,0.0,0.0,0.0,0.0,0.0,-2.9195,-3.0602,-3.1721,-3.2407,-3.2104,-3.1951,-3.1905,-3.0904,-3.0507,-3.0417,-2.943,-2.8159,-2.6835,-2.6092,-2.5056,-2.3978,-2.4267,-2.4707,-2.5247,-2.5787,-2.6189,-2.6314,-2.53,0.0,0.0,0.0,-2.1181,-2.0723,-2.1416,-2.1699,-2.184,-2.2312,-2.3232,-2.3862,-2.288,-2.3815,-2.4684,-2.3906,-2.4025,-2.4485,-2.523,-2.5728,-2.6476,-2.7809,-2.8023,-2.7839,-2.7342,-2.7317,-2.6736,-2.5196,-2.5823,-2.5998,-2.5224,-2.5545,-2.5521,-2.4929,-2.3842,-2.2887,-2.2281,-2.158,-2.1342,-2.1619,-2.2745,-2.3519,-2.3815,-2.4951,-2.541,-2.5159,-2.4619,-2.4519,-2.4808,-2.4506,-2.4795,-2.5511,-2.5034,-2.4946,-2.5159,-2.5159,-2.5335,-2.5557,-2.532,-2.5395,-2.5581,-2.4707,-2.3963,-2.3368,0.0,0.0,0.0,0.0,0.0,0.0,0.0,0.0,0.0,0.0,0.0,0.0,0.0,0.0,0.0,0.0,-2.9104,-2.8953,-2.9544,-2.9579,-3.0163,-3.1422,-3.136,-3.0836,-3.0084,0.0,0.0,0.0,0.0,0.0,-2.8241,-2.9846,-3.0896,-3.1482,-3.1482,-3.1482,-3.1437,-3.0791,-3.0507,-3.0387,-2.9116,-2.7856,-2.6638,-2.5911,-2.4724,-2.3513,-2.4226,-2.4646,-2.4921,-2.5586,-2.5952,-2.5955,-2.4933,-2.3963,0.0,0.0,0.0,-2.0713,-2.1367,-2.1548,-2.181,-2.2777,-2.3743,-2.4363,-2.3673,-2.4609,-2.542,-2.4655,-2.4964,-2.5378,-2.5397,-2.6014,-2.6669,-2.7255,-2.7458,-2.7306,-2.6336,-2.6229,-2.5728,-2.4452,-2.5053,-2.5319,-2.4524,-2.4929,-2.4796,-2.3698,-2.2794,-2.1961,-2.1064,-2.0752,-2.0735,-2.1009,-2.2143,-2.2831,-2.31,-2.4128,-2.4619,-2.4607,-2.4054,-2.3991,-2.4381,-2.3966,-2.4004,-2.4393,-2.4393,-2.4481,-2.4619,-2.4619,-2.4845,-2.5144,-2.4737,-2.4731,-2.4939,-2.498,-2.4411,-2.3648,0.0,0.0,0.0,0.0,0.0,0.0,0.0,0.0,0.0,0.0,0.0,0.0,-3.0208,-3.0293,-3.0293,-3.0251,-2.9717,-2.9406,-2.9597,-2.9579,-3.0163,-3.1422,-3.0911,0.0,-2.9376,0.0,0.0,0.0,0.0,0.0,-2.8241,-3.0411,-3.1467,-3.1482,-3.1482,-3.1482,-3.1437,-3.0791,-3.0507,-3.0387,-2.9116,-2.8139,-2.7374,-2.6687,-2.5508,-2.4379,-2.5411,-2.5369,-2.4983,-2.605,-2.5849,-2.4933,-2.3891,-2.2925,-2.1876,0.0,0.0,0.0,-2.0625,-2.1595,-2.2558,-2.2129,-2.3843,-2.5262,-2.4352,-2.489,-2.5534,-2.5105,-2.5643,-2.6002,-2.5508,-2.6014,-2.651,-2.6563,-2.7137,-2.7086,-2.5673,-2.5453,-2.5175,-2.4408,-2.4615,-2.4459,-2.349,-2.3534,-2.318,-2.2209,-2.1262,-2.0673,-2.0596,-2.0576,-2.0448,-1.9997,-2.1782,-2.2481,-2.2115,-2.3414,-2.4042,-2.4029,-2.3452,-2.3128,-2.3165,-2.3128,-2.3128,-2.3165,-2.3165,-2.3527,-2.4042,-2.4042,-2.4054,-2.418,-2.5131,-2.5244,-2.4825,-2.4939,-2.4625,-2.413,0.0,0.0,0.0,0.0,0.0,0.0,0.0,0.0,0.0,0.0,0.0,0.0,0.0,-3.0293,-3.0293,-3.0293,-2.9406,-2.8865,-2.8944,-2.934,-2.9968,-3.0836,-3.1061,-3.0791,-2.9937,-2.8654,0.0,0.0,0.0,-2.7585,-2.7598,-2.9719,-3.0718,-3.0777,-3.1278,-3.1482,-3.1452,-3.127,-3.1165,-3.1091,-3.0193,-2.9404,-2.8612,-2.7414,-2.6325,-2.5453,-2.5266,-2.5268,-2.5385,-2.5774,-2.5509,-2.4791,-2.3818,-2.2776,-2.1811,-2.0857,-2.0566,-2.0625,-2.0918,-2.1565,-2.2463,-2.321,-2.434,-2.5171,-2.5154,-2.5672,-2.6092,-2.568,-2.6091,-2.6526,-2.6466,-2.6482,-2.6336,-2.5837,-2.6,-2.5823,-2.4838,-2.4681,-2.4394,-2.359,-2.4255,-2.4394,-2.3411,-2.3441,-2.3073,-2.2103,-2.1155,-2.0439,-2.0166,-2.0146,-1.9824,-1.9121,-2.0456,-2.1373,-2.1668,-2.2513,-2.2924,-2.2912,-2.2698,-2.2786,-2.3078,-2.3078,-2.3078,-2.3078,-2.3078,-2.319,-2.3439,-2.3439,-2.3665,-2.4042,-2.4418,-2.4883,-2.5294,-2.5345,-2.5512,-2.5497,0.0,0.0,0.0,0.0,0.0,0.0,0.0,0.0,0.0,0.0,0.0,0.0,0.0,0.0,-2.9995,-2.9995,-2.9088,-2.8529,-2.8614,-2.9011,-2.9624,-3.0462,-3.0746,-3.0728,-3.0367,0.0,0.0,0.0,0.0,0.0,0.0,-2.9737,-3.0703,-3.0718,-3.1278,-3.1482,-3.1482,-3.1482,-3.1482,-3.1407,-3.0493,-2.9783,-2.9217,-2.7698,-2.664,-2.5985,-2.5781,-2.5561,-2.5369,-2.5738,-2.5183,-2.4141,-2.3464,-2.2466,-2.1451,-2.0789,-2.0566,-2.0635,-2.0928,-2.1763,-2.267,-2.3505,-2.4609,-2.5517,-2.559,-2.6295,-2.6758,-2.628,-2.6688,-2.7033,-2.6661,-2.6293,-2.5869,-2.5363,-2.5368,-2.5063,-2.406,-2.4118,-2.4002,-2.3198,-2.3704,-2.3721,-2.2674,-2.261,-2.2164,-2.1141,-2.0496,-2.001,-1.9727,-1.957,-1.9226,-1.8624,-1.9512,-2.0323,-2.1144,-2.1731,-2.2033,-2.2033,-2.2221,-2.2498,-2.2862,-2.299,-2.3078,-2.3078,-2.3078,-2.3178,-2.3427,-2.3427,-2.3753,-2.428,-2.428,-2.4707,-2.5335,-2.5335,-2.5586,-2.5782,0.0,0.0,0.0,0.0,0.0,0.0,0.0,0.0,0.0,0.0,0.0,0.0,0.0,0.0,0.0,-2.9406,-2.8826,-2.8529,-2.8569,-2.8592,-2.916,-3.0417,-2.9924,-2.9909,-3.0522,0.0,0.0,0.0,0.0,0.0,0.0,0.0,-3.1482,-3.1482,-3.1482,-3.1482,-3.1467,-3.1482,-3.1482,-3.1349,-2.9915,-2.9303,-2.9127,-2.7649,-2.6587,-2.6156,-2.7184,-2.6414,-2.5039,-2.608,-2.4745,-2.273,-2.2642,-2.173,-2.0566,-2.0566,-2.0566,-2.0644,0.0,0.0,0.0,-2.286,-2.4682,-2.6382,-2.5749,-2.6683,-2.7499,-2.6855,-2.7373,-2.7571,-2.6188,-2.5437,-2.5116,-2.5116,-2.5243,-2.4838,-2.3305,-2.3767,-2.3943,-2.3185,-2.2846,-2.2315,-2.1307,-2.0956,-2.041,-1.936,-1.9287,-1.9277,-1.9268,-1.8848,-1.8526,-1.8585,-1.8923,-1.9515,-2.0318,-2.1107,-2.1468,-2.1468,-2.202,-2.2297,-2.2334,-2.2887,-2.3078,-2.3078,-2.3078,-2.3464,-2.4004,-2.4004,-2.4318,-2.4795,-2.4808,-2.482,-2.482,-2.482,-2.482,-2.482,0.0,0.0,0.0,0.0,0.0,0.0,0.0,0.0,0.0,0.0,0.0,0.0,-2.8934,-2.9657,-2.9892,-2.9451,-2.8826,-2.8314,-2.7895,-2.8323,-2.8966,-2.9804,-3.0103,-3.0567,-3.124,0.0,0.0,0.0,0.0,0.0,0.0,0.0,0.0,0.0,-3.1482,-3.1161,-3.0644,-3.1219,-3.1161,-3.0629,-3.0201,-2.9903,-2.9567,-2.8473,-2.8239,-2.8255,-2.717,-2.6492,-2.5946,-2.5444,-2.4127,-2.2522,-2.1514,-2.0878,-2.0566,-2.0566,-2.0566,-2.0789,-2.1451,0.0,0.0,0.0,0.0,0.0,-2.6264,-2.6979,-2.7498,-2.67,-2.7236,-2.7511,-2.6524,-2.5535,-2.4887,-2.4887,-2.4243,-2.359,-2.3125,-2.3305,-2.3365,-2.3138,-2.2846,-2.2315,-2.1307,-2.0956,-2.041,-1.936,-1.9287,-1.915,-1.8828,-1.8125,-1.7705,-1.7591,-1.8583,-1.9114,-1.9166,-2.034,-2.0891,-2.0957,-2.1455,-2.192,-2.2334,-2.2887,-2.3078,-2.3078,-2.3078,-2.3464,-2.4004,-2.4004,-2.4092,-2.4268,-2.4669,-2.482,-2.482,-2.482,-2.482,-2.4757,0.0,0.0,0.0,0.0,0.0,0.0,0.0,0.0,0.0,0.0,0.0,0.0,-2.9704,-3.0151,-3.0193,-2.988,-2.9028,-2.836,-2.803,-2.8113,-2.8472,-2.9146,-2.9789,-3.0432,-3.1091,0.0,0.0,0.0,0.0,0.0,0.0,0.0,0.0,0.0,0.0,-3.0881,-2.9954,-3.066,-3.0524,-2.9718,-2.9582,-2.9439,-2.9187,-2.8569,-2.8247,-2.8047,-2.7167,-2.6267,-2.5352,-2.4971,-2.3366,-2.1489,-2.0451,-1.9729,-1.9353,-1.9756,-1.9923,-2.0226,-2.1649,-2.2702,-2.3745,-2.4719,0.0,0.0,-2.6151,-2.6986,-2.756,-2.6491,-2.7125,-2.7696,-2.6868,-2.5957,-2.5357,-2.5357,-2.4554,-2.3752,-2.3163,-2.3078,-2.3005,-2.2641,-2.2139,-2.1472,-2.0478,-1.9949,-1.9214,-1.8223,-1.8527,-1.8486,-1.7803,-1.7197,-1.6753,-1.6453,-1.7774,-1.8385,-1.8232,-1.9638,-2.0426,-2.0731,-2.123,-2.1782,-2.2334,-2.2887,-2.3078,-2.3078,-2.3078,-2.3326,-2.3653,-2.3904,-2.413,-2.4356,-2.4443,-2.4619,-2.4757,-2.4293,-2.4268,-2.4406,0.0,0.0,0.0,0.0,0.0,0.0,0.0,0.0,0.0,0.0,0.0,-2.8339,-3.0376,-3.0398,-3.0354,-3.0494,-2.9203,-2.8431,-2.8599,-2.7949,-2.7919,-2.8682,-2.9205,-2.9834,-3.0597,0.0,0.0,0.0,0.0,0.0,0.0,0.0,0.0,0.0,0.0,0.0,-2.9185,-2.9803,-2.9572,-2.8853,-2.8585,-2.8457,-2.8451,-2.8248,-2.7619,-2.6888,-2.7162,-2.588,-2.4075,-2.4155,-2.2291,-1.9943,-1.9558,-1.8538,-1.7613,-1.8709,-1.902,-1.9478,-2.1583,-2.2883,-2.3824,-2.4945,-2.5902,0.0,-2.59,-2.6944,-2.7633,-2.629,-2.7221,-2.8025,-2.7152,-2.6565,-2.618,-2.618,-2.5553,-2.4653,-2.3381,-2.3178,-2.285,-2.2035,-2.1053,-2.0074,-1.9306,-1.8405,-1.7482,-1.6573,-1.7319,-1.751,-1.6699,-1.6279,-1.5859,-1.542,-1.6856,-1.7578,-1.7578,-1.9044,-2.0139,-2.0825,-2.1382,-2.1882,-2.2438,-2.2993,-2.3185,-2.3078,-2.3078,-2.3078,-2.3115,-2.369,-2.423,-2.4695,-2.4255,-2.4356,-2.4607,-2.3602,-2.3514,-2.3828,-2.8787,0.0,0.0,0.0,0.0,0.0,0.0,0.0,0.0,0.0,-2.8759,-3.019,-3.1149,-3.0297,-2.9897,-3.0428,-2.8819,-2.8011,-2.8547,-2.7949,-2.8113,-2.934,-2.9011,-2.9594,-3.13,-3.0911,0.0,0.0,0.0,0.0,0.0,0.0,0.0,0.0,0.0,0.0,-2.8288,-2.8413,-2.8247,-2.7973,-2.833,-2.8373,-2.8201,-2.8623,-2.89,-2.8913,-2.7278,-2.5755,-2.4041,-2.1007,-1.9562,-1.9042,-1.8596,-1.8258,-1.8236,-1.9106,-1.9344,-1.9901,-2.2488,-2.3657,-2.4557,-2.6369,-2.6976,0.0,-2.6979,-2.7473,-2.7755,-2.6757,-2.7451,-2.8025,-2.7152,-2.6565,-2.618,-2.618,-2.5553,-2.4833,-2.4138,-2.3592,-2.3025,-2.2479,-2.031,-1.8824,-1.8686,-1.7574,-1.6647,-1.6107,-1.6618,-1.6748,-1.6221,-1.6113,-1.5859,-1.542,-1.6856,-1.7578,-1.7578,-1.9044,-2.0386,-2.1563,-2.2141,-2.2677,-2.3197,-2.3785,-2.3708,-2.3078,-2.3078,-2.3078,-2.3078,-2.3263,-2.364,-2.4192,-2.4531,-2.4456,-2.413,-2.3916,-2.3602,-2.3288,-2.9365,0.0,0.0,0.0,0.0,0.0,0.0,0.0,0.0,-2.803,-2.9811,-3.1125,-3.1445,-3.0867,-3.0597,-3.0997,-2.9824,-2.9182,-2.9505,-2.8936,-2.8727,-2.9086,-2.9086,-2.9549,-3.0537,-3.0522,0.0,0.0,0.0,0.0,0.0,0.0,0.0,0.0,0.0,0.0,-2.7692,-2.795,-2.8395,-2.887,-2.8946,-2.9188,-2.9557,-3.0415,-3.0323,-2.9409,-2.7773,-2.5333,-2.2573,-2.0056,-1.8644,-1.7932,-1.776,-1.7595,-1.7652,-1.8406,-1.9041,-2.0074,-2.281,-2.3705,-2.438,-2.6419,-2.711,0.0,0.0,-2.718,-2.7749,-2.708,-2.7498,-2.7929,-2.7835,-2.7319,-2.6903,-2.6903,-2.6202,-2.5563,-2.528,-2.4104,-2.305,-2.2304,-2.0407,-1.9053,-1.8574,-1.7798,-1.7116,-1.6703,-1.6038,-1.5794,-1.6074,-1.5859,-1.5812,-1.5931,-1.7024,-1.7797,-1.8167,-1.992,-2.1251,-2.2194,-2.3151,-2.3635,-2.3844,-2.4147,-2.3884,-2.3078,-2.3078,-2.3078,-2.3078,-2.3078,-2.3314,-2.359,-2.3879,-2.3816,-2.3565,-2.3565,-2.3389,-2.3078,-2.9603,-2.9628,0.0,0.0,0.0,0.0,0.0,0.0,0.0,-2.9351,-3.0758,-3.1764,-3.1898,-3.1587,-3.153,-3.1839,-3.0806,-3.0304,-3.0642,-2.9879,-2.9205,-2.8801,-2.9175,-2.9391,-2.9387,-3.0003,-3.0586,0.0,0.0,0.0,0.0,0.0,0.0,0.0,0.0,0.0,-2.7903,-2.8408,-2.9489,-3.094,-3.0928,-3.1142,-3.1541,-3.2609,-3.1771,-2.9771,-2.7687,-2.4335,-2.0738,-1.9224,-1.788,-1.6963,-1.7018,-1.7063,-1.7133,-1.7858,-1.8846,-2.0258,-2.2832,-2.3582,-2.4169,-2.6261,-2.7164,-2.7204,0.0,0.0,0.0,-2.7272,-2.7515,-2.7904,-2.8323,-2.7949,-2.7625,-2.7625,-2.6883,-2.6345,-2.6345,-2.4773,-2.3267,-2.2262,-2.0631,-1.9381,-1.8801,-1.8281,-1.787,-1.7665,-1.6119,-1.548,-1.6074,-1.5732,-1.5838,-1.6492,-1.7202,-1.8104,-1.9059,-2.0875,-2.2257,-2.3217,-2.4224,-2.4736,-2.4738,-2.4738,-2.4279,-2.3531,-2.3365,-2.3305,-2.3305,-2.3125,-2.3078,-2.3078,-2.3078,-2.3078,-2.3078,-2.3078,-2.3078,-2.3078,-2.8938,-2.9026,-2.9001,0.0,0.0,0.0,0.0,0.0,0.0,-3.0734,-3.1793,-3.2617,-3.3215,-3.2212,-3.1972,-3.317,-3.0518,-2.9529,-3.13,-2.9714,-2.8936,-2.9445,-2.8981,-2.8669,-2.8565,-2.9322,-2.9692,0.0,0.0,0.0,0.0,0.0,0.0,0.0,-2.9839,-2.9709,-2.9978,-3.0097,-3.1597,-3.3973,-3.5437,-3.5147,-3.3794,-3.4233,-3.3374,-3.1202,-2.5475,-2.1845,-1.9348,-1.6699,-1.5865,-1.6047,-1.6475,-1.7124,-1.7842,-1.8929,-1.9529,-2.0448,-2.2843,-2.3839,-2.4826,-2.7336,-2.7986,-2.8009,-2.7863,0.0,-2.8373,-2.7281,0.0,-2.8323,-2.7784,0.0,0.0,-2.7625,-2.7226,-2.6937,-2.6937,-2.5684,-2.4284,-2.2823,-2.0313,-1.8752,-1.9082,-1.8359,-1.8048,-1.8446,-1.7581,-1.6821,-1.6164,-1.6076,-1.6158,-1.6503,-1.7202,-1.8515,-2.0426,-2.1381,-2.2961,-2.5249,-2.5466,-2.5787,-2.6229,-2.6229,-2.5837,-2.5119,-2.4452,-2.4176,-2.4118,-2.3365,-2.3078,-2.3078,-2.3078,-2.3078,-2.3078,-2.3078,-2.3078,-2.3078,-2.8825,-2.8925,-2.8925,0.0,0.0,0.0,0.0,0.0,0.0,-3.1714,-3.263,-3.3185,-3.3469,-3.3006,-3.2901,-3.344,-3.1884,-3.1225,-3.2048,-3.0971,-3.0238,-3.0118,-2.9849,-2.9282,-2.8396,-2.9085,-2.9175,-2.8683,-2.971,0.0,0.0,0.0,0.0,0.0,-2.8698,-2.9143,-2.9813,-3.1029,-3.3267,-3.6169,-3.8399,-3.8648,-3.7633,-3.6886,-3.4212,-3.0241,-2.4528,-2.1352,-1.9592,-1.7616,-1.6764,-1.6728,-1.79,-1.8604,-1.9208,-2.031,-2.1111,-2.1968,-2.3852,-2.4769,-2.5433,-2.6419,-2.7409,-2.7863,-2.6858,-2.779,-2.8538,-2.7748,0.0,0.0,0.0,0.0,0.0,0.0,-2.7244,-2.7051,-2.684,-2.5297,-2.4093,-2.4048,-2.2291,-2.0871,-2.053,-1.9422,-1.8674,-1.8638,-1.7875,-1.7109,-1.6484,-1.6628,-1.6971,-1.7513,-1.8348,-1.9608,-2.1303,-2.2779,-2.4226,-2.5662,-2.6461,-2.6681,-2.651,-2.651,-2.6122,-2.5398,-2.5063,-2.4681,-2.4292,-2.3943,-2.3531,-2.3078,-2.3078,-2.3078,-2.3078,-2.3078,-2.3078,-2.3078,-2.8624,-2.8825,-2.8925,-2.8925,0.0,0.0,0.0,0.0,-3.0934,-3.2824,-3.3469,-3.3829,-3.4023,-3.3672,-3.3439,-3.3602,-3.25,-3.1801,-3.2038,-3.1216,-3.0587,-3.0184,-2.9969,-2.929,-2.8126,-2.8525,-2.8338,-2.7612,0.0,0.0,0.0,0.0,0.0,0.0,-2.7792,-2.8857,-3.05,-3.2232,-3.4934,-3.8345,-4.028,-4.0584,-3.9598,-3.6934,-3.2588,-2.7462,-2.3128,-2.0431,-1.8847,-1.824,-1.7621,-1.7493,-1.9166,-2.0027,-2.0562,-2.1329,-2.2362,-2.3374,-2.4499,-2.525,-2.5815,-2.5985,-2.6967,-2.7613,-2.6637,-2.7767,-2.8939,-2.8441,-2.8639,0.0,0.0,0.0,-2.7865,-2.7374,0.0,-2.6796,-2.6683,-2.5335,-2.4502,-2.4921,-2.3967,-2.3087,-2.2704,-2.144,-2.028,-1.9404,-1.8736,-1.7939,-1.6943,-1.7328,-1.7954,-1.8771,-1.9721,-2.1069,-2.2828,-2.4248,-2.5386,-2.6243,-2.7134,-2.7306,-2.6826,-2.6826,-2.6496,-2.6,-2.5563,-2.5159,-2.4794,-2.4242,-2.3692,-2.3364,-2.3128,-2.3078,-2.3078,-2.3078,-2.3078,-2.3078,-2.8134,-2.8561,-2.8925,-2.8925,-2.8486,0.0,0.0,-3.0397,-3.166,-3.4118,-3.4427,-3.4696,-3.537,-3.4039,-3.3336,-3.3912,-3.1391,-3.0083,-3.0796,-2.9624,-2.901,-2.9347,-2.8531,-2.7815,-2.7266,-2.728,-2.6936,-2.6158,0.0,0.0,0.0,0.0,0.0,0.0,-2.7543,-2.9479,-3.3301,-3.4042,-3.6754,-4.0613,-4.1038,-4.0254,-3.8263,-3.2679,-2.7352,-2.2677,-2.0632,-1.821,-1.6195,-1.7305,-1.7692,0.0,-1.9618,-2.0661,-2.1377,-2.1765,-2.295,-2.42,-2.4194,-2.4992,-2.6045,-2.6971,-2.7293,-2.7493,-2.8226,-2.9134,-2.9656,-2.934,-2.9413,-2.9355,-2.8727,-2.7518,-2.6726,-2.7248,-2.653,0.0,0.0,-2.6496,-2.6057,-2.5075,-2.4483,-2.4603,-2.5834,-2.4764,-2.3302,-2.1485,-2.0913,-1.9699,-1.7497,-1.8148,-1.9037,-2.0084,-2.0989,-2.275,-2.5445,-2.5524,-2.6243,-2.7545,-2.756,-2.7575,-2.756,-2.756,-2.756,-2.7458,-2.6,-2.5673,-2.5997,-2.3986,-2.3464,-2.3916,-2.3351,-2.3078,-2.3078,-2.3078,-2.3078,-2.3078,-2.8725,-2.9114,-2.9151,-2.8034,-2.7984,-2.8518,-2.98,-3.0823,-3.2376,-3.4862,-3.4964,-3.4869,-3.5142,-3.4043,-3.3255,-3.3115,-3.182,-3.0937,-3.0812,-3.0278,-2.9734,-2.9114,-2.9149,-2.8507,-2.7028,-2.7327,-2.6958,-2.5767,0.0,0.0,0.0,0.0,0.0,0.0,0.0,-2.7695,-2.9885,-3.1962,-3.3805,-3.5511,-3.6501,-3.1939,-2.4741,-2.6584,-2.4711,-2.0752,-1.8874,-1.7953,-1.7753,-1.9081,-1.9551,-1.9935,-2.1621,-2.1893,-2.1938,-2.3018,-2.3463,-2.3892,0.0,-2.6,-2.644,-2.7142,-2.7005,-2.6904,-2.7249,-2.7692,-2.8177,-2.8554,-2.9134,-2.9385,-2.8727,-2.8111,-2.761,-2.7169,-2.6769,-2.6581,0.0,-2.6966,-2.7149,-2.6854,-2.6289,-2.6129,-2.6601,-2.4446,-2.2624,-2.1474,-2.0307,-1.936,-1.8715,-1.9084,-1.995,-2.1445,-2.2372,-2.3771,-2.5568,-2.605,-2.6703,-2.7625,-2.7625,-2.7625,-2.7625,-2.7625,-2.7625,-2.7575,-2.7071,-2.6383,-2.5632,-2.4919,-2.44,-2.3941,-2.3364,-2.3364,-2.3665,-2.3276,-2.3078,-2.3055,-2.9038,-2.9402,-2.939,-2.8097,-2.8335,-2.9134,-3.0431,-3.1626,-3.3128,-3.5066,-3.5256,-3.5039,-3.447,-3.3505,-3.2684,-3.216,-3.1406,-3.0735,-3.0134,-2.9837,-2.9428,-2.8831,-2.8704,-2.8199,-2.7195,-2.7013,-2.6539,-2.5598,-2.5345,-2.5014,0.0,0.0,0.0,0.0,0.0,-2.5473,-2.7008,-2.8671,-3.0747,-3.2583,-2.8939,-2.2153,-1.4421,-1.5963,-1.6303,-1.5875,-1.6011,-1.6393,-1.7295,-1.951,-2.0566,-2.1144,-2.26,-2.2764,-2.2467,-2.3392,-2.3742,-2.4147,-2.5483,-2.6183,0.0,-2.7284,-2.7173,-2.7126,-2.7799,-2.8166,-2.8502,-2.9305,-2.9711,-2.9714,-2.9071,-2.8443,-2.7752,-2.7092,-2.6707,-2.6438,0.0,-2.7162,-2.7657,-2.7446,-2.7274,-2.7103,-2.6892,-2.5084,-2.3377,-2.197,-2.1274,-2.0598,-1.9781,-2.0381,-2.1412,-2.277,-2.3716,-2.4892,-2.6287,-2.6718,-2.7156,-2.7625,-2.7625,-2.7625,-2.7625,-2.7625,-2.7625,-2.7575,-2.7269,-2.6657,-2.5905,-2.5414,-2.4836,-2.4243,-2.3665,-2.354,-2.364,-2.3215,-2.3078,-2.3032,-2.9076,-2.9415,-2.9616,-2.9063,-2.9402,-3.0276,-3.1653,-3.2874,-3.3968,-3.4838,-3.5468,-3.5222,-3.3542,-3.2519,-3.1764,-3.1158,-3.0279,-2.9553,-2.8963,-2.8461,-2.8244,-2.8444,-2.7237,-2.6901,-2.7617,-2.6355,-2.5636,-2.5636,-2.4569,0.0,0.0,0.0,0.0,0.0,-2.1732,-2.2983,-2.479,-2.4555,-2.7485,-3.1253,-1.9587,-1.2369,-0.7967,-0.2724,-0.3906,-0.866,-1.2297,-1.3869,-1.4871,-1.8655,-2.0615,-2.1569,-2.2765,-2.3135,-2.3135,-2.3115,-2.3846,-2.4808,-2.4766,-2.5601,-2.6661,-2.7501,-2.767,-2.8141,-2.9846,-3.0257,-3.0437,-3.1291,-3.0956,-3.0313,-2.9729,-2.8312,-2.7235,-2.7088,-2.6255,-2.5824,-2.6445,-2.7162,-2.7473,-2.692,-2.7315,-2.7472,-2.6931,-2.6563,-2.5351,-2.297,-2.3621,-2.3144,-2.0831,-2.1993,-2.317,-2.4121,-2.4953,-2.6108,-2.7575,-2.7625,-2.7625,-2.7625,-2.7625,-2.7625,-2.7625,-2.7655,-2.7604,-2.7503,-2.6679,-2.6524,-2.6813,-2.5445,-2.4833,-2.4795,-2.4217,-2.364,-2.3078,-2.3078,-2.309,-2.3069,-2.9603,-2.9691,-2.9741,-2.9591,-2.992,-3.0796,-3.2557,-3.3868,-3.4853,-3.5583,-3.5497,-3.4886,-3.3292,-3.2175,-3.1169,-3.0215,-2.9934,-2.9553,-2.8963,-2.9202,-2.8874,-2.7659,-2.7662,-2.7435,-2.6794,-2.6438,-2.6239,-2.6239,-2.5146,0.0,-2.4374,0.0,0.0,0.0,0.0,-2.0264,-2.0431,-2.2179,-2.159,-1.9705,-2.054,-1.4256,-0.4853,-0.988,-1.0205,-0.8714,-1.3628,-1.5407,-1.6049,-2.0,-2.1925,-2.2677,-2.296,-2.3135,-2.3076,-2.2764,-2.3412,-2.4344,-2.4847,-2.5348,-2.6263,-2.7864,-2.771,-2.7524,0.0,0.0,-2.926,-3.0488,-3.0627,-3.0447,-3.0298,-2.9001,-2.7931,-2.7795,-2.6935,-2.6289,-2.6508,-2.7162,-2.7432,-2.6713,-2.6895,-2.7037,-2.6892,-2.5512,-2.4434,-2.3958,-2.3036,-2.2396,-2.2192,-2.2515,-2.3443,-2.5036,-2.5273,-2.6108,-2.7575,-2.7625,-2.7625,-2.7625,-2.7625,-2.7625,-2.764,-2.8098,-2.778,-2.6832,-2.7496,-2.6909,-2.5568,-2.5625,-2.5512,-2.531,-2.4368,-2.364,-2.3078,-2.3078,-2.3414,-2.3717,-3.0355,-3.0611,-3.0854,-3.096,-3.1501,-3.2137,-3.2925,-3.3817,-3.4494,-3.4871,-3.5134,-3.4502,-3.254,-3.1779,-3.106,-3.0218,-2.993,-2.9654,-2.9327,-2.9377,-2.8888,-2.7695,-2.8028,-2.7857,-2.7053,-2.7103,-2.7103,-2.704,-2.5602,0.0,-2.4291,0.0,0.0,0.0,0.0,-1.8938,-1.7957,-1.7212,-1.4865,-1.1947,-1.4962,-1.097,0.0,-0.9909,-1.0807,-0.9608,-1.6558,-1.8437,-1.7836,-2.0632,-2.2236,-2.3105,-2.292,-2.2861,-2.2859,-2.2828,-2.3258,-2.3907,-2.4698,-2.5557,-2.6461,-2.7657,-2.8148,-2.8669,-2.961,-2.9796,-2.9954,-3.0753,-3.0956,-3.0866,-3.0552,-2.9711,-2.8862,-2.799,-2.7076,-2.6533,-2.6533,-2.6905,-2.6938,-2.6168,-2.624,-2.6362,-2.6362,-2.4938,-2.414,-2.4487,-2.3664,-2.305,-2.2726,-2.3276,-2.4015,-2.4784,-2.5464,-2.6378,-2.7575,-2.7874,-2.7874,-2.7625,-2.7625,-2.7625,-2.764,-2.8278,-2.7986,-2.6917,-2.7768,-2.7116,-2.5498,-2.5688,-2.5409,-2.4808,-2.3954,-2.3427,-2.3078,-2.2702,-2.2776,-2.2982,-3.0937,-3.1481,-3.1929,-3.2214,-3.3015,-3.3462,-3.3001,-3.3628,-3.4203,-3.4353,-3.4974,-3.4481,-3.2128,-3.1556,-3.1185,-3.0658,-3.0118,-2.9792,-2.9792,-2.9315,-2.8762,-2.8134,-2.842,-2.8315,-2.7683,-2.799,-2.7976,-2.767,-2.609,0.0,0.0,0.0,0.0,0.0,0.0,-1.8294,-1.6714,-1.2329,-0.9797,-0.8816,-0.8765,-0.7465,-0.5745,-0.853,-1.0127,-1.1859,-2.0104,-2.1561,-1.9752,-2.1042,-2.2133,-2.2988,-2.2568,-2.2506,-2.2641,-2.2989,-2.3303,-2.3641,-2.4394,-2.5618,-2.6714,-2.7067,-2.8538,-2.9999,-3.0339,-3.0851,-3.1228,-3.1228,-3.1345,-3.121,-3.0612,-3.0309,-2.9538,-2.7893,-2.6989,-2.6483,-2.6332,-2.637,-2.6163,-2.5649,-2.5473,0.0,-2.5586,-2.4695,-2.4305,-2.4788,-2.4763,-2.4063,-2.2651,-2.3876,-2.4481,-2.4076,-2.5581,-2.683,-2.7709,-2.8308,-2.8308,-2.7709,-2.767,-2.7625,-2.764,-2.8174,-2.7959,-2.707,-2.7585,-2.7031,-2.5667,-2.5585,-2.4971,-2.3954,-2.3527,-2.3203,-2.303,-2.2344,-2.1969,-2.1717,-3.0681,-3.0757,-3.0722,-3.0394,-3.1967,-3.3357,-3.3555,-3.5571,-3.7206,-3.787,-3.685,-3.5544,-3.4373,-3.2572,-3.1185,-3.0658,-3.0118,-2.9792,-2.9792,-2.9691,-2.9176,-2.8147,-2.8808,-2.8736,-2.7696,-2.8447,-2.8447,-2.767,-2.6958,-2.5702,0.0,0.0,0.0,0.0,0.0,-1.7372,-1.6237,-1.4104,-1.4093,-1.5613,-1.6102,-1.5769,-1.5246,-1.8383,-1.8749,-1.8133,-2.171,-2.1471,-1.9768,-2.1649,-2.2436,-2.2549,-2.2129,-2.2531,-2.3049,-2.2376,-2.3251,-2.436,-2.3765,-2.4384,-2.5511,-2.6856,-2.7478,-2.809,-2.947,-2.9834,-2.9924,-2.9924,-3.0328,-3.0657,-3.0522,-2.9822,-2.8774,-2.7282,-2.6732,-2.6138,-2.5234,-2.5473,-2.5711,-2.5598,-2.482,-2.4632,-2.5511,-2.5046,-2.4744,-2.4951,-2.4558,-2.3647,-2.2207,-2.303,-2.3725,0.0,-2.5581,-2.7044,0.0,0.0,-2.8547,-2.8412,-2.7844,-2.7625,-2.759,-2.7656,-2.6995,-2.5814,-2.6708,-2.6033,-2.4393,-2.525,-2.4971,-2.4029,-2.4393,-2.3954,-2.3117,-2.3099,-2.2341,-2.1195,-3.177,-3.177,-3.1782,-3.1808,-3.304,-3.434,-3.5386,-3.7069,-3.8059,-3.7551,-3.6456,-3.5364,-3.4351,-3.2577,-3.1286,-3.1035,-3.0269,-2.9792,-2.9792,-2.9792,-2.9415,-2.8561,-2.9482,-2.9659,-2.8783,-2.9459,-2.929,-2.8363,-2.7471,-2.6295,0.0,0.0,0.0,0.0,0.0,-1.9373,-1.9067,-1.7785,-1.8085,-1.9503,-1.9818,-2.0017,-2.035,-2.1923,-2.2067,-2.1441,-2.2591,-2.2195,-2.1195,-2.2121,-2.2839,-2.3089,-2.217,-2.2553,-2.3188,-2.2745,-2.3316,-2.3937,-2.3717,-2.4849,-2.6108,-2.6246,-2.7371,-2.8536,-2.897,-2.934,-2.9579,-2.9579,-2.9819,-3.0118,-3.0447,-3.006,-2.9246,-2.783,-2.7103,-2.6242,-2.4998,-2.5034,-2.5197,-2.5197,-2.4217,-2.4092,-2.546,-2.487,-2.432,-2.4205,-2.3467,-2.2605,-2.1767,0.0,-2.3707,0.0,0.0,0.0,-2.9101,0.0,-2.925,-2.8607,-2.8263,-2.775,-2.7063,-2.7389,-2.6652,-2.5307,-2.6113,-2.5519,-2.4017,-2.423,-2.4017,-2.3602,-2.4167,-2.3728,-2.2807,-2.2651,-2.189,-2.0769,-3.2697,-3.2697,-3.2815,-3.3167,-3.4283,-3.5413,-3.6306,-3.7783,-3.831,-3.7116,-3.6133,-3.5186,-3.4271,-3.2551,-3.1386,-3.1386,-3.0419,-2.9792,-2.9792,-2.9792,-2.9528,-2.895,-2.9967,-3.0321,-2.9783,-3.0201,-2.9987,-2.9002,-2.7865,-2.6711,0.0,0.0,0.0,0.0,0.0,0.0,0.0,0.0,-2.1524,-2.208,-2.2261,-2.2611,-2.3162,-2.3509,-2.3352,-2.3027,-2.3357,-2.3034,-2.248,-2.2463,-2.298,-2.3335,-2.2126,-2.2475,-2.3307,-2.3182,-2.3377,-2.3725,-2.3754,-2.5295,-2.6585,-2.5646,-2.719,-2.8851,-2.8502,-2.8786,-2.9146,-2.9146,-2.9265,-2.9564,-3.0193,-3.0075,0.0,-2.8236,-2.7263,-2.619,-2.4861,-2.4633,-2.4594,-2.4481,-2.3678,-2.3602,-2.4782,-2.4252,-2.3646,-2.3156,-2.2546,-2.2071,-2.1722,0.0,0.0,0.0,0.0,-2.8409,-2.9998,0.0,-2.9804,-2.8801,-2.836,-2.7563,-2.6525,-2.6743,-2.6116,-2.4945,-2.5463,-2.5045,-2.3954,-2.3376,-2.3078,-2.3128,-2.3766,-2.3389,-2.245,-2.2253,-2.1577,-2.0625,-3.2294,-3.2294,-3.2155,-3.17,-3.4153,-3.5757,-3.4313,-3.6749,-3.8952,-3.9377,-3.7498,-3.5937,-3.5465,-3.3039,-3.1386,-3.1386,-3.0419,-2.9792,-2.9792,-2.9792,-2.9528,-2.895,-2.9967,-3.0321,-2.9783,-3.0145,-2.9893,-2.9002,-2.8074,-2.6947,0.0,0.0,0.0,0.0,0.0,0.0,0.0,-2.3738,-2.3982,-2.4104,-2.4637,-2.4581,-2.4147,-2.5131,-2.4503,-2.3202,-2.4296,-2.3689,-2.2467,-2.2473,-2.2294,-2.2001,-2.1438,-2.2176,-2.3167,-2.2746,-2.3716,-2.4689,-2.3472,-2.4326,-2.5536,-2.5425,-2.6099,-2.6934,-2.7578,-2.776,-2.7805,-2.7805,-2.8248,-2.8891,-2.9549,-2.9007,-2.8297,-2.7679,-2.6667,-2.5616,-2.4491,-2.4157,-2.3879,-2.329,-2.314,-2.3,-2.2648,-2.3101,-2.2983,-2.2091,-2.2758,-2.3049,-2.2781,0.0,0.0,-2.6684,-2.8124,-2.9643,-3.1302,-3.0238,-2.9609,-2.9475,-2.7603,-2.6621,-2.6457,-2.5188,-2.4545,-2.4353,-2.4246,-2.4104,-2.3954,-2.3376,-2.3078,-2.3128,-2.3766,-2.3389,-2.2497,-2.258,-2.1995,-2.099,-3.2729,-3.2453,-3.2353,-3.2817,-3.3966,-3.4821,-3.4825,-3.5894,-3.6612,-3.6204,-3.5343,-3.4661,-3.4521,-3.2397,-3.0922,-3.0922,-3.0727,-3.062,-3.062,-3.1193,-3.1088,-3.0358,-3.0899,-3.0719,-2.959,-2.9845,-2.9425,-2.8247,-2.8186,-2.766,-2.6603,0.0,0.0,0.0,0.0,-2.5335,-2.5312,-2.5841,-2.6323,-2.6586,-2.6494,-2.6516,-2.6483,-2.5502,-2.4629,-2.3737,-2.3493,-2.2867,-2.2137,-2.2149,-2.2423,-2.2655,-2.2157,-2.3078,-2.4242,-2.3748,-2.4077,-2.4582,-2.4505,-2.4951,-2.5508,-2.596,-2.6602,-2.7255,-2.7509,-2.7625,-2.7625,-2.7625,-2.8113,-2.8682,-2.8951,-2.9025,-2.8712,-2.7657,-2.7131,-2.6235,-2.4514,-2.421,-2.379,-2.277,-2.2347,-2.2184,-2.2297,-2.2824,-2.3303,-2.3612,-2.3779,-2.3847,-2.3711,0.0,0.0,-2.8702,0.0,-2.9505,-3.1467,-3.0612,-2.951,-2.8345,-2.748,-2.6436,-2.5175,-2.4567,-2.406,-2.3556,-2.3498,-2.3477,-2.3464,-2.3226,-2.3078,-2.3128,-2.3766,-2.3585,-2.2932,-2.2739,-2.2244,-2.1541,-3.3081,-3.2754,-3.2717,-3.352,-3.3875,-3.4173,-3.451,-3.4794,-3.4402,-3.2791,-3.273,-3.2945,-3.3115,-3.1605,-3.0687,-3.0966,-3.1172,-3.1315,-3.1609,-3.2249,-3.2321,-3.1683,-3.1605,-3.1005,-2.987,-2.9538,-2.8825,-2.767,-2.7863,-2.7606,-2.7042,0.0,0.0,0.0,-2.6038,-2.6076,-2.6559,-2.7055,-2.7507,-2.7836,-2.759,-2.7389,-2.6988,-2.5442,-2.4509,-2.3824,-2.3029,-2.2562,-2.2317,-2.2466,-2.2933,-2.3329,-2.2936,-2.3766,-2.482,-2.4687,-2.4794,-2.5007,-2.5342,-2.5728,-2.6108,-2.639,-2.7034,-2.7625,-2.7625,-2.7625,-2.7625,-2.7625,-2.7964,-2.8308,-2.8308,-2.8667,-2.8672,-2.7691,-2.7335,-2.6548,-2.4606,-2.4186,-2.3532,-2.2248,-2.2084,-2.2069,-2.2089,-2.3043,-2.3857,-2.434,-2.4747,-2.4979,-2.4953,0.0,0.0,0.0,0.0,0.0,-3.1467,-3.0416,-2.9075,-2.7501,-2.686,-2.5756,-2.4292,-2.406,-2.3662,-2.3078,-2.3078,-2.3078,-2.3078,-2.3078,-2.3078,-2.3115,-2.359,-2.3271,-2.2634,-2.2522,-2.2013,-2.1343,-3.3081,-3.3068,-3.3068,-3.3081,-3.3953,-3.4149,-3.247,-3.3157,-3.2898,-3.017,-3.0286,-3.0834,-3.1348,-3.0934,-3.0966,-3.1885,-3.151,-3.1609,-3.2522,-3.2593,-3.2593,-3.2593,-3.1957,-3.1351,-3.0812,-2.9322,-2.8277,-2.767,-2.6918,-2.6533,-2.6533,0.0,-2.6533,-2.6533,-2.6521,-2.6521,-2.6559,-2.7055,-2.7281,-2.7344,-2.7896,-2.6875,-2.5015,-2.5015,-2.4298,-2.3332,-2.3332,-2.327,-2.3352,-2.3816,-2.3803,-2.3629,-2.3605,-2.3901,-2.4465,-2.5175,-2.5906,-2.6336,-2.5618,-2.6481,-2.7408,-2.6669,-2.7034,-2.7625,-2.7625,-2.7625,-2.7625,-2.7625,-2.7625,-2.7625,-2.7625,-2.764,-2.764,-2.7575,0.0,-2.6016,-2.4716,-2.3878,-2.2919,-2.1668,-2.2609,-2.2933,-2.1746,-2.3721,-2.4603,-2.3388,-2.5269,-2.6465,-2.6452,0.0,0.0,-2.9951,-3.0672,0.0,-3.1482,-2.9475,-2.8107,-2.7501,-2.5363,-2.4363,-2.4292,-2.3484,-2.3138,-2.3078,-2.3078,-2.3078,-2.3078,-2.3078,-2.3078,-2.3078,-2.3078,-2.2312,-2.1308,-2.1742,-2.1039,-1.998,-3.3081,-3.3081,-3.3081,-3.3081,-3.3398,-3.328,-3.2374,-3.2206,-3.148,-2.945,-2.9708,-2.9858,-2.9241,-3.0276,-3.1107,-3.1457,-3.2961,-3.383,-3.3587,-3.4692,-3.4824,-3.3587,-3.2779,-3.176,-3.0569,-2.9009,-2.7959,-2.7411,0.0,0.0,0.0,-2.7017,-2.6816,-2.6533,-2.6533,-2.6533,-2.6559,-2.7055,-2.7281,-2.726,-2.7054,-2.6649,-2.5942,-2.5149,-2.447,-2.3875,-2.3875,-2.3925,-2.3875,-2.3635,-2.402,-2.4671,-2.4784,-2.5285,-2.5837,-2.6068,-2.6336,-2.6563,-2.6811,-2.6878,-2.693,-2.7188,-2.7034,-2.6982,-2.7473,-2.7625,-2.7625,-2.7625,-2.7625,-2.7625,-2.7625,-2.7625,-2.7625,-2.7625,-2.6982,-2.6054,-2.4702,-2.3865,-2.2818,-2.1138,-2.1703,-2.2062,-2.1744,-2.301,-2.4032,-2.4498,-2.6112,-2.6854,0.0,0.0,0.0,0.0,-2.9979,0.0,-3.009,-2.8423,-2.6798,-2.5293,-2.4603,-2.4002,-2.3484,-2.3185,-2.3078,-2.3078,-2.3078,-2.3078,-2.3078,-2.3078,-2.3078,-2.3078,-2.3078,-2.3096,-2.3071,-2.2491,-2.2263,-2.2084,-3.3081,-3.3081,-3.3081,-3.3081,-3.3081,-3.288,-3.2303,-3.1738,-3.0766,-2.9104,-2.9438,-2.9509,-2.8682,-3.0751,-3.2167,-3.2167,-3.4042,-3.5155,-3.4984,-3.6026,-3.5837,-3.4095,-3.3101,-3.1918,-3.0447,-2.9091,0.0,-2.7281,-2.708,-2.6967,-2.6967,-2.6967,-2.6791,-2.6533,-2.6533,-2.6533,-2.6546,-2.6829,-2.6967,-2.7005,-2.6602,-2.6286,-2.5831,-2.5136,-2.4705,-2.4517,-2.4517,-2.4577,-2.4682,-2.4374,-2.4833,-2.5563,-2.5758,-2.6336,-2.693,-2.693,-2.693,-2.6982,-2.7458,-2.7255,-2.693,-2.7137,-2.6826,-2.6616,-2.7086,-2.7408,-2.7625,-2.7625,-2.7625,-2.7625,-2.7625,-2.7625,-2.7625,-2.7625,-2.6982,-2.5983,-2.4396,-2.3582,-2.2679,-2.157,-2.1983,-2.2466,-2.2746,-2.3554,-2.4176,-2.4392,-2.5652,0.0,0.0,0.0,-2.9289,-2.9604,-2.9416,-2.9073,-2.8594,-2.7387,-2.5846,-2.3949,-2.3676,-2.3398,-2.3078,-2.3078,-2.3078,-2.3078,-2.3078,-2.3078,-2.3078,-2.3078,-2.3078,-2.3078,-2.3078,-2.3169,-2.3182,-2.2707,-2.2503,-2.234,-3.3081,-3.3081,-3.3081,-3.3081,-3.3081,-3.288,-3.2303,-3.1775,-3.0803,-2.9116,-2.9475,-2.9767,-2.9553,-3.2031,-3.3758,-3.3879,0.0,0.0,-3.6538,-3.6615,-3.5837,-3.4095,-3.3017,-3.1847,-3.0342,-2.9212,-2.8151,-2.7197,-2.6728,-2.6533,-2.6533,-2.6483,-2.6496,-2.6533,-2.6483,-2.6496,-2.6533,-2.6483,-2.6496,-2.6533,-2.6483,-2.5918,-2.5075,-2.5075,-2.5146,-2.5217,-2.5217,-2.5436,-2.5762,-2.5916,-2.6129,-2.6299,-2.6429,-2.6982,-2.7625,-2.7625,-2.7625,-2.7625,-2.7625,-2.7625,-2.7408,-2.6669,-2.651,-2.651,-2.6457,-2.7034,-2.7625,-2.7625,-2.7625,-2.7625,-2.7625,-2.7625,-2.7575,-2.7509,-2.693,-2.5788,-2.3881,-2.3041,-2.2564,-2.2578,-2.3182,0.0,-2.4336,-2.4929,-2.4749,-2.354,-2.4262,0.0,0.0,0.0,-2.9311,-2.7723,-2.8969,-2.8862,-2.7161,-2.6363,-2.515,-2.3392,-2.2694,-2.2636,-2.3078,-2.3078,-2.3078,-2.3078,-2.3078,-2.3078,-2.3078,-2.3078,-2.3078,-2.3078,-2.3078,-2.2628,-2.1999,-2.2412,-2.205,-2.1252,0.0,-3.3081,-3.3081,-3.3081,-3.3081,-3.288,-3.2303,-3.2102,-3.1236,-2.9164,-2.9807,-3.0193,-2.9591,-3.1548,-3.3419,-3.4771,-3.6292,-3.6993,-3.66,-3.6615,-3.5837,-3.4095,-3.2297,-3.0895,-2.9745,-2.7532,-2.6252,-2.5996,-2.6355,-2.6533,-2.6521,-2.6013,-2.6038,-2.6508,-2.6,-2.605,-2.6496,-2.5988,-2.605,-2.6496,-2.5975,-2.5927,-2.6164,-2.6164,-2.6552,-2.7056,-2.7056,-2.721,-2.739,-2.7026,-2.6954,-2.6958,-2.659,-2.6982,-2.7625,-2.7625,-2.7625,-2.7625,-2.7625,-2.7625,-2.7408,-2.6669,-2.651,-2.6336,-2.5783,-2.6654,-2.7625,-2.7625,-2.7625,-2.7625,-2.7625,-2.7625,-2.7408,-2.6826,-2.6122,-2.5024,-2.3097,-2.2631,-2.2352,-2.2021,-2.2505,-2.3285,-2.4348,-2.4068,-2.405,0.0,-2.477,-2.4996,-2.5385,-2.705,-2.7888,-2.7696,-2.7987,-2.7624,-2.6377,-2.5534,-2.448,-2.3162,-2.2997,-2.2952,-2.3078,-2.3078,-2.3078,-2.3078,-2.3078,-2.3078,-2.3078,-2.3078,-2.3078,-2.3078,-2.3078,-2.3005,-2.2836,-2.2898,-2.2813,-2.2442,-3.3081,-3.3081,-3.3081,-3.3081,-3.3081,-3.2968,-3.2654,-3.239,-3.1651,-3.0196,-3.0412,-3.0514,-3.0266,-3.1996,-3.3665,-3.5046,-3.6461,-3.71,-3.66,-3.6183,-3.4946,-3.2722,-3.1156,-2.9656,-2.816,-2.6737,-2.5984,-2.5985,-2.5645,-2.5642,-2.605,-2.5498,-2.541,-2.5699,-2.5385,-2.5423,-2.5753,-2.5728,-2.5961,-2.6244,-2.6557,-2.6856,-2.7249,-2.7512,-2.7696,-2.7843,-2.7843,-2.7691,-2.7506,-2.7323,-2.7286,-2.7288,-2.7068,-2.7306,-2.7625,-2.7625,-2.7625,-2.7625,-2.7625,-2.7625,-2.7357,-2.6283,-2.6229,-2.6283,-2.5563,-2.6534,-2.7625,-2.7625,-2.7625,-2.7625,-2.7625,-2.7625,-2.7357,-2.6616,-2.5892,-2.4847,-2.3203,-2.2641,-2.2457,-2.2511,-2.259,-2.3018,-2.3906,-2.3617,-2.3502,-2.3793,-2.4456,0.0,-2.5222,-2.6302,-2.7031,-2.7175,-2.742,-2.6994,-2.5845,-2.4659,-2.3679,-2.3078,-2.2874,-2.2887,-2.3078,-2.3078,-2.3078,-2.3078,-2.3078,-2.3078,-2.3078,-2.3078,-2.3078,-2.3078,-2.3078,-2.3078,-2.3078,-2.3078,-2.2884,-2.2372,-3.3081,-3.3006,-3.2943,-3.2943,-3.288,-3.2817,-3.2817,-3.2403,-3.1888,-3.1348,-3.0884,-3.0762,-3.1172,-3.2638,-3.3907,-3.472,-3.5649,-3.6276,-3.6384,-3.5398,-3.3565,-3.0908,-2.9631,-2.8124,-2.6307,-2.608,-2.6006,-2.6035,-2.4779,-2.4675,-2.5473,-2.4946,-2.4782,-2.4933,-2.4886,-2.4975,-2.5102,-2.5694,-2.6065,-2.6312,-2.7421,-2.8016,-2.8222,-2.8636,-2.8609,-2.8213,-2.8055,-2.7686,-2.7295,-2.7465,-2.7455,-2.7389,-2.752,-2.7625,-2.7625,-2.7625,-2.7625,-2.7625,-2.7625,-2.7524,-2.7137,-2.5892,-2.6068,-2.6336,-2.5728,-2.6602,-2.7625,-2.7625,-2.7625,-2.7625,-2.7625,-2.7625,-2.7335,-2.6572,-2.5853,-2.4901,-2.3572,0.0,-2.287,-2.3243,-2.2994,-2.2947,-2.3267,-2.3273,-2.2959,-2.2367,-2.3715,-2.4644,-2.4808,-2.5711,-2.6289,-2.6521,-2.6917,-2.6653,-2.5598,-2.4042,-2.3263,-2.3263,-2.2698,-2.2686,-2.3078,-2.3078,-2.3078,-2.3078,-2.3078,-2.3078,-2.3078,-2.3078,-2.3078,-2.3078,-2.3078,-2.3078,-2.3078,-2.3078,-2.2567,-2.1753,-3.3081,-3.2679,-3.2353,-3.2353,-3.1964,-3.165,-3.165,-3.1574,-3.1323,-3.0809,-3.067,-3.0762,-3.1172,-3.215,-3.2848,-3.2989,-3.3833,-3.4707,-3.5398,-3.3835,-3.1932,-2.9809,-2.779,-2.6222,-2.5126,-2.4267,-2.3791,-2.3812,-2.4049,-2.4425,-2.4933,-2.4381,-2.4607,-2.5435,-2.5174,-2.5576,-2.6386,-2.6209,-2.6731,-2.7667,-2.7451,-2.7953,-2.8809,-2.8333,-2.8554,-2.9011,-2.8483,-2.8306,-2.8379,-2.8396,-2.8033,-2.7542,-2.7604,-2.7625,-2.7625,-2.7625,-2.7625,-2.7625,-2.7625,-2.7152,-2.6616,-2.6404,-2.6404,-2.6457,-2.6336,-2.6982,-2.7625,-2.7625,-2.7625,-2.7625,-2.7625,-2.7625,-2.7314,-2.6414,-2.5785,-2.4901,-2.3517,0.0,-2.3751,-2.2885,-2.3179,-2.3262,-2.275,-2.2562,-2.2412,-2.2309,-2.2987,-2.3816,-2.477,-2.4983,-2.5498,-2.6496,-2.6609,-2.6264,-2.5598,-2.4443,-2.3866,-2.3853,-2.3288,-2.299,-2.3078,-2.3078,-2.3078,-2.3078,-2.3078,-2.3078,-2.3078,-2.3078,-2.3078,-2.3078,-2.3078,-2.3078,-2.3078,-2.3078,-2.2567,-2.1753,-3.2667,-3.239,-3.2127,-3.1813,-3.1562,-3.1386,-3.1386,-3.1386,-3.1198,-3.0683,-3.062,-3.0539,-3.0483,-3.1254,-3.1815,-3.1815,-3.2678,-3.2961,-3.2146,-3.1296,-2.9593,-2.6875,-2.5319,-2.387,-2.2619,-2.2393,-2.2662,-2.3283,-2.3607,-2.3941,-2.4368,-2.4117,-2.4342,-2.4929,-2.5014,-2.5621,-2.6519,-2.6412,-2.6905,-2.7781,-2.8311,-2.8598,-2.8843,-2.9218,-2.9188,-2.8869,-2.8576,-2.8275,-2.8053,-2.8053,-2.7844,-2.7625,-2.7625,-2.7625,-2.7625,-2.7625,-2.7625,-2.7625,-2.7625,-2.7357,-2.6982,-2.6616,-2.6826,-2.6982,-2.6616,-2.7086,-2.7625,-2.7625,-2.7625,-2.7625,-2.7625,-2.7625,-2.7462,-2.7001,-2.641,-2.5742,-2.5061,-2.4655,-2.4092,-2.3163,-2.2746,-2.2271,-2.1665,-2.1754,-2.187,-2.187,-2.2937,-2.3954,-2.4782,-2.5084,-2.5611,-2.6496,-2.6533,-2.6189,-2.5598,-2.482,-2.4293,-2.3991,-2.3414,-2.3078,-2.3078,-2.3078,-2.3078,-2.3078,-2.3078,-2.3078,-2.3078,-2.3078,-2.3078,-2.3078,-2.3078,-2.3078,-2.3078,-2.3078,-2.231,-2.1239,-3.2139,-3.1926,-3.1712,-3.1286,-3.1097,-3.1022,-3.1022,-3.1022,-3.0871,-3.0482,-3.0419,-3.0269,-2.9842,-3.062,-3.1106,-3.0895,-3.1756,-3.1309,-2.8922,-2.8831,-2.7392,-2.4251,-2.3093,-2.2072,-2.0906,-2.1563,-2.2391,-2.33,-2.3315,-2.3494,-2.3791,-2.3976,-2.4223,-2.4516,-2.5293,-2.6007,-2.6609,-2.6874,-2.7297,-2.7831,-2.8916,-2.9146,-2.8921,-2.9744,-2.946,-2.8577,-2.8412,-2.8023,-2.7625,-2.7625,-2.7625,-2.7625,-2.7625,-2.7625,-2.7625,-2.7625,-2.7625,-2.7625,-2.7625,-2.7625,-2.7458,-2.6878,-2.7203,-2.7458,-2.6878,-2.7188,-2.7625,-2.7625,-2.7625,-2.7625,-2.7625,-2.7625,-2.7565,-2.744,0.0,-2.6224,-2.6133,-2.5094,-2.4082,-2.3265,-2.2618,-2.1957,-2.123,-2.177,-2.2146,-2.1937,-2.3399,-2.4355,-2.4607,-2.5247,-2.5862,-2.6508,-2.6533,-2.6251,-2.5799,-2.5272,-2.4732,-2.418,-2.3602,-2.3263,-2.3078,-2.3078,-2.3078,-2.3078,-2.3078,-2.3078,-2.3078,-2.3078,-2.3078,-2.3078,-2.3078,-2.3078,-2.3078,-2.3078,-2.2187,-2.0974,-3.1562,-3.106,-3.0721,-3.0683,-3.0244,-2.9917,-2.9917,-2.9917,-2.9892,-2.9854,-2.9854,-2.9829,-2.9792,-3.062,-3.0833,-3.0011,-3.0758,-2.9986,-2.6942,-2.6707,-2.5659,-2.3229,-2.2054,-2.1429,-2.1438,-2.2575,-2.3199,-2.3329,-2.3313,-2.3236,-2.3201,-2.3949,-2.4563,-2.5084,-2.6623,-2.7322,-2.7293,-2.808,-2.8495,-2.854,-2.8652,-2.9011,-2.946,-2.8936,-2.8682,-2.8517,-2.7874,-2.767,-2.7625,-2.7625,-2.7625,-2.7625,-2.7625,-2.7625,-2.7625,-2.7625,-2.7625,-2.7625,-2.7625,-2.7625,-2.7575,-2.7509,-2.756,-2.7575,-2.7509,-2.756,-2.7625,-2.7625,-2.7625,-2.7625,-2.7625,-2.7625,-2.7565,-2.7357,0.0,0.0,-2.5314,-2.4697,-2.3874,-2.2614,-2.3568,-2.3782,-2.2564,-2.3554,-2.4014,-2.3316,-2.4347,-2.4767,-2.4117,-2.5034,-2.5862,-2.6508,-2.6533,-2.6508,-2.6402,-2.5824,-2.5272,-2.4757,-2.4205,-2.3653,-2.3078,-2.3078,-2.3078,-2.3078,-2.3078,-2.3078,-2.3078,-2.3078,-2.3078,-2.3078,-2.3078,-2.3078,-2.3078,-2.3078,-2.2567,-2.1815,-3.1499,-3.1235,-3.0997,-3.067,-3.0444,-3.0181,-2.9842,-2.9792,-2.9792,-2.9792,-2.9792,-2.9792,-2.9792,-3.0139,-3.0216,-2.9869,-3.0139,-2.9537,-2.7602,-2.6124,-2.4333,-2.2054,-2.1083,-2.0943,-2.1472,-2.2924,-2.3698,-2.3854,-2.408,-2.4254,-2.4356,-2.4642,-2.5208,-2.5981,-2.6971,-2.765,-2.8095,-2.8025,-2.8203,-2.8607,-2.8607,-2.8487,-2.8404,-2.8532,-2.8338,-2.7934,-2.7715,-2.7625,-2.7625,-2.7625,-2.7625,-2.7625,-2.7625,-2.7625,-2.7625,-2.7625,-2.7625,-2.7625,-2.7625,-2.7625,-2.7625,-2.7625,-2.7625,-2.7625,-2.7625,-2.7625,-2.7625,-2.7625,-2.7625,-2.7625,-2.7625,-2.7625,-2.7565,-2.744,0.0,-2.6032,-2.5951,-2.501,-2.3989,-2.3102,-2.3512,-2.3473,-2.2684,-2.3729,-2.4557,-2.4709,-2.4967,-2.5284,-2.5766,-2.6044,-2.6239,-2.6521,-2.6533,-2.6533,-2.6533,-2.5887,-2.5335,-2.4808,-2.4268,-2.3891,-2.3665,-2.3301,-2.3265,-2.3653,-2.3288,-2.3078,-2.3078,-2.3078,-2.3078,-2.3078,-2.3078,-2.3078,-2.3078,-2.3078,-2.2567,-2.1939,-3.1499,-3.1386,-3.1273,-3.0922,-3.0721,-3.0482,-3.0105,-2.9905,-2.9792,-2.9792,-2.9792,-2.9792,-2.9792,-2.9792,-2.9934,-3.0216,-3.0203,-2.9781,-2.8603,-2.6419,-2.4047,-2.1328,-2.1327,-2.1736,-2.2473,-2.3733,-2.4334,-2.4401,-2.4893,-2.5112,-2.5137,-2.5423,-2.6105,-2.7101,-2.7752,-2.8248,-2.8592,-2.8532,-2.8412,-2.8293,-2.8517,-2.8188,-2.7619,-2.8098,-2.7979,-2.7625,-2.7625,-2.7625,-2.7625,-2.7625,-2.7625,-2.7625,-2.7625,-2.7625,-2.7625,-2.7625,-2.7625,-2.7625,-2.7625,-2.7625,-2.7625,-2.7625,-2.7625,-2.7625,-2.7625,-2.7625,-2.7625,-2.7625,-2.7625,-2.7625,-2.7625,-2.7625,-2.7565,-2.744,-2.6854,-2.6342,-2.601,-2.5084,-2.4209,-2.3683,-2.4209,-2.4439,-2.4092,-2.5284,-2.6207,-2.6398,-2.6445,-2.6654,-2.7154,-2.6588,-2.6264,-2.6521,-2.6533,-2.6533,-2.6533,-2.6063,-2.5598,-2.5059,-2.4682,-2.4418,-2.4243,-2.3665,-2.3715,-2.423,-2.3653,-2.3502,-2.3653,-2.3477,-2.3401,-2.3389,-2.314,-2.3078,-2.3078,-2.3078,-2.2763,-2.2384,-3.1499,-3.1386,-3.1386,-3.1399,-3.0959,-3.062,-3.062,-3.0143,-2.9792,-2.9792,-2.9792,-2.9792,-2.9792,-2.9792,-3.0216,-3.1106,-3.118,-3.068,-2.9528,-2.7624,-2.4946,-2.1307,-2.2904,-2.4041,-2.4626,-2.5263,-2.537,-2.4833,-2.5558,-2.5664,-2.5262,-2.6118,-2.7158,-2.8438,-2.9248,-2.9205,-2.8682,-2.9953,-2.937,-2.7649,-2.8338,-2.8203,-2.764,-2.764,-2.7625,-2.7625,-2.7625,-2.7625,-2.7625,-2.7625,-2.7625,-2.7625,-2.7625,-2.7625,-2.7625,-2.7625,-2.7625,-2.7625,-2.7625,-2.7625,-2.7625,-2.7625,-2.7625,-2.7625,-2.7625,-2.7625,-2.7625,-2.7625,-2.7625,-2.7625,-2.7625,-2.7625,-2.7565,-2.7342,-2.668,-2.5963,-2.521,-2.4948,-2.4619,-2.4067,-2.5895,-2.7193,-2.7193,-2.8679,-2.9277,-2.8467,-2.8958,-2.8797,-2.7762,-2.6355,-2.5862,-2.6508,-2.6533,-2.6533,-2.6533,-2.6533,-2.6163,-2.5598,-2.5598,-2.5322,-2.4808,-2.4255,-2.4305,-2.4795,-2.4243,-2.4305,-2.477,-2.4217,-2.4004,-2.3941,-2.3364,-2.3078,-2.3078,-2.3078,-2.3078,-2.3078,-3.1926,-3.1361,-3.1085,-3.1838,-3.1223,-3.062,-3.062,-3.0143,-2.9792,-2.9792,-2.9792,-2.9792,-2.9792,-2.9792,-3.0216,-3.1106,-3.0633,-2.9704,-2.8603,-2.8664,-2.8004,-2.6068,-2.5825,-2.5989,-2.6733,-2.6947,-2.705,-2.7042,-2.6857,-2.6744,-2.6694,-2.6554,-2.6977,-2.7884,-2.8562,-2.8786,-2.8667,-2.9505,-2.952,-2.8996,-2.9205,-2.916,-2.8981,-2.8981,-2.8697,-2.8293,-2.8293,-2.7979,-2.7625,-2.7625,-2.7625,-2.7625,-2.7625,-2.7625,-2.7625,-2.7625,-2.7625,-2.7625,-2.7625,-2.7625,-2.7679,-2.8173,-2.7934,-2.7694,-2.8173,-2.7919,-2.7625,-2.7625,-2.7625,-2.7625,-2.7625,-2.7964,-2.798,-2.6934,-2.7324,-2.7099,-2.5382,-2.5928,-2.6283,-2.5537,-2.701,-2.8054,-2.8054,-2.8972,-2.9704,-2.987,-2.9368,-2.8683,-2.7723,-2.6739,-2.6276,-2.6521,-2.6533,-2.6533,-2.6533,-2.6533,-2.6163,-2.5598,-2.5598,-2.5523,-2.5347,-2.482,-2.4858,-2.531,-2.4393,-2.4092,-2.423,-2.4067,-2.3753,-2.3414,-2.3653,-2.3489,-2.3078,-2.3078,-2.3078,-2.3078,-3.2102,-3.1524,-3.1122,-3.1775,-3.1185,-3.062,-3.062,-3.0143,-2.9792,-2.9792,-2.9792,-2.9792,-2.9792,-2.9792,-3.0355,-3.1609,-3.1267,-3.0443,-2.9409,-2.9651,-2.9664,-2.9332,-2.8524,-2.8161,-2.838,-2.8501,-2.8244,-2.7547,-2.7853,-2.7891,-2.7669,-2.7712,-2.8252,-2.9146,-2.9295,-2.9355,-2.94,-3.0073,-3.0058,-2.9609,-2.9849,-2.9639,-2.919,-2.919,-2.8771,-2.8188,-2.8188,-2.7919,-2.7625,-2.7625,-2.7625,-2.7625,-2.7625,-2.7625,-2.7625,-2.7625,-2.7625,-2.7625,-2.7625,-2.7769,-2.8077,-2.8414,-2.8248,-2.8083,-2.8502,-2.8278,-2.7979,-2.7979,-2.7979,-2.8053,-2.8323,-2.8712,-2.8708,-2.7758,-2.8238,-2.8181,-2.6532,-2.727,-2.774,-2.7033,-2.824,-2.916,-2.916,-2.9849,-3.0507,-3.0881,-3.0038,-2.9129,-2.8247,-2.7417,-2.685,-2.6533,-2.6533,-2.6533,-2.6533,-2.6533,-2.6289,-2.5937,-2.5937,-2.5937,-2.5912,-2.5372,-2.5297,-2.5548,-2.4695,-2.433,-2.4305,-2.4092,-2.3791,-2.3489,-2.3602,-2.3439,-2.3078,-2.3078,-2.3078,-2.3078,-3.2026,-3.1662,-3.1286,-3.1373,-3.0922,-3.0557,-3.0608,-3.0143,-2.9792,-2.9792,-2.9792,-2.9792,-2.9792,-2.9792,-3.057,-3.2464,-3.2664,-3.2321,-3.1389,-3.0482,-3.0419,-3.1315,-3.091,-3.0423,-2.9754,-2.9967,-2.9178,-2.7233,-2.8711,-2.9054,-2.8312,-2.9195,-3.0223,-3.1345,-3.0761,-3.0507,-3.0552,-3.124,-3.0851,-2.9804,-3.0372,-2.9894,-2.8861,-2.8861,-2.8397,-2.7805,-2.7805,-2.773,-2.7625,-2.7625,-2.7625,-2.7625,-2.7625,-2.7625,-2.7625,-2.7625,-2.7625,-2.7625,-2.7625,-2.8038,-2.8509,-2.8336,-2.8422,-2.8591,-2.8651,-2.8629,-2.8622,-2.8682,-2.8637,-2.8801,-2.946,-2.9624,-2.9599,-2.9349,-2.9406,-2.9213,-2.841,-2.8802,-2.9045,-2.8427,-2.9608,-3.0389,-3.0389,-3.1087,-3.1482,-3.1482,-3.0777,-2.995,-2.9066,-2.8182,-2.7351,-2.6521,-2.6533,-2.6533,-2.6533,-2.6533,-2.6533,-2.6533,-2.6533,-2.6533,-2.6508,-2.5912,-2.5674,-2.5636,-2.5071,-2.482,-2.4782,-2.423,-2.3966,-2.3879,-2.3389,-2.3175,-2.3078,-2.3078,-2.3078,-2.3078,-3.1474,-3.0796,-3.0407,-3.1248,-3.0608,-3.0118,-3.0557,-3.0143,-2.9792,-2.9792,-2.9792,-2.9792,-2.9792,-2.9792,-3.057,-3.2464,-3.3241,-3.331,-3.2393,-3.2105,-3.2105,-3.2321,-3.2905,-3.2913,-3.2305,-3.1433,-3.0542,-2.971,-3.0083,-2.9903,-2.9304,-2.9516,-2.9729,-3.0028,-3.0357,-3.0507,-3.0552,-3.124,-3.1317,-3.112,-3.1255,-3.115,-3.0896,-3.0896,-3.0163,-2.9146,-2.9146,-2.8472,-2.7625,-2.7625,-2.7625,-2.7625,-2.7625,-2.7625,-2.7625,-2.7625,-2.7625,-2.7625,-2.7625,-2.7679,-2.7914,-2.8221,-2.8338,-2.8494,-2.9044,-2.8862,-2.8742,-2.9265,-2.8966,-2.8801,-2.946,-2.9983,-3.0138,-2.9599,-3.0345,-3.0572,-2.9272,-3.0177,-3.0659,-2.9947,-3.069,-3.1219,-3.1219,-3.1409,-3.1482,-3.1482,-3.0777,-2.995,-2.9066,-2.8182,-2.7351,-2.6521,-2.6533,-2.6533,-2.6533,-2.6533,-2.6533,-2.6533,-2.6533,-2.6533,-2.6533,-2.6327,-2.6264,-2.6214,-2.5247,-2.482,-2.4782,-2.423,-2.3728,-2.3351,-2.3678,-2.354,-2.3078,-2.3078,-2.3078,-2.3017,-3.0922,-3.0357,-2.9967,-3.0532,-3.0168,-2.9892,-3.0181,-2.998,-2.9792,-2.9792,-2.9792,-2.9792,-2.9792,-3.0216,-3.1044,-3.2464,-3.3449,-3.3602,-3.2664,-3.2593,-3.282,-3.3241,-3.3739,-3.3941,-3.3753,-3.3113,-3.2261,-3.1292,-3.1113,-3.0785,-3.0381,-3.0458,-3.0507,-3.0522,-3.0851,-3.1001,-3.1016,-3.1317,-3.1482,-3.1482,-3.1482,-3.1345,-3.1046,-3.1046,-3.0432,-2.9579,-2.9579,-2.8921,-2.8008,-2.7679,-2.7625,-2.7625,-2.7625,-2.7625,-2.7625,-2.7625,-2.785,-2.8068,-2.8068,-2.8225,-2.8341,-2.8193,-2.8694,-2.9289,-2.9318,-2.9115,-2.9156,-2.9899,-2.9744,-2.9714,-3.0387,-3.0776,-3.0881,-3.0567,-3.1091,-3.1232,-3.0455,-3.0997,-3.1351,-3.0896,-3.1219,-3.1482,-3.1482,-3.1482,-3.1482,-3.1482,-3.1087,-3.0329,-2.9066,-2.8556,-2.7736,-2.6521,-2.6533,-2.6533,-2.6533,-2.6533,-2.6533,-2.6533,-2.6533,-2.6533,-2.6533,-2.6533,-2.6176,-2.5649,-2.5071,-2.4519,-2.3991,-2.3703,-2.3414,-2.3103,-2.3477,-2.3401,-2.3078,-2.3078,-2.3078,-2.2967,-3.0382,-3.0105,-2.9792,-2.9792,-2.9792,-2.9792,-2.9792,-2.9792,-2.9792,-2.9792,-2.9792,-2.9792,-2.9792,-3.0771,-3.1815,-3.2749,-3.3739,-3.3959,-3.3185,-3.3101,-3.3463,-3.4245,-3.4245,-3.4361,-3.4651,-3.4532,-3.3813,-3.2411,-3.2004,-3.1753,-3.1569,-3.1679,-3.1646,-3.1704,-3.1526,-3.1482,-3.1482,-3.1482,-3.1482,-3.1482,-3.1482,-3.1195,-3.0672,-3.0672,-3.0283,-2.9744,-2.9744,-2.925,-2.8502,-2.785,-2.7625,-2.7625,-2.7625,-2.7625,-2.7625,-2.7625,-2.8053,-2.8607,-2.8607,-2.8939,-2.9189,-2.8382,-2.9153,-2.9995,-2.9577,-2.9463,-2.9711,-3.0529,-3.0582,-3.0717,-3.1347,-3.1482,-3.1482,-3.1482,-3.1482,-3.1482,-3.1482,-3.1482,-3.1511,-3.1631,-3.1646,-3.1601,-3.1482,-3.1482,-3.1482,-3.1482,-3.1482,-3.0821,-2.9218,-2.9058,-2.8287,-2.6659,-2.6584,-2.6533,-2.6533,-2.6533,-2.6533,-2.6533,-2.6533,-2.6533,-2.6533,-2.6533,-2.5912,-2.4958,-2.4958,-2.4318,-2.3215,-2.3215,-2.3165,-2.3078,-2.3078,-2.3078,-2.3078,-2.3078,-2.3078,-2.293,-2.9892,-2.9842,-2.9792,-2.9792,-2.9792,-2.9792,-2.9792,-2.9792,-2.9792,-2.9792,-2.9792,-2.9792,-2.9792,-3.1341,-3.282,-3.3739,-3.4691,-3.5213,-3.5148,-3.5133,-3.5133,-3.5279,-3.5294,-3.5314,-3.537,-3.4786,-3.408,-3.33,-3.3244,-3.3214,-3.3212,-3.2617,-3.2377,-3.2362,-3.1735,-3.1482,-3.1482,-3.1482,-3.1482,-3.1482,-3.1482,-3.1422,-3.1332,-3.1332,-3.0971,-3.0372,-3.0372,-2.9609,-2.8502,-2.785,-2.7625,-2.7625,-2.7625,-2.7625,-2.7625,-2.7625,-2.8053,-2.8607,-2.8607,-2.9077,-2.9489,-2.9189,-2.9272,-2.9577,-3.0038,-3.025,-3.0559,-3.1213,-3.0911,-3.0717,-3.1347,-3.1482,-3.1482,-3.1482,-3.1482,-3.1482,-3.1482,-3.1482,-3.1749,-3.2317,-3.2377,-3.2153,-3.1541,-3.1482,-3.1482,-3.1482,-3.1482,-3.0951,-2.9748,-2.9215,-2.8475,-2.7226,-2.6703,-2.6533,-2.6533,-2.6533,-2.6533,-2.6533,-2.6533,-2.6533,-2.6533,-2.6533,-2.6101,-2.5485,-2.5485,-2.4883,-2.3879,-2.3879,-2.359,-2.3078,-2.3078,-2.3078,-2.3078,-2.3078,-2.3078,-2.299,-2.9792,-2.9792,-2.9792,-2.9792,-2.9792,-2.9792,-2.9792,-2.9792,-2.9792,-2.9792,-2.9792,-2.9792,-2.9792,-3.1476,-3.3171,-3.4691,-3.5213,-3.5504,-3.5504,-3.5504,-3.5504,-3.5504,-3.5504,-3.5504,-3.5504,-3.5205,-3.4906,-3.4622,-3.3858,-3.3679,-3.4023,-3.2991,-3.2512,-3.2482,-3.1824,-3.1482,-3.1482,-3.1482,-3.1482,-3.1482,-3.1482,-3.1482,-3.1482,-3.1482,-3.1345,-3.0986,-3.0253,-2.9624,-2.8981,-2.797,-2.7625,-2.7625,-2.7625,-2.7844,-2.8143,-2.8143,-2.8861,-2.9654,-2.9654,-2.9799,-3.0002,-2.9898,-2.9851,-2.9923,-3.0211,-3.0661,-3.1165,-3.1422,-3.1228,-3.1165,-3.1422,-3.1482,-3.1482,-3.1482,-3.1482,-3.1482,-3.1482,-3.1482,-3.1586,-3.1928,-3.1958,-3.1854,-3.1497,-3.1482,-3.1482,-3.1482,-3.1884,-3.1617,-3.063,-2.9959,-2.9102,-2.8127,-2.7074,-2.6533,-2.6533,-2.6533,-2.6533,-2.6533,-2.6533,-2.6533,-2.6533,-2.6533,-2.6138,-2.5598,-2.5598,-2.4983,-2.4004,-2.4004,-2.3653,-2.3078,-2.3078,-2.3078,-2.3078,-2.3078,-2.3078,-2.304]},{"header":{"parameterUnit":"m.s-1","parameterCategory":1,"la1":30.6,"la2":28.766,"lo1":-90.7593,"lo2":-88.6598,"dy":0.0162,"dx":0.0183,"nx":116,"ny":114,"refTime":"2023-07-13T06:00:00:Z","depth":0,"parameterNumber":3,"parameterNumberName":"V-component_of_WINDS"},"data":[0.0,0.0,0.0,0.0,0.0,0.0,0.0,0.0,0.0,0.0,0.0,0.0,0.0,0.0,0.0,0.0,0.0,0.0,0.0,0.0,0.0,0.0,0.0,0.0,0.0,0.0,0.0,0.0,0.0,0.0,0.0,0.0,0.0,0.0,0.0,0.0,0.0,0.0,0.0,0.0,0.0,0.0,0.0,0.0,0.0,0.0,0.0,0.0,0.0,0.0,0.0,0.0,0.0,0.0,0.0,0.0,0.0,0.0,0.0,0.0,0.0,0.0,0.0,0.0,0.0,0.0,0.0,0.0,0.0,0.0,0.0,0.0,0.0,0.0,0.0,0.0,0.0,0.0,0.0,0.0,0.0,0.0,0.0,0.0,0.0,0.0,0.0,0.0,0.0,0.0,0.0,0.0,0.0,0.0,0.0,0.0,0.0,0.0,0.0,0.0,0.0,0.0,0.0,0.0,0.0,0.0,0.0,0.0,0.0,0.0,0.0,0.0,0.0,0.0,0.0,0.0,0.0,0.0,0.0,0.0,0.0,0.0,0.0,0.0,0.0,0.0,0.0,0.0,0.0,0.0,0.0,0.0,0.0,0.0,0.0,0.0,0.0,0.0,0.0,0.0,0.0,0.0,0.0,0.0,0.0,0.0,0.0,0.0,0.0,0.0,0.0,0.0,0.0,0.0,0.0,0.0,0.0,0.0,0.0,0.0,0.0,0.0,0.0,0.0,0.0,0.0,0.0,0.0,0.0,0.0,0.0,0.0,0.0,0.0,0.0,0.0,0.0,0.0,0.0,0.0,0.0,0.0,0.0,0.0,0.0,0.0,0.0,0.0,0.0,0.0,0.0,0.0,0.0,0.0,0.0,0.0,0.0,0.0,0.0,0.0,0.0,0.0,0.0,0.0,0.0,0.0,0.0,0.0,0.0,0.0,0.0,0.0,0.0,0.0,0.0,0.0,0.0,0.0,0.0,0.0,0.0,0.0,0.0,0.0,0.0,0.0,0.0,0.0,0.0,0.0,0.0,0.0,0.0,0.0,0.0,0.0,0.0,0.0,0.0,0.0,0.0,0.0,0.0,0.0,0.0,0.0,0.0,0.0,0.0,0.0,0.0,0.0,0.0,0.0,0.0,0.0,0.0,0.0,0.0,0.0,0.0,0.0,0.0,0.0,0.0,0.0,0.0,0.0,0.0,0.0,0.0,0.0,0.0,0.0,0.0,0.0,0.0,0.0,0.0,0.0,0.0,0.0,0.0,0.0,0.0,0.0,0.0,0.0,0.0,0.0,0.0,0.0,0.0,0.0,0.0,0.0,0.0,0.0,0.0,0.0,0.0,0.0,0.0,0.0,0.0,0.0,0.0,0.0,0.0,0.0,0.0,0.0,0.0,0.0,0.0,0.0,0.0,0.0,0.0,0.0,0.0,0.0,0.0,0.0,0.0,0.0,0.0,0.0,0.0,0.0,0.0,0.0,0.0,0.0,0.0,0.0,0.0,0.0,0.0,0.0,0.0,0.0,0.0,0.0,0.0,0.0,0.0,0.0,0.0,0.0,0.0,0.0,0.0,0.0,0.0,0.0,0.0,0.0,0.0,0.0,0.0,0.0,0.0,0.0,0.0,0.0,0.0,0.0,0.0,0.0,0.0,0.0,0.0,0.0,0.0,0.0,0.0,0.0,0.0,0.0,0.0,0.0,0.0,0.0,0.0,0.0,0.0,0.0,0.0,0.0,0.0,0.0,0.0,0.0,0.0,0.0,0.0,0.0,0.0,0.0,0.0,0.0,0.0,0.0,0.0,0.0,0.0,0.0,0.0,0.0,0.0,0.0,0.0,0.0,0.0,0.0,0.0,0.0,0.0,0.0,0.0,0.0,0.0,0.0,0.0,0.0,0.0,0.0,0.0,0.0,0.0,0.0,0.0,0.0,0.0,0.0,0.0,0.0,0.0,0.0,0.0,0.0,0.0,0.0,0.0,0.0,0.0,0.0,0.0,0.0,0.0,0.0,0.0,0.0,0.0,0.0,0.0,0.0,0.0,0.0,0.0,0.0,0.0,0.0,0.0,0.0,0.0,0.0,0.0,0.0,0.0,0.0,0.0,0.0,0.0,0.0,0.0,0.0,0.0,0.0,0.0,0.0,0.0,0.0,0.0,0.0,0.0,0.0,0.0,0.0,0.0,0.0,0.0,0.0,0.0,0.0,0.0,0.0,0.0,0.0,0.0,0.0,0.0,0.0,0.0,0.0,0.0,0.0,0.0,0.0,0.0,0.0,0.0,0.0,0.0,0.0,0.0,0.0,0.0,0.0,0.0,0.0,0.0,0.0,0.0,0.0,0.0,0.0,0.0,0.0,0.0,0.0,0.0,0.0,0.0,0.0,0.0,0.0,0.0,0.0,0.0,0.0,0.0,0.0,0.0,0.0,0.0,0.0,0.0,0.0,0.0,0.0,0.0,0.0,0.0,0.0,0.0,0.0,0.0,0.0,0.0,0.0,0.0,0.0,0.0,0.0,0.0,0.0,0.0,0.0,0.0,0.0,0.0,0.0,0.0,0.0,0.0,0.0,0.0,0.0,0.0,0.0,0.0,0.0,0.0,0.0,0.0,0.0,0.0,0.0,0.0,0.0,0.0,0.0,0.0,0.0,0.0,0.0,0.0,0.0,0.0,0.0,0.0,0.0,0.0,0.0,0.0,0.0,0.0,0.0,0.0,0.0,0.0,0.0,0.0,0.0,0.0,0.0,0.0,0.0,0.0,0.0,0.0,0.0,0.0,0.0,0.0,0.0,0.0,0.0,0.0,0.0,0.0,0.0,0.0,0.0,0.0,0.0,0.0,0.0,0.0,0.0,0.0,0.0,0.0,0.0,0.0,0.0,0.0,0.0,0.0,0.0,0.0,0.0,0.0,0.0,0.0,0.0,0.0,0.0,0.0,0.0,0.0,0.0,0.0,0.0,0.0,0.0,0.0,0.0,0.0,0.0,0.0,0.0,0.0,0.0,0.0,0.0,0.0,0.0,0.0,0.0,0.0,0.0,0.0,0.0,0.0,0.0,0.0,0.0,0.0,0.0,0.0,0.0,0.0,0.0,0.0,0.0,0.0,0.0,0.0,0.0,0.0,0.0,0.0,0.0,0.0,0.0,0.0,0.0,0.0,0.0,0.0,0.0,0.0,0.0,0.0,0.0,0.0,0.0,0.0,0.0,0.0,0.0,0.0,0.0,0.0,0.0,0.0,0.0,0.0,0.0,0.0,0.0,0.0,0.0,0.0,0.0,0.0,0.0,0.0,0.0,0.0,0.0,0.0,0.0,0.0,0.0,0.0,0.0,0.0,0.0,0.0,0.0,0.0,0.0,0.0,0.0,0.0,0.0,0.0,0.0,0.0,0.0,0.0,0.0,0.0,0.0,0.0,0.0,0.0,0.0,0.0,0.0,0.0,0.0,0.0,0.0,0.0,0.0,0.0,0.0,0.0,0.0,0.0,0.0,0.0,0.0,0.0,0.0,0.0,0.0,0.0,0.0,0.0,0.0,0.0,0.0,0.0,0.0,0.0,0.0,0.0,0.0,0.0,0.0,0.0,0.0,0.0,0.0,0.0,0.0,0.0,0.0,0.0,0.0,0.0,0.0,0.0,0.0,0.0,0.0,0.0,0.0,0.0,0.0,0.0,0.0,0.0,0.0,0.0,0.0,0.0,0.0,0.0,0.0,0.0,0.0,0.0,0.0,0.0,0.0,0.0,0.0,0.0,0.0,0.0,0.0,0.0,0.0,0.0,0.0,0.0,0.0,0.0,0.0,0.0,0.0,0.0,0.0,0.0,0.0,0.0,0.0,0.0,0.0,0.0,0.0,0.0,0.0,0.0,0.0,0.0,0.0,0.0,0.0,0.0,0.0,0.0,0.0,0.0,0.0,0.0,0.0,0.0,0.0,0.0,0.0,0.0,0.0,0.0,0.0,0.0,0.0,0.0,0.0,0.0,0.0,0.0,0.0,0.0,0.0,0.0,0.0,0.0,0.0,0.0,0.0,0.0,0.0,0.0,0.0,0.0,0.0,0.0,0.0,0.0,0.0,0.0,0.0,0.0,0.0,0.0,0.0,0.0,0.0,0.0,0.0,0.0,0.0,0.0,0.0,0.0,0.0,0.0,0.0,0.0,0.0,0.0,0.0,0.0,0.0,0.0,0.0,0.0,0.0,0.0,0.0,0.0,0.0,0.0,0.0,0.0,0.0,0.0,0.0,0.0,0.0,0.0,0.0,0.0,0.0,0.0,0.0,0.0,0.0,0.0,0.0,0.0,0.0,0.0,0.0,0.0,0.0,0.0,0.0,0.0,0.0,0.0,0.0,0.0,0.0,0.0,0.0,0.0,0.0,0.0,0.0,0.0,0.0,0.0,0.0,0.0,0.0,0.0,0.0,0.0,0.0,0.0,0.0,0.0,0.0,0.0,0.0,0.0,0.0,0.0,0.0,0.0,0.0,0.0,0.0,0.0,0.0,0.0,0.0,0.0,0.0,0.0,0.0,0.0,0.0,0.0,0.0,0.0,0.0,0.0,0.0,0.0,0.0,0.0,0.0,0.0,0.0,0.0,0.0,0.0,0.0,0.0,0.0,0.0,0.0,0.0,0.0,0.0,0.0,0.0,0.0,0.0,0.0,0.0,0.0,0.0,0.0,0.0,0.0,0.0,0.0,0.0,0.0,0.0,0.0,0.0,0.0,0.0,0.0,0.0,0.0,0.0,0.0,0.0,0.0,0.0,0.0,0.0,0.0,0.0,0.0,0.0,0.0,0.0,0.0,0.0,0.0,0.0,0.0,0.0,0.0,0.0,0.0,0.0,0.0,0.0,0.0,0.0,0.0,0.0,0.0,0.0,0.0,0.0,0.0,0.0,0.0,0.0,0.0,0.0,0.0,0.0,0.0,0.0,0.0,0.0,0.0,0.0,0.0,0.0,0.0,0.0,0.0,0.0,0.0,0.0,0.0,0.0,0.0,0.0,0.0,0.0,0.0,0.0,0.0,0.0,0.0,0.0,0.0,0.0,0.0,0.0,0.0,0.0,0.0,0.0,0.0,0.0,0.0,0.0,0.0,0.0,0.0,0.0,0.0,0.0,0.0,0.0,0.0,0.0,0.0,0.0,0.0,0.0,0.0,0.0,0.0,0.0,0.0,0.0,0.0,0.0,0.0,0.0,0.0,0.0,0.0,0.0,0.0,0.0,0.0,0.0,0.0,0.0,0.0,0.0,0.0,0.0,0.0,0.0,0.0,0.0,0.0,0.0,0.0,0.0,0.0,0.0,0.0,0.0,0.0,0.0,0.0,0.0,0.0,0.0,0.0,0.0,0.0,0.0,0.0,0.0,0.0,0.0,0.0,0.0,0.0,0.0,0.0,0.0,0.0,0.0,0.0,0.0,0.0,0.0,0.0,0.0,0.0,0.0,0.0,0.0,0.0,0.0,0.0,0.0,0.0,0.0,0.0,0.0,0.0,0.0,0.0,0.0,0.0,0.0,0.0,0.0,0.0,0.0,0.0,0.0,0.0,0.0,0.0,0.0,0.0,0.0,0.0,0.0,0.0,0.0,0.0,0.0,0.0,0.0,0.0,0.0,0.0,0.0,0.0,0.0,0.0,0.0,0.0,0.0,0.0,0.0,0.0,0.0,0.0,0.0,0.0,0.0,0.0,0.0,0.0,0.0,0.0,0.0,0.0,0.0,0.0,0.0,0.0,0.0,0.0,0.0,0.0,0.0,0.0,0.0,0.0,0.0,0.0,0.0,0.0,0.0,0.0,0.0,0.0,0.0,0.0,0.0,0.0,0.0,0.0,0.0,0.0,0.0,0.0,0.0,0.0,0.0,0.0,0.0,0.0,0.0,0.0,0.0,0.0,0.0,0.0,0.0,0.0,0.0,0.0,0.0,0.0,0.0,0.0,0.0,0.0,0.0,0.0,0.0,0.0,0.0,0.0,0.0,0.0,0.0,0.0,0.0,0.0,0.0,0.0,0.0,0.0,0.0,0.0,0.0,0.0,0.0,0.0,0.0,0.0,0.0,0.0,0.0,0.0,0.0,0.0,0.0,0.0,0.0,0.0,0.0,0.0,0.0,0.0,0.0,0.0,-2.5508,-2.5067,0.0,0.0,0.0,0.0,0.0,0.0,0.0,0.0,0.0,0.0,0.0,0.0,0.0,0.0,0.0,0.0,0.0,0.0,0.0,0.0,0.0,0.0,0.0,0.0,0.0,0.0,0.0,0.0,0.0,0.0,0.0,0.0,0.0,0.0,0.0,0.0,0.0,0.0,0.0,0.0,0.0,0.0,0.0,0.0,0.0,0.0,0.0,0.0,0.0,0.0,0.0,0.0,0.0,0.0,0.0,0.0,0.0,0.0,0.0,0.0,0.0,0.0,0.0,0.0,0.0,0.0,0.0,0.0,0.0,0.0,0.0,0.0,0.0,0.0,0.0,0.0,0.0,0.0,0.0,0.0,0.0,0.0,0.0,0.0,0.0,0.0,0.0,0.0,0.0,0.0,0.0,0.0,0.0,0.0,0.0,0.0,0.0,0.0,0.0,0.0,0.0,0.0,0.0,0.0,0.0,0.0,0.0,0.0,0.0,0.0,0.0,0.0,0.0,0.0,-2.6436,-2.6176,0.0,0.0,0.0,0.0,0.0,0.0,0.0,0.0,0.0,0.0,0.0,0.0,0.0,0.0,0.0,0.0,0.0,0.0,0.0,0.0,0.0,0.0,0.0,0.0,0.0,0.0,0.0,0.0,0.0,0.0,0.0,0.0,0.0,0.0,0.0,0.0,0.0,0.0,0.0,0.0,0.0,0.0,0.0,0.0,0.0,0.0,0.0,0.0,0.0,0.0,0.0,0.0,0.0,0.0,0.0,0.0,0.0,0.0,0.0,0.0,0.0,0.0,0.0,0.0,0.0,0.0,0.0,0.0,0.0,0.0,0.0,0.0,0.0,0.0,0.0,0.0,0.0,0.0,0.0,0.0,0.0,0.0,0.0,0.0,0.0,0.0,0.0,0.0,0.0,0.0,0.0,0.0,0.0,0.0,0.0,0.0,0.0,0.0,0.0,0.0,0.0,0.0,0.0,0.0,0.0,0.0,0.0,0.0,-3.1526,-3.0725,-3.0045,-2.9708,-2.9024,-2.8141,-2.8186,-2.7954,-2.7458,-2.706,0.0,0.0,0.0,0.0,0.0,0.0,0.0,0.0,0.0,0.0,0.0,0.0,0.0,0.0,0.0,0.0,0.0,0.0,0.0,0.0,0.0,0.0,0.0,0.0,0.0,0.0,0.0,0.0,0.0,0.0,0.0,0.0,0.0,0.0,0.0,0.0,0.0,0.0,-1.8212,-1.9499,-2.0649,-2.1618,0.0,0.0,0.0,0.0,0.0,0.0,0.0,0.0,0.0,0.0,0.0,0.0,0.0,0.0,0.0,0.0,0.0,0.0,0.0,0.0,0.0,0.0,0.0,0.0,0.0,0.0,0.0,0.0,0.0,0.0,0.0,0.0,0.0,0.0,0.0,0.0,0.0,0.0,0.0,0.0,0.0,0.0,0.0,0.0,-3.5957,-3.7045,0.0,0.0,0.0,0.0,0.0,0.0,0.0,0.0,0.0,0.0,0.0,0.0,0.0,-3.42,-3.3476,-3.3373,-3.2884,-3.2034,-3.1681,-3.1249,-3.0668,-3.1353,-3.1366,-3.0725,-3.1469,0.0,-2.7636,-2.8142,0.0,0.0,0.0,0.0,0.0,0.0,0.0,0.0,0.0,0.0,0.0,0.0,0.0,0.0,0.0,0.0,0.0,0.0,0.0,0.0,0.0,0.0,0.0,0.0,0.0,0.0,0.0,0.0,0.0,0.0,0.0,0.0,0.0,0.0,0.0,0.0,-1.999,-1.8913,-1.8731,-1.9308,-2.0544,-2.2339,-2.3274,-2.4255,-2.5315,-2.7076,0.0,0.0,0.0,0.0,0.0,0.0,0.0,0.0,0.0,0.0,0.0,0.0,0.0,0.0,0.0,0.0,0.0,0.0,0.0,0.0,0.0,0.0,0.0,0.0,0.0,0.0,0.0,0.0,0.0,0.0,0.0,0.0,0.0,0.0,0.0,0.0,0.0,0.0,0.0,-3.6437,-3.7411,-3.7181,-3.7356,-3.7368,0.0,0.0,0.0,0.0,0.0,0.0,0.0,0.0,0.0,-3.5087,-3.511,-3.4657,-3.3732,-3.4059,-3.3346,-3.1541,-3.2,-3.2068,-3.1806,-3.2777,-3.3122,-3.3063,-3.3466,-3.2407,-3.0347,-2.9858,-2.946,-2.9146,0.0,0.0,0.0,0.0,-2.9146,-2.916,0.0,0.0,0.0,0.0,0.0,0.0,0.0,0.0,0.0,0.0,0.0,0.0,0.0,0.0,0.0,0.0,0.0,0.0,0.0,0.0,0.0,0.0,0.0,0.0,0.0,0.0,0.0,0.0,-1.9786,-1.9314,-1.9617,-2.0052,-2.1209,-2.3072,-2.4232,-2.5203,-2.6148,-2.7653,-2.7963,0.0,0.0,0.0,0.0,0.0,0.0,0.0,0.0,0.0,0.0,0.0,0.0,0.0,0.0,0.0,0.0,0.0,0.0,0.0,0.0,0.0,0.0,0.0,0.0,0.0,0.0,0.0,0.0,0.0,0.0,0.0,0.0,0.0,0.0,0.0,0.0,0.0,0.0,-3.8022,-3.8874,-3.7712,-3.8454,-3.8638,0.0,0.0,0.0,0.0,0.0,0.0,-3.6437,-3.5752,-3.5511,-3.5866,-3.5641,-3.5014,-3.407,-3.4171,-3.3336,-3.1536,-3.2033,-3.2464,-3.2961,-3.3671,-3.4178,-3.4472,-3.4292,-3.3574,-3.2422,-3.1255,-3.0387,-2.9819,-2.9819,-2.9819,-2.9819,-2.9819,-2.9819,-2.9864,0.0,0.0,0.0,0.0,0.0,0.0,0.0,0.0,0.0,0.0,0.0,0.0,0.0,0.0,0.0,0.0,0.0,0.0,0.0,0.0,0.0,0.0,0.0,0.0,0.0,0.0,0.0,-2.2018,-1.9745,-1.9308,-2.059,-2.2091,-2.2867,-2.3144,-2.6021,-2.7006,-2.6562,-2.7767,-2.8006,-2.7724,0.0,0.0,0.0,0.0,0.0,0.0,0.0,0.0,0.0,0.0,0.0,0.0,0.0,0.0,0.0,0.0,0.0,0.0,0.0,0.0,0.0,0.0,0.0,0.0,0.0,0.0,0.0,0.0,0.0,0.0,0.0,0.0,0.0,0.0,0.0,0.0,0.0,0.0,0.0,-4.0555,-4.1649,0.0,0.0,0.0,0.0,-3.7571,-3.7948,-3.7758,-3.6754,-3.731,-3.7284,-3.6551,-3.5687,-3.4821,-3.4037,-3.228,-3.1802,-3.2522,-3.1669,-3.2177,-3.3945,-3.3959,-3.4178,-3.4442,-3.3814,-3.3155,-3.2467,-3.1764,-3.1076,-3.0447,-3.0447,-3.0447,-3.0447,-3.0447,-3.0447,-3.0372,0.0,0.0,0.0,0.0,0.0,0.0,0.0,0.0,0.0,0.0,0.0,0.0,0.0,0.0,0.0,0.0,0.0,0.0,0.0,0.0,0.0,0.0,0.0,0.0,0.0,0.0,-2.1805,-2.087,-1.9456,-1.9558,-2.0972,-2.1543,-2.286,-2.4681,-2.5749,-2.6585,-2.7248,-2.811,-2.8136,-2.767,-2.815,-2.8045,0.0,0.0,0.0,0.0,0.0,0.0,0.0,0.0,0.0,0.0,0.0,0.0,0.0,0.0,0.0,0.0,0.0,0.0,0.0,0.0,0.0,0.0,0.0,0.0,0.0,0.0,0.0,0.0,0.0,0.0,0.0,0.0,0.0,0.0,0.0,0.0,0.0,-4.2103,-4.2412,0.0,-4.0532,-4.0306,-3.9858,-3.8818,-3.9181,-3.9059,-3.815,-3.7432,-3.6591,-3.573,-3.486,-3.3682,-3.2249,-3.2105,-3.196,-3.1669,-3.2593,-3.338,-3.4027,-3.4691,-3.4999,-3.513,-3.4891,-3.4412,-3.3724,-3.3066,-3.2153,-3.1165,-3.1165,-3.1165,-3.1165,-3.1165,-3.1165,-3.1135,0.0,0.0,0.0,0.0,0.0,0.0,0.0,0.0,0.0,0.0,0.0,0.0,0.0,0.0,0.0,0.0,0.0,0.0,0.0,0.0,0.0,0.0,0.0,0.0,0.0,0.0,-2.1551,-2.0653,-1.975,-2.0133,-2.1602,-2.1876,-2.3137,-2.5164,-2.5633,-2.64,-2.729,-2.7964,-2.7993,-2.764,-2.7829,-2.7784,-2.7625,0.0,0.0,0.0,0.0,0.0,0.0,0.0,0.0,0.0,0.0,0.0,0.0,0.0,0.0,0.0,0.0,0.0,0.0,0.0,0.0,0.0,0.0,0.0,0.0,0.0,0.0,0.0,0.0,0.0,0.0,0.0,0.0,0.0,0.0,-4.3787,-4.448,-4.2838,-4.3166,-4.2742,-4.0722,-4.1107,-4.0962,-3.9626,-3.9816,-3.944,-3.8189,-3.7188,-3.6073,-3.4845,-3.4254,-3.3241,-3.1669,-3.2321,-3.2464,-3.2177,-3.338,-3.4177,-3.4543,-3.5213,-3.5504,-3.5489,-3.525,-3.4906,-3.4427,-3.3769,-3.2841,-3.1839,-3.1556,-3.1482,-3.1482,-3.1482,-3.1482,-3.1482,0.0,0.0,0.0,0.0,0.0,0.0,0.0,0.0,0.0,0.0,0.0,0.0,0.0,0.0,0.0,0.0,0.0,0.0,0.0,0.0,0.0,0.0,0.0,0.0,0.0,0.0,0.0,0.0,0.0,0.0,0.0,0.0,0.0,-2.4566,-2.5923,-2.6542,-2.6602,-2.726,-2.7595,-2.7655,-2.8293,-2.8173,-2.776,0.0,0.0,0.0,0.0,0.0,0.0,0.0,0.0,0.0,0.0,0.0,0.0,0.0,0.0,0.0,0.0,0.0,0.0,0.0,0.0,0.0,0.0,0.0,0.0,0.0,0.0,0.0,0.0,0.0,0.0,0.0,0.0,0.0,-4.4149,-4.5433,-4.5456,-4.294,-4.4137,-4.3984,-4.0909,-4.1868,-4.1877,-3.99,-3.975,-3.8846,-3.6645,-3.6538,-3.5695,-3.4013,-3.3959,-3.3518,-3.2593,-3.2593,-3.3101,-3.4027,-3.4027,-3.4543,-3.5504,-3.5504,-3.5504,-3.5474,-3.4801,-3.4502,-3.4457,-3.3784,-3.3125,-3.2497,-3.1824,-3.1497,-3.1482,-3.1482,-3.1482,-3.1482,0.0,0.0,0.0,0.0,0.0,0.0,0.0,0.0,0.0,0.0,0.0,0.0,0.0,0.0,0.0,0.0,0.0,0.0,0.0,0.0,0.0,0.0,0.0,0.0,0.0,0.0,0.0,0.0,0.0,0.0,0.0,0.0,0.0,0.0,-2.4984,-2.5435,-2.5929,-2.6572,-2.6856,-2.6916,-2.759,-2.7739,-2.7705,0.0,0.0,0.0,0.0,0.0,0.0,0.0,0.0,0.0,0.0,0.0,0.0,0.0,0.0,0.0,0.0,0.0,0.0,0.0,0.0,0.0,0.0,0.0,0.0,0.0,0.0,0.0,0.0,0.0,0.0,0.0,-4.5597,-4.7558,-4.6784,-4.7583,-4.7656,-4.6026,-4.5121,-4.3723,-4.1465,-4.1775,-4.1238,-3.9099,-3.8965,-3.8026,-3.5728,-3.502,-3.4187,-3.3031,-3.2961,-3.289,-3.2593,-3.331,-3.3739,-3.4027,-3.4758,-3.5213,-3.5504,-3.5504,-3.5504,-3.5489,-3.531,-3.522,-3.513,-3.3978,-3.3664,-3.3829,-3.2691,-3.1958,-3.1482,-3.1482,-3.1482,-3.1482,0.0,0.0,0.0,0.0,0.0,0.0,0.0,0.0,0.0,0.0,0.0,0.0,0.0,0.0,0.0,0.0,0.0,0.0,0.0,0.0,0.0,0.0,0.0,0.0,0.0,0.0,0.0,0.0,0.0,0.0,0.0,0.0,0.0,0.0,0.0,-2.4837,-2.5241,-2.5899,-2.6333,-2.6617,-2.7006,-2.732,-2.7735,-2.895,-2.9826,-3.0591,-3.1854,-3.3218,-3.4411,-3.5104,0.0,0.0,0.0,0.0,0.0,0.0,0.0,0.0,0.0,0.0,0.0,0.0,0.0,0.0,0.0,0.0,0.0,0.0,0.0,0.0,0.0,0.0,0.0,0.0,-4.8505,-5.0212,-5.0025,-4.991,-4.9186,-4.7466,-4.5455,-4.3404,-4.1394,-4.1019,-3.9995,-3.7748,-3.7607,-3.6622,-3.4211,-3.3682,-3.3171,-3.2593,-3.2961,-3.3171,-3.3171,-3.4177,-3.461,-3.4624,-3.5213,-3.5504,-3.5504,-3.5504,-3.5504,-3.5504,-3.5504,-3.5504,-3.5429,-3.4352,-3.3963,-3.3933,0.0,0.0,0.0,0.0,-3.1482,-3.1482,0.0,0.0,0.0,0.0,0.0,0.0,0.0,0.0,0.0,0.0,0.0,0.0,0.0,0.0,0.0,0.0,0.0,0.0,0.0,0.0,0.0,0.0,0.0,0.0,0.0,0.0,0.0,0.0,0.0,0.0,0.0,0.0,0.0,0.0,0.0,0.0,-2.4627,-2.533,-2.5989,-2.6602,-2.6677,-2.7051,-2.7795,-2.9728,-3.0874,-3.1661,-3.308,-3.432,-3.5352,-3.5562,0.0,0.0,0.0,0.0,0.0,0.0,0.0,0.0,0.0,0.0,0.0,0.0,0.0,0.0,0.0,0.0,0.0,0.0,0.0,0.0,0.0,0.0,0.0,0.0,-5.0487,-5.2127,-5.3021,-5.178,-4.9948,-4.776,-4.5319,-4.2993,-4.0881,-3.9853,-3.8432,-3.6312,-3.6119,-3.5067,-3.2756,-3.2602,0.0,0.0,0.0,-3.3988,-3.4278,-3.5096,-3.5504,-3.5504,-3.5504,-3.5504,-3.5504,-3.5504,-3.5504,-3.5504,-3.5504,-3.5504,-3.5444,-3.4756,-3.4083,-3.3365,-3.2048,-3.1884,-3.2332,-3.1691,-3.1482,-3.1482,0.0,0.0,0.0,0.0,0.0,0.0,0.0,0.0,0.0,0.0,0.0,0.0,0.0,0.0,0.0,0.0,0.0,0.0,0.0,0.0,0.0,0.0,0.0,0.0,0.0,0.0,0.0,0.0,0.0,0.0,0.0,0.0,0.0,0.0,0.0,0.0,-2.4627,-2.533,-2.5989,-2.6632,-2.7171,-2.7455,-2.774,-2.9108,-3.005,-3.0997,-3.3262,-3.4594,-3.5562,-3.7248,-3.733,-3.6923,-3.7783,0.0,0.0,0.0,0.0,0.0,0.0,0.0,0.0,0.0,0.0,0.0,0.0,0.0,0.0,0.0,0.0,0.0,0.0,0.0,0.0,-4.7914,-5.0199,-5.2046,-5.2775,-5.0823,-4.8859,-4.7628,-4.5003,-4.2322,-4.0072,-3.8432,-3.706,-3.6011,-3.5662,-3.4692,-3.2901,-3.2346,-3.2745,-3.4029,-3.3248,-3.3844,-3.5986,-3.5693,-3.5504,-3.5504,-3.5504,0.0,-3.5504,-3.5504,-3.5504,-3.5504,-3.5504,-3.5504,-3.5444,-3.4756,-3.4083,-3.3365,-3.2048,-3.1556,-3.1704,-3.1526,-3.1482,-3.1482,0.0,0.0,0.0,0.0,0.0,0.0,0.0,0.0,0.0,0.0,0.0,0.0,0.0,0.0,0.0,0.0,0.0,0.0,0.0,0.0,0.0,0.0,0.0,0.0,0.0,0.0,0.0,0.0,0.0,0.0,0.0,0.0,0.0,0.0,0.0,0.0,-2.4627,-2.533,-2.5989,-2.6617,-2.6946,-2.7459,-2.8171,-2.9468,-3.0172,-3.0833,-3.3264,-3.4526,-3.5256,-3.6671,-3.7051,-3.7108,-3.8042,-3.7505,-3.6621,0.0,0.0,0.0,0.0,0.0,0.0,0.0,0.0,0.0,0.0,0.0,0.0,0.0,0.0,-4.2976,-4.4042,0.0,-4.7952,-4.9676,-5.0608,-5.1092,-5.1045,-4.8956,-4.7143,-4.6283,-4.3687,-4.0983,-3.8525,-3.7481,-3.636,-3.4948,-3.4699,-3.3833,-3.2182,-3.1885,-3.2527,-3.4313,-3.3518,-3.4157,-3.6492,-3.5833,-3.5504,-3.5504,-3.5504,-3.5504,-3.5504,-3.5504,-3.5504,-3.5504,-3.5504,-3.5504,-3.5444,-3.4756,-3.4083,-3.3425,-3.2766,-3.2317,-3.2018,-3.2018,-3.1824,-3.1524,0.0,0.0,0.0,0.0,0.0,0.0,0.0,0.0,0.0,0.0,0.0,0.0,0.0,0.0,0.0,0.0,0.0,0.0,0.0,0.0,0.0,0.0,0.0,0.0,0.0,0.0,0.0,0.0,0.0,0.0,0.0,0.0,0.0,0.0,0.0,0.0,0.0,-2.557,-2.6183,-2.6846,-2.7097,-2.7867,-2.8998,-3.0328,-3.0713,-3.0903,-3.3185,-3.4338,-3.4945,-3.5831,-3.6456,-3.7028,-3.7945,-3.769,-3.72,-3.8118,-3.7885,0.0,0.0,0.0,0.0,0.0,0.0,0.0,0.0,-4.053,-4.0882,-4.2852,-4.3694,-4.4658,-4.6549,-4.7476,-4.8563,-5.0483,-5.0135,-4.9329,-4.8518,-4.6654,-4.4982,-4.4027,-4.1912,-3.9658,-3.7421,-3.6751,-3.5905,-3.438,-3.3857,-3.3268,-3.2342,-3.2064,-3.2764,-3.4807,-3.4099,-3.4611,-3.6492,-3.5833,-3.5504,-3.5504,-3.5504,-3.5504,-3.5504,-3.5504,-3.5504,-3.5504,-3.5504,-3.5504,-3.5459,-3.4906,-3.4277,-3.3709,-3.3829,-3.3517,-3.2915,-3.2764,-3.2254,-3.1796,0.0,0.0,0.0,0.0,0.0,0.0,0.0,0.0,0.0,0.0,0.0,0.0,0.0,0.0,0.0,0.0,0.0,0.0,0.0,0.0,0.0,0.0,0.0,0.0,0.0,0.0,0.0,0.0,0.0,0.0,0.0,0.0,0.0,0.0,0.0,0.0,0.0,-2.6452,-2.6856,-2.76,-2.8793,-2.9626,-3.0325,-3.1465,-3.1503,-3.1117,-3.3036,-3.4185,-3.5009,-3.6494,-3.7156,-3.749,-3.7907,-3.7433,-3.6761,-3.6906,-3.6868,-3.6805,-3.6839,-3.7988,-3.9615,-4.1514,-4.0978,-4.092,0.0,-4.4374,-4.4112,-4.6858,-4.6952,-4.6532,-4.656,-4.6631,-4.6721,-4.6811,-4.6826,-4.6474,-4.5366,-4.393,-4.2328,-4.0492,-3.9984,-3.9313,-3.8027,-3.6439,-3.5626,-3.5902,-3.4228,-3.3894,-3.5609,-3.4326,-3.4427,-3.6499,-3.544,-3.5339,-3.6492,-3.5833,-3.5504,-3.5504,-3.5504,-3.5504,-3.5504,-3.5504,-3.5504,-3.5504,-3.5504,-3.5504,-3.5489,-3.5429,-3.4981,-3.4427,-3.504,-3.491,-3.4388,-3.3624,-3.2977,-3.2586,0.0,0.0,0.0,0.0,0.0,0.0,0.0,0.0,0.0,0.0,0.0,0.0,0.0,0.0,0.0,0.0,0.0,0.0,0.0,0.0,0.0,0.0,0.0,0.0,0.0,0.0,0.0,0.0,0.0,0.0,0.0,0.0,0.0,0.0,0.0,0.0,0.0,-2.9186,-2.9687,-3.0017,-3.0877,-3.1569,-3.2133,-3.2395,-3.279,-3.3205,-3.3545,-3.385,0.0,0.0,-3.6007,-3.615,-3.6435,-3.6315,-3.6161,-3.6666,-3.7142,-3.7733,-3.8661,-3.9682,-4.0691,-4.1569,-4.1879,-4.2389,-4.4156,-4.4562,-4.4979,-4.6462,-4.7054,-4.7105,-4.6447,-4.6318,-4.6214,-4.5799,-4.5197,-4.4328,-4.3065,-4.1368,-3.9823,-3.8631,-3.8401,-3.8059,-3.7373,-3.6942,-3.6599,-3.6263,-3.5426,-3.5265,-3.6119,-3.5568,-3.5659,-3.6776,-3.6,-3.5816,-3.6492,-3.5833,-3.5504,-3.5504,-3.5504,-3.5504,-3.5504,-3.5504,-3.5504,-3.5504,-3.5504,-3.528,-3.4936,-3.534,-3.4876,-3.4025,-3.5108,-3.52,-3.4705,-3.4709,-3.4341,-3.3905,0.0,0.0,0.0,0.0,0.0,0.0,0.0,0.0,0.0,0.0,0.0,0.0,0.0,0.0,0.0,0.0,0.0,0.0,0.0,0.0,0.0,0.0,0.0,0.0,0.0,0.0,0.0,0.0,0.0,0.0,0.0,0.0,0.0,0.0,0.0,0.0,0.0,-3.141,-3.1925,-3.2076,-3.2861,-3.3546,-3.4116,-3.3684,-3.4307,-3.5155,-3.4026,-3.3769,0.0,0.0,-3.5138,-3.52,-3.5158,-3.5353,-3.5661,-3.6031,-3.6892,-3.8046,-3.9618,-4.0387,-4.0791,-4.1066,-4.2032,-4.3109,-4.3802,-4.4572,-4.5357,-4.6082,-4.6592,-4.6603,-4.5653,-4.5286,-4.4986,-4.4492,-4.3505,-4.2374,-4.0991,-3.954,-3.8325,-3.7386,-3.7389,-3.7367,-3.7244,-3.7604,-3.751,-3.6682,-3.6132,-3.6053,-3.6604,-3.5967,-3.5751,-3.6148,-3.5551,-3.5451,-3.5844,-3.5304,-3.5213,-3.5504,-3.5504,-3.5504,-3.5504,-3.5504,-3.5504,-3.5504,-3.5504,-3.5115,-3.4517,-3.5011,-3.4532,-3.3591,-3.4802,-3.526,-3.5331,-3.577,-3.5625,-3.5331,0.0,0.0,0.0,0.0,0.0,0.0,0.0,0.0,0.0,0.0,0.0,0.0,0.0,0.0,0.0,0.0,0.0,0.0,0.0,0.0,0.0,0.0,0.0,0.0,0.0,0.0,0.0,0.0,0.0,0.0,0.0,0.0,0.0,0.0,0.0,0.0,0.0,0.0,-3.2663,-3.3172,-3.4495,-3.5525,-3.624,-3.5624,-3.5919,-3.6391,-3.4326,0.0,0.0,0.0,-3.5273,-3.5339,-3.4507,-3.4814,0.0,-3.4526,-3.5449,-3.706,-3.8477,-3.9039,-3.9508,-4.048,-4.1335,-4.2598,-4.5072,-4.5449,-4.5693,-4.7074,-4.6141,-4.479,-4.3831,-4.3007,-4.2307,-4.1937,-4.1393,-4.0456,-3.8911,-3.8772,-3.8243,-3.6712,-3.703,-3.7659,-3.8317,-3.8003,-3.7753,-3.7753,-3.5855,-3.5615,-3.7663,-3.5282,-3.4057,-3.4444,-3.3924,-3.3817,-3.4056,-3.4041,-3.4543,-3.5504,-3.5504,-3.5504,-3.5504,-3.5504,-3.5504,-3.5504,-3.5504,-3.5115,-3.4472,-3.4502,-3.4098,-3.3546,-3.4266,-3.5436,-3.6717,-3.6649,-3.6699,-3.672,0.0,0.0,0.0,0.0,0.0,0.0,0.0,0.0,0.0,0.0,0.0,0.0,0.0,0.0,0.0,0.0,0.0,0.0,0.0,0.0,0.0,0.0,0.0,0.0,0.0,0.0,0.0,0.0,0.0,0.0,0.0,0.0,0.0,0.0,0.0,0.0,0.0,0.0,-3.6381,-3.73,-3.748,-3.7961,-3.8339,-3.6859,-3.6451,-3.6466,0.0,0.0,0.0,0.0,-3.3813,-3.3187,-3.2492,-3.3297,-3.4658,-3.549,-3.597,-3.6491,-3.7675,-3.8294,-3.8851,-3.9922,-4.0907,-4.1996,-4.3376,-4.4233,-4.4604,-4.4345,-4.3393,-4.2159,-4.0613,-4.0098,-3.9565,-3.8588,-3.9059,-3.9023,-3.7488,-3.7301,-3.6987,-3.5949,-3.6402,-3.6881,-3.7105,-3.7797,-3.8191,-3.8191,-3.6957,-3.6321,-3.6576,-3.5147,-3.4231,-3.3896,-3.3675,-3.3718,-3.4027,-3.4027,-3.4476,-3.5504,-3.5504,-3.5504,-3.5504,-3.5504,-3.5504,-3.5504,-3.5504,-3.4876,-3.3858,-3.4292,-3.3574,-3.2287,-3.3391,-3.4493,-3.543,-3.5899,-3.6362,-3.6804,0.0,0.0,0.0,0.0,0.0,0.0,0.0,0.0,0.0,0.0,0.0,0.0,0.0,0.0,0.0,0.0,0.0,0.0,0.0,0.0,0.0,0.0,0.0,0.0,0.0,0.0,0.0,0.0,0.0,0.0,0.0,0.0,0.0,0.0,0.0,0.0,0.0,0.0,0.0,-3.8943,-3.83,-3.8219,-3.8282,-3.6537,-3.5855,0.0,0.0,0.0,0.0,0.0,-3.3657,-3.2978,-3.227,-3.2842,-3.4066,-3.5457,-3.5593,-3.5477,-3.6363,-3.696,-3.7551,-3.8433,-3.9783,-4.1105,-4.1925,-4.2793,-4.3278,-4.265,-4.1238,-3.9688,-3.8356,-3.7653,-3.6858,-3.5563,-3.6313,-3.6734,-3.572,-3.559,-3.5523,-3.5544,-3.5878,-3.6075,-3.5999,-3.6684,-3.7246,-3.7553,-3.6313,-3.5386,-3.4966,-3.3786,-3.2984,-3.2506,-3.2367,-3.2645,-3.3463,-3.3518,-3.4177,-3.5504,-3.5504,-3.5504,-3.5504,-3.5504,-3.5504,-3.5504,-3.5504,-3.4876,-3.3858,-3.4038,-3.338,-3.2287,-3.2916,-3.3934,-3.5012,-3.4959,-3.555,-3.6442,0.0,0.0,0.0,0.0,0.0,0.0,0.0,0.0,0.0,0.0,0.0,0.0,0.0,0.0,0.0,0.0,0.0,0.0,0.0,0.0,0.0,0.0,0.0,0.0,0.0,0.0,0.0,0.0,0.0,0.0,0.0,0.0,0.0,0.0,0.0,0.0,0.0,0.0,0.0,0.0,-3.7069,0.0,-3.6315,-3.4848,0.0,0.0,0.0,0.0,0.0,0.0,-3.4559,-3.441,-3.3579,-3.3352,-3.352,-3.4408,-3.4389,-3.416,-3.4605,-3.5163,-3.5691,-3.6214,-3.8018,-3.9926,-4.0752,-4.1332,-4.178,-4.1992,-3.965,-3.7432,-3.6887,-3.5638,-3.4317,-3.3063,-3.3432,-3.3846,-3.3793,-3.3733,-3.4127,-3.5265,-3.5359,-3.5222,-3.4932,-3.4836,-3.5109,-3.5727,-3.4011,-3.296,-3.2934,-3.1445,-3.057,-3.057,-3.0068,-3.0709,-3.2536,-3.2593,-3.3616,-3.5424,-3.5504,-3.5504,-3.5504,-3.5504,-3.5504,-3.5504,-3.5504,-3.51,-3.4382,-3.3754,-3.3455,-3.3321,-3.2778,-3.3723,-3.531,-3.4042,-3.442,-3.5646,0.0,0.0,0.0,0.0,0.0,0.0,0.0,0.0,0.0,0.0,0.0,0.0,0.0,0.0,0.0,0.0,0.0,0.0,0.0,0.0,0.0,0.0,0.0,0.0,0.0,0.0,0.0,0.0,0.0,0.0,0.0,0.0,0.0,0.0,0.0,0.0,0.0,0.0,0.0,0.0,0.0,-3.5915,-3.576,0.0,0.0,0.0,0.0,0.0,0.0,-3.2602,-3.2767,-3.2502,-3.2281,-3.2478,-3.3006,-3.4023,-3.4525,-3.4623,-3.4056,-3.4443,-3.5111,-3.5668,-3.6981,-3.8486,-3.9822,-4.0207,-4.0192,-3.9693,-3.6956,-3.4459,-3.3793,-3.3388,-3.3032,-3.2582,-3.3982,-3.5109,-3.5046,-3.4382,-3.4061,-3.4336,-3.3754,-3.3311,-3.3241,-3.2612,-3.2434,-3.2955,-3.2657,-3.218,-3.1655,-3.065,-2.9993,-2.9993,-2.9867,-3.0355,-3.1536,-3.2961,-3.3891,-3.4394,-3.5133,-3.5504,-3.5504,-3.5504,-3.5504,-3.5504,-3.5504,-3.4831,-3.3724,-3.3559,-3.2916,-3.2003,-3.1817,-3.24,-3.3335,-3.3482,-3.3434,-3.3533,0.0,0.0,0.0,0.0,0.0,0.0,0.0,0.0,0.0,0.0,0.0,0.0,0.0,0.0,0.0,0.0,0.0,0.0,0.0,0.0,0.0,0.0,0.0,0.0,0.0,0.0,0.0,0.0,0.0,0.0,0.0,0.0,0.0,0.0,0.0,0.0,0.0,0.0,0.0,0.0,0.0,0.0,0.0,0.0,0.0,0.0,0.0,0.0,0.0,-3.1862,-3.2111,-3.2452,-3.2625,-3.2877,-3.3227,-3.3857,-3.4118,-3.4062,-3.3321,-3.3547,-3.3972,-3.3794,-3.5237,-3.6791,-3.703,-3.7786,-3.8277,-3.7487,-3.4873,-3.2588,-3.218,-3.1676,-3.101,-3.0198,-3.1567,-3.2779,-3.2948,-3.2459,-3.2408,-3.3281,-3.289,-3.2464,-3.2033,-3.1689,-3.1481,-3.1371,-3.1254,-3.1086,-3.0932,-3.0202,-2.9792,-2.9792,-2.9792,-3.0279,-3.118,-3.3031,-3.4027,-3.4027,-3.4986,-3.5504,-3.5504,-3.5504,-3.5504,-3.5489,-3.519,-3.4622,-3.3873,-3.3305,-3.2632,-3.1943,-3.1586,-3.1943,-3.2527,-3.2602,-3.2735,-3.3096,0.0,0.0,0.0,0.0,0.0,0.0,0.0,0.0,0.0,0.0,0.0,0.0,0.0,0.0,0.0,0.0,0.0,0.0,0.0,0.0,0.0,0.0,0.0,0.0,0.0,0.0,0.0,0.0,0.0,0.0,0.0,0.0,0.0,0.0,0.0,0.0,0.0,0.0,0.0,0.0,0.0,0.0,0.0,0.0,0.0,0.0,0.0,0.0,0.0,0.0,-3.2309,-3.34,-3.3588,-3.3715,-3.3807,-3.3807,-3.355,-3.3184,-3.2648,-3.2669,-3.2603,-3.1759,-3.3416,-3.4998,-3.4051,-3.5273,-3.6429,-3.5559,-3.3363,-3.15,-3.1325,-3.0238,-2.8931,-2.7709,-2.8482,-2.9417,-3.0014,-2.9994,-3.0501,-3.2201,-3.215,-3.1669,-3.096,-3.1189,-3.1097,-3.0636,-2.9995,-2.9936,-3.0583,-3.0093,-2.9792,-2.9792,-2.9792,-3.0216,-3.1044,-3.2749,-3.3602,-3.3671,-3.4773,-3.5294,-3.5294,-3.5439,-3.5504,-3.5474,-3.4876,-3.4562,-3.4382,-3.3245,-3.2677,-3.2452,-3.1884,-3.1958,-3.2332,-3.1839,-3.2376,-3.3401,0.0,0.0,0.0,0.0,0.0,0.0,0.0,0.0,0.0,0.0,0.0,0.0,0.0,0.0,0.0,0.0,0.0,0.0,0.0,0.0,0.0,0.0,0.0,0.0,0.0,0.0,0.0,0.0,0.0,0.0,0.0,0.0,0.0,0.0,0.0,0.0,0.0,0.0,0.0,0.0,0.0,0.0,0.0,0.0,0.0,0.0,0.0,0.0,0.0,0.0,-3.3098,-3.3972,-3.3086,-3.3256,-3.3807,-3.3807,-3.3734,-3.3504,-3.2713,-3.2179,-3.1906,-3.2093,-3.2866,-3.3863,-3.4709,-3.5503,-3.5741,-3.4582,-3.269,-3.0969,-2.999,-2.8723,-2.8262,-2.9402,-2.9755,-3.0387,-3.1889,-3.1429,-3.1043,-3.1422,-2.9923,-2.8943,-2.9165,-2.8457,-2.8617,-3.0288,-2.9546,-2.9472,-3.0528,-3.0093,-2.9792,-2.9792,-2.9792,-2.9869,-3.0075,-3.1119,-3.1669,-3.1669,-3.3463,-3.4245,-3.4312,-3.5133,-3.5504,-3.5489,-3.5385,-3.4996,-3.4457,-3.4233,-3.3499,-3.2497,-3.2392,-3.2078,-3.1764,-3.2183,-3.2497,-3.2928,0.0,0.0,0.0,0.0,0.0,0.0,0.0,0.0,0.0,0.0,0.0,0.0,0.0,0.0,0.0,0.0,0.0,0.0,0.0,0.0,0.0,0.0,0.0,0.0,0.0,0.0,-2.9012,-2.9012,0.0,0.0,0.0,-2.8129,-2.8129,-2.8129,0.0,0.0,0.0,0.0,0.0,0.0,0.0,0.0,0.0,0.0,0.0,0.0,0.0,0.0,0.0,0.0,-3.3312,-3.4158,-3.3451,-3.3495,-3.3807,-3.3807,-3.3652,-3.3332,-3.2681,-3.2109,-3.1681,-3.1579,-3.2667,-3.3642,-3.3394,-3.4196,-3.453,-3.2835,-3.1275,-2.9875,-2.8591,-2.8122,-2.804,-2.8326,-2.91,-2.9912,-3.0573,-3.0836,-3.0933,-3.0933,-3.0223,-2.9569,-2.888,-2.9118,-2.938,-2.9606,-2.9685,-3.0121,-3.0997,-3.0231,-2.9792,-2.9792,-2.9792,-2.9792,-2.9792,-3.0771,-3.118,-3.1254,-3.2593,-3.3241,-3.331,-3.3754,-3.4259,-3.4677,-3.4354,-3.4371,-3.4442,-3.4098,-3.3589,-3.3021,-3.3021,-3.2826,-3.2601,-3.2879,-3.3249,-3.3783,0.0,0.0,0.0,0.0,0.0,0.0,0.0,0.0,0.0,0.0,0.0,0.0,0.0,0.0,0.0,0.0,0.0,0.0,0.0,0.0,0.0,0.0,0.0,0.0,0.0,0.0,0.0,-2.8479,-2.9057,0.0,0.0,0.0,0.0,0.0,-2.7487,-2.7299,-2.7391,0.0,0.0,0.0,0.0,-2.6559,0.0,0.0,0.0,0.0,0.0,0.0,0.0,0.0,-3.3123,-3.3872,-3.3459,-3.3486,-3.3671,-3.3751,-3.3412,-3.2973,-3.251,-3.1944,-3.1363,-3.1072,-3.2281,-3.3274,-3.2152,-3.2954,-3.3339,-3.1392,-3.0107,-2.8967,-2.7806,-2.7504,-2.7382,-2.7128,-2.7949,-2.8754,-2.9227,-3.0156,-3.0741,-3.0518,-3.0713,-3.0313,-2.9056,-2.9822,-3.0085,-2.932,-3.0052,-3.0733,-3.1035,-3.0244,-2.9792,-2.9792,-2.9792,-2.9792,-2.9792,-3.0558,-3.0895,-3.0895,-3.1815,-3.2321,-3.2321,-3.2536,-3.3101,-3.3998,-3.3523,-3.3798,-3.4651,-3.4143,-3.3844,-3.3709,-3.3863,-3.3834,-3.3774,-3.3908,-3.4469,-3.5162,0.0,0.0,0.0,0.0,0.0,0.0,0.0,0.0,0.0,0.0,0.0,0.0,0.0,0.0,0.0,0.0,0.0,0.0,0.0,0.0,0.0,0.0,0.0,0.0,0.0,0.0,0.0,-2.8414,-2.954,0.0,0.0,0.0,0.0,0.0,0.0,-2.7511,-2.7085,-2.6493,0.0,0.0,0.0,0.0,0.0,0.0,0.0,0.0,0.0,-3.1509,-3.174,-3.2315,-3.257,-3.2537,-3.1969,-3.2474,-3.331,-3.355,-3.3161,-3.2582,-3.223,-3.1222,-3.0416,-3.1155,-3.1437,-3.1734,-3.2638,-3.2864,-3.2507,-3.1257,-2.9895,-2.8759,-2.8248,-2.6311,-2.5524,-2.7889,-2.7085,-2.7113,-2.9999,-3.0947,-3.1063,-3.031,-2.9549,-2.9037,-2.9138,-2.8021,-2.8131,-3.0123,-3.047,-3.0419,-2.9967,-2.9842,-2.9792,-2.9792,-2.9792,-2.9792,-2.9792,-2.9869,-2.9934,-2.9934,-3.0908,-3.1315,-3.1389,-3.2249,-3.3101,-3.4027,-3.3969,-3.4455,-3.54,-3.534,-3.4951,-3.4508,-3.517,-3.51,-3.4674,-3.534,-3.6011,-3.6584,0.0,0.0,0.0,0.0,0.0,0.0,0.0,0.0,0.0,0.0,0.0,0.0,0.0,0.0,0.0,0.0,0.0,0.0,0.0,0.0,0.0,0.0,0.0,0.0,0.0,0.0,-2.8066,-2.8032,-2.9008,0.0,0.0,0.0,0.0,0.0,0.0,-2.8146,-2.8316,-2.734,0.0,0.0,0.0,0.0,0.0,0.0,0.0,0.0,0.0,0.0,-3.2559,-3.2515,-3.2681,-3.2727,-3.1543,-3.147,-3.188,-3.2314,-3.2077,-3.1708,-3.1981,-3.1482,-3.1115,-3.2137,-3.2361,-3.242,-3.2745,-3.2586,-3.1902,-3.0219,-2.9124,-2.801,-2.64,-2.5458,-2.5274,-2.6193,-2.6311,-2.7085,-2.9262,-2.9751,-3.0272,-3.1295,-3.0811,-3.0108,-2.9487,-3.0143,-3.062,-3.0548,-3.0294,-3.003,-2.9804,-2.9792,-2.9792,-2.9792,-2.9792,-2.9792,-2.9792,-2.9792,-2.9792,-2.9792,-3.0216,-3.0343,-3.0419,-3.1328,-3.2249,-3.3171,-3.3739,-3.4543,-3.5504,-3.5504,-3.5616,-3.5814,-3.6091,-3.6341,-3.6584,-3.688,-3.6921,-3.6867,0.0,0.0,0.0,0.0,0.0,0.0,0.0,0.0,0.0,0.0,0.0,0.0,0.0,0.0,0.0,0.0,0.0,0.0,0.0,0.0,0.0,0.0,0.0,0.0,0.0,0.0,-2.8281,-2.8501,-2.8878,-2.9156,0.0,0.0,-2.901,-2.8793,0.0,0.0,0.0,0.0,0.0,0.0,0.0,0.0,0.0,0.0,0.0,0.0,0.0,0.0,0.0,0.0,0.0,-3.2278,-3.0881,0.0,0.0,-3.1099,-3.0986,-3.0706,-3.1417,-3.1213,-3.1177,-3.255,-3.2729,-3.2646,-3.2661,-3.1974,-3.0882,-2.9169,-2.8135,-2.7032,-2.5574,-2.538,-2.5558,0.0,0.0,-2.7472,-2.9162,-2.9309,-2.9702,-3.0955,-3.087,-3.0224,-2.9238,-3.1139,-3.1895,-3.0437,-3.0173,-2.9967,-2.9804,-2.9792,-2.9792,-2.9792,-2.9792,-2.9792,-2.9792,-2.9792,-2.9792,-2.9792,-2.9792,-2.9934,-3.0203,-3.0895,-3.1888,-3.3031,-3.3739,-3.4543,-3.5504,-3.5733,-3.6102,-3.6661,-3.7128,-3.76,-3.8109,-3.7904,-3.7541,-3.7197,0.0,0.0,0.0,0.0,0.0,0.0,0.0,0.0,0.0,0.0,0.0,0.0,0.0,0.0,0.0,0.0,0.0,0.0,0.0,0.0,0.0,0.0,0.0,0.0,0.0,0.0,0.0,-3.0091,-2.9503,-2.9568,-3.0276,-2.9701,-2.9006,-2.8291,0.0,0.0,0.0,0.0,0.0,0.0,0.0,0.0,0.0,0.0,0.0,0.0,0.0,0.0,0.0,0.0,0.0,0.0,0.0,0.0,0.0,0.0,-3.0022,-2.9673,-3.0425,-3.0158,-3.0076,-3.2101,-3.2047,-3.1709,-3.2344,-3.0908,-2.9187,-2.8389,-2.6987,-2.6064,-2.6579,-2.6183,-2.6275,-2.7838,0.0,0.0,-3.0273,-3.0126,-2.9515,-2.8701,-2.8779,-2.8719,-2.8263,-2.9953,-3.0596,-2.964,-3.0225,-3.0369,-2.9829,-2.9792,-2.9792,-2.9792,-2.9792,-2.9792,-2.9792,-2.9792,-2.9792,-2.9792,-2.9792,-3.0279,-3.118,-3.118,-3.2249,-3.4027,-3.4027,-3.4543,-3.5554,-3.6275,-3.66,-3.6783,-3.827,-3.8854,-3.8826,-3.8203,-3.8008,-3.7788,0.0,0.0,0.0,0.0,0.0,0.0,0.0,0.0,0.0,0.0,0.0,0.0,0.0,0.0,0.0,0.0,0.0,0.0,0.0,0.0,0.0,0.0,0.0,0.0,0.0,0.0,0.0,0.0,0.0,-2.9447,-2.9673,-2.9496,-2.9294,-2.907,-2.907,-2.907,0.0,0.0,0.0,0.0,0.0,0.0,-3.3157,0.0,0.0,0.0,0.0,0.0,0.0,0.0,0.0,0.0,0.0,0.0,0.0,0.0,0.0,-2.9025,-2.9728,-3.0053,-3.05,-3.1563,-3.1625,-3.1336,-3.1183,-3.0149,-2.8904,-2.7817,-2.6982,-2.6283,-2.5855,-2.5779,-2.6067,-2.6904,-2.7296,0.0,-2.8754,-2.8596,-2.8581,-2.9071,-2.9325,-2.9915,-3.1115,-3.0341,-3.0055,-3.0778,-3.0655,-3.0382,-2.9829,-2.9792,-2.9792,-2.9792,-2.9792,-2.9792,-2.9792,-2.9792,-2.9792,-2.9792,-3.0419,-3.0895,-3.1254,-3.2522,-3.3449,-3.4027,-3.4758,-3.5479,-3.6275,-3.6492,-3.7247,-3.8165,-3.815,-3.8479,-3.8841,-3.765,-3.6851,-3.637,0.0,0.0,0.0,0.0,0.0,0.0,0.0,0.0,0.0,0.0,0.0,0.0,0.0,0.0,0.0,0.0,0.0,0.0,0.0,0.0,0.0,0.0,0.0,0.0,0.0,0.0,0.0,0.0,0.0,0.0,-2.9437,-2.9485,-2.9288,-2.8996,-2.8996,-2.8817,0.0,0.0,0.0,0.0,0.0,0.0,-3.3365,0.0,0.0,0.0,0.0,0.0,0.0,0.0,0.0,0.0,0.0,0.0,0.0,0.0,-2.7654,-2.8353,-2.9026,-2.9635,-3.0367,-3.1261,-3.1239,-3.0878,-3.0497,-2.9339,-2.7977,-2.681,-2.6083,-2.5569,-2.4997,-2.5589,-2.628,-2.6804,-2.7353,-2.7877,-2.831,-2.7669,-2.7499,-2.856,-2.9116,-2.9904,-3.1228,-3.0836,-3.0574,-3.0719,-3.0829,-3.0583,-2.9829,-2.9792,-2.9792,-2.9792,-2.9792,-2.9792,-2.9792,-2.9792,-3.0011,-3.0355,-3.0895,-3.1609,-3.2321,-3.3449,-3.4177,-3.461,-3.5213,-3.5782,0.0,-3.6798,-3.76,-3.846,-3.8308,-3.8539,-3.8754,-3.6734,-3.5703,-3.5242,0.0,0.0,0.0,0.0,0.0,0.0,0.0,0.0,0.0,0.0,0.0,0.0,0.0,0.0,0.0,0.0,0.0,0.0,0.0,0.0,0.0,0.0,0.0,0.0,0.0,0.0,0.0,-2.9255,-2.9323,-2.9319,-2.9285,0.0,-2.8972,-2.8211,-2.8211,-2.778,0.0,0.0,0.0,0.0,0.0,0.0,0.0,0.0,0.0,0.0,0.0,0.0,0.0,0.0,0.0,0.0,0.0,0.0,0.0,0.0,0.0,0.0,0.0,-2.9083,-2.9855,-3.1102,-3.0958,-3.0466,-3.0204,-2.856,0.0,-2.5548,-2.4687,-2.4155,-2.4161,-2.5419,-2.6617,-2.7073,-2.7672,-2.8113,-2.8469,-2.7108,-2.6412,-2.7284,-2.8362,-2.9095,-2.9209,-3.1252,-3.175,-2.9893,-3.082,-3.0952,-2.9907,-2.9934,-2.9934,-2.9934,-2.9869,-2.9792,-2.9792,-2.9869,-3.0343,-3.118,-3.1315,-3.2321,-3.4027,-3.4095,-3.461,-3.5504,-3.5554,-3.5619,-3.5797,-3.7294,-3.7889,-3.7947,-3.8638,-3.8886,-3.8437,-3.5665,-3.4574,-3.4282,0.0,0.0,0.0,0.0,0.0,0.0,0.0,0.0,0.0,0.0,0.0,0.0,0.0,0.0,0.0,0.0,0.0,0.0,0.0,0.0,0.0,0.0,0.0,0.0,0.0,0.0,0.0,-2.7856,-2.7839,-2.7552,-2.6946,-2.7398,0.0,0.0,0.0,0.0,0.0,0.0,0.0,0.0,0.0,0.0,0.0,0.0,0.0,0.0,-3.2062,-3.1171,0.0,0.0,0.0,0.0,0.0,0.0,0.0,0.0,-2.7034,-2.7755,-2.8339,0.0,-3.0338,-3.0607,-3.1318,-3.1499,0.0,-2.8367,-2.6918,-2.557,-2.4457,-2.3756,-2.4153,-2.481,-2.554,-2.595,-2.646,-2.6723,-2.6281,-2.628,-2.6497,-2.7032,-2.845,-2.9349,-2.9346,-3.0615,-3.1309,-3.098,-3.1506,-3.1563,-3.0947,-3.0908,-3.0908,-3.0908,-3.0139,-2.9792,-2.9792,-3.0482,-3.097,-3.1254,-3.2664,-3.3602,-3.4027,-3.4773,-3.5279,-3.5504,-3.6117,-3.6692,-3.7354,-3.8246,-3.8665,-3.8672,-3.8284,-3.7465,-3.6241,-3.4519,-3.3541,-3.2952,0.0,0.0,0.0,0.0,0.0,0.0,0.0,0.0,0.0,0.0,0.0,0.0,0.0,0.0,0.0,0.0,0.0,0.0,0.0,0.0,0.0,0.0,0.0,0.0,0.0,0.0,0.0,0.0,0.0,-2.7043,0.0,0.0,0.0,0.0,0.0,0.0,0.0,0.0,0.0,0.0,-3.1319,0.0,0.0,0.0,0.0,0.0,-3.1143,-3.0373,0.0,-2.8495,-2.7767,-2.7065,0.0,0.0,0.0,0.0,-2.6939,-2.771,-2.8334,-2.9045,-2.9642,-2.9874,-3.0212,-3.0149,-2.8897,0.0,-2.6078,-2.4743,-2.358,-2.2843,-2.3097,-2.381,-2.4505,-2.512,-2.5652,-2.5786,-2.5339,-2.5545,-2.6202,-2.7402,-2.8848,-2.9858,-3.0136,-3.1616,-3.2378,-3.1701,-3.2286,-3.2435,-3.1842,-3.1462,-3.118,-3.118,-3.0279,-2.9792,-2.9792,-3.0771,-3.1389,-3.1888,-3.331,-3.4245,-3.4691,-3.5279,-3.5504,-3.5569,-3.6275,-3.6687,-3.6837,-3.8323,-3.8725,-3.8405,-3.8031,-3.7427,-3.6455,-3.4376,-3.3391,-3.2933,0.0,0.0,0.0,0.0,0.0,0.0,0.0,0.0,0.0,0.0,0.0,0.0,0.0,0.0,0.0,0.0,0.0,0.0,0.0,0.0,0.0,0.0,0.0,0.0,0.0,0.0,0.0,0.0,0.0,0.0,0.0,0.0,-2.9566,0.0,0.0,0.0,0.0,0.0,0.0,-3.1351,-3.1351,0.0,0.0,0.0,0.0,0.0,0.0,0.0,0.0,-2.7621,-2.6714,-2.6156,-2.6077,0.0,0.0,0.0,0.0,0.0,-2.835,-2.8508,-2.8618,-2.9138,-2.887,-2.8361,-2.7883,0.0,0.0,0.0,-2.285,-2.2168,-2.1955,-2.2727,-2.3717,-2.4397,-2.4912,-2.5317,-2.5501,-2.5441,-2.6174,-2.8157,-2.9487,-3.0468,-3.1092,-3.2992,-3.3607,-3.2415,-3.311,-3.329,-3.2847,-3.2033,-3.1536,-3.1389,-3.0633,-3.0152,-2.9998,-3.097,-3.1888,-3.282,-3.3808,-3.4691,-3.5504,-3.5504,-3.5554,-3.5733,-3.6461,0.0,-3.6135,-3.8095,-3.8573,-3.7961,-3.7917,-3.7773,-3.7263,-3.4935,-3.3877,-3.3547,0.0,0.0,0.0,0.0,0.0,0.0,0.0,0.0,0.0,0.0,0.0,0.0,0.0,0.0,0.0,0.0,0.0,0.0,0.0,0.0,0.0,0.0,0.0,0.0,0.0,0.0,0.0,0.0,0.0,0.0,-2.6281,-2.7504,-2.8427,-2.9002,0.0,-2.9504,-3.0329,-3.0329,-3.0389,-3.0464,-3.0464,0.0,0.0,0.0,0.0,0.0,0.0,0.0,0.0,-2.8184,-2.7524,-2.7315,-2.6892,0.0,0.0,0.0,0.0,0.0,-2.8488,-2.8519,-2.8553,-2.8571,-2.9275,-2.9457,-2.7516,-2.6582,0.0,0.0,-2.3368,-2.3005,-2.2036,-2.2646,-2.3309,-2.3325,-2.4058,-2.5165,-2.6982,-2.7107,-2.761,-2.9035,-2.977,-3.0679,-3.1913,-3.2249,-3.2821,-3.395,-3.3973,-3.3839,-3.3808,-3.3671,-3.3241,-3.2393,-3.2249,-3.1756,-3.097,-3.1888,-3.289,-3.3808,-3.4758,-3.5359,-3.5504,-3.5504,-3.5831,-3.6508,0.0,-3.7898,-3.8423,-3.8805,-3.8924,-3.8739,-3.8145,-3.7131,-3.6059,-3.6256,-3.5161,-3.3781,0.0,0.0,0.0,0.0,0.0,0.0,0.0,0.0,0.0,0.0,0.0,0.0,0.0,0.0,0.0,0.0,0.0,0.0,0.0,0.0,0.0,0.0,0.0,0.0,0.0,0.0,0.0,0.0,0.0,-2.5584,-2.6158,-2.8187,-2.9566,-3.0329,0.0,-3.0329,-3.0329,-3.0329,-3.0011,-2.9566,0.0,0.0,0.0,0.0,0.0,0.0,0.0,0.0,0.0,0.0,-2.7351,-2.7696,-2.7419,0.0,0.0,0.0,0.0,0.0,-2.8546,-2.8324,-2.7854,-2.6963,-2.7924,-2.8587,-2.6743,-2.5924,-2.5368,-2.4469,-2.3891,-2.353,-2.3583,-2.3423,-2.3392,-2.3782,-2.4396,-2.5349,-2.6658,-2.6843,-2.758,-2.9438,-3.0349,-3.1369,-3.2933,-3.4008,-3.4618,-3.4693,-3.5099,-3.5207,-3.4854,-3.4312,-3.3808,-3.338,-3.289,-3.2664,-3.2749,-3.3171,-3.3602,-3.4027,-3.4986,-3.5733,-3.6117,-3.6117,-3.6523,-3.7263,0.0,-3.8368,-3.8348,-3.9261,-3.9343,-3.8954,-3.8633,-3.8098,-3.7452,-3.6986,-3.5907,-3.487,0.0,0.0,0.0,0.0,0.0,0.0,0.0,0.0,0.0,0.0,0.0,0.0,0.0,0.0,0.0,0.0,0.0,0.0,0.0,0.0,0.0,0.0,0.0,0.0,0.0,0.0,-2.5355,-2.5324,-2.5166,-2.579,-2.7162,-2.966,-3.0999,0.0,0.0,-3.0777,-3.0011,-3.0011,-2.9588,-2.8876,0.0,0.0,0.0,0.0,0.0,0.0,0.0,0.0,0.0,0.0,0.0,0.0,0.0,0.0,0.0,-2.9464,-2.9142,-2.8607,-2.8607,-2.8218,-2.7498,-2.6042,-2.6602,-2.723,-2.5936,-2.5353,-2.5143,-2.5052,-2.4657,-2.4482,-2.4914,-2.4462,-2.4231,-2.4905,-2.556,-2.6213,-2.6842,-2.7119,-2.8138,-3.0479,-3.1198,-3.2382,-3.4498,-3.5869,-3.6303,-3.563,-3.6117,-3.6207,-3.5549,-3.4758,-3.4245,-3.4027,-3.3533,-3.3533,-3.4027,-3.4403,-3.4603,-3.4603,-3.5415,-3.6054,-3.6615,-3.6615,-3.6904,-3.7573,-3.8302,-3.8433,-3.8134,-3.9362,-3.9597,-3.9225,-3.9056,-3.9106,-3.9074,-3.7586,-3.6688,-3.6307,0.0,0.0,0.0,0.0,0.0,0.0,0.0,0.0,0.0,0.0,0.0,0.0,0.0,0.0,0.0,0.0,0.0,0.0,0.0,0.0,0.0,0.0,0.0,0.0,0.0,-2.5783,-2.5279,-2.5144,-2.5717,-2.7346,-3.0004,-3.1675,-3.1721,-3.0389,0.0,-2.9889,-2.9066,-2.9066,-2.8855,-2.8556,-2.8556,0.0,0.0,0.0,0.0,0.0,0.0,0.0,0.0,0.0,0.0,0.0,0.0,0.0,-2.8626,-3.0033,-2.954,-2.8607,-2.8607,-2.8562,-2.8211,-2.6761,-2.6371,-2.609,-2.5128,-2.5247,-2.545,-2.5051,-2.6054,-2.6638,-2.529,-2.5675,-2.6396,-2.6816,-2.7345,-2.8057,-2.9218,-2.9341,-3.0396,-3.3206,-3.2685,-3.3522,-3.7192,-3.6603,-3.6385,-3.7193,-3.6806,-3.6207,-3.5549,-3.5424,-3.4986,-3.4027,-3.4839,-3.4854,-3.4027,-3.5567,-3.6415,-3.6415,-3.6492,-3.6554,-3.6615,-3.6615,-3.66,-3.6722,-3.7515,-3.823,-3.8846,-3.8992,-3.9445,-3.9935,-3.9259,-3.9411,-3.9834,-3.8364,-3.7807,-3.7826,0.0,0.0,0.0,0.0,0.0,0.0,0.0,0.0,0.0,0.0,0.0,0.0,0.0,0.0,0.0,0.0,0.0,0.0,0.0,0.0,0.0,0.0,0.0,-2.7351,-2.7713,-2.621,-2.5564,-2.5967,-2.7484,-2.9116,-3.0954,-3.1531,0.0,0.0,0.0,-2.9002,-2.8182,-2.8182,-2.7855,-2.728,-2.728,-2.728,0.0,0.0,0.0,0.0,0.0,0.0,0.0,0.0,-2.7343,0.0,0.0,0.0,-2.9773,-3.0321,-3.0163,-2.9609,-2.8816,-2.9175,-2.9253,-2.7031,-2.7026,0.0,-2.5384,-2.5268,-2.5494,-2.4969,-2.6139,-2.71,-2.6553,-2.7232,-2.7739,-2.7166,-2.8117,-2.9145,-2.9569,-3.0807,-3.223,-3.3607,-3.4621,-3.585,-3.7638,-3.7638,-3.7475,-3.7434,-3.6836,-3.6207,-3.5549,-3.5504,-3.5359,-3.492,-3.5294,-3.5509,-3.5646,-3.6276,-3.7068,-3.8044,-3.7068,-3.6843,-3.7322,-3.6406,-3.6263,-3.6717,-3.7077,-3.7359,-3.7605,-3.8074,-3.8417,-3.8685,-3.8924,-3.9157,-3.9394,-3.9292,-3.8971,-3.8684,0.0,0.0,0.0,0.0,0.0,0.0,0.0,0.0,0.0,0.0,0.0,0.0,0.0,0.0,0.0,0.0,0.0,0.0,0.0,0.0,0.0,0.0,0.0,-2.7981,-2.8829,-2.6794,-2.5936,-2.642,-2.8651,-3.0158,-3.0959,0.0,0.0,0.0,-2.8061,-2.7379,-2.6854,-2.6854,-2.6777,-2.6716,-2.6716,-2.6716,0.0,0.0,0.0,0.0,0.0,0.0,0.0,0.0,0.0,0.0,0.0,0.0,0.0,0.0,-3.0073,-2.9759,-2.9101,-2.94,-2.9516,-2.7876,0.0,-2.7769,-2.6438,-2.6131,-2.6078,-2.6129,-2.7092,-2.7927,-2.7782,-2.8536,-2.8967,-2.849,-2.9661,-3.0733,-3.0848,-3.2528,-3.4039,-3.473,-3.6104,-3.7287,-3.7958,-3.8275,-3.8033,-3.718,-3.6731,-3.6207,-3.5549,-3.5504,-3.5504,-3.5504,-3.5504,-3.5831,-3.66,-3.6843,-3.7658,-3.8908,-3.7361,-3.6932,-3.747,-3.6385,-3.5848,-3.5791,-3.6226,-3.6324,-3.619,-3.6891,-3.7281,-3.756,-3.807,-3.8469,-3.87,-3.9208,-3.9089,-3.8751,0.0,0.0,0.0,0.0,0.0,0.0,0.0,0.0,0.0,0.0,0.0,0.0,0.0,0.0,0.0,0.0,0.0,0.0,0.0,0.0,0.0,0.0,0.0,-2.8197,-2.9586,-2.7587,-2.6434,-2.6238,-2.8937,-3.0242,-3.016,-2.9886,0.0,0.0,0.0,-2.4874,-2.5004,-2.5004,-2.5898,-2.7268,-2.7268,-2.7268,-2.7468,0.0,0.0,0.0,0.0,0.0,0.0,0.0,0.0,0.0,0.0,0.0,0.0,0.0,-2.9131,-2.8771,-2.94,-2.9116,-2.8786,-2.943,-2.8571,-2.7689,-2.828,-2.778,-2.7538,-2.874,-2.9161,-2.9269,-2.8962,-2.939,-3.0139,-3.1044,-3.2246,-3.3175,-3.3514,-3.463,-3.5801,-3.6878,-3.704,-3.7332,-3.8307,-3.8377,-3.7853,-3.6582,-3.6477,-3.6193,-3.5534,-3.5504,-3.5504,-3.5504,-3.5504,-3.5894,-3.66,-3.7397,-3.8149,-3.8891,-3.7446,-3.6774,-3.6806,-3.662,-3.5447,-3.3576,-3.494,-3.522,-3.4747,-3.5458,-3.6182,-3.6752,-3.6768,-3.7236,-3.7889,-3.7905,-3.7905,-3.8024,0.0,0.0,0.0,0.0,0.0,0.0,0.0,0.0,0.0,0.0,0.0,0.0,0.0,0.0,0.0,0.0,0.0,0.0,0.0,0.0,0.0,0.0,0.0,0.0,0.0,0.0,-2.7432,-2.7842,-2.9029,-2.9485,0.0,0.0,0.0,-2.5235,0.0,-2.4302,-2.5004,-2.5004,-2.5679,-2.6703,-2.6703,-2.6703,-2.6829,0.0,0.0,0.0,0.0,0.0,0.0,0.0,0.0,0.0,0.0,0.0,0.0,0.0,-2.9729,-3.0402,-2.9205,-3.0088,-3.1076,-2.9879,-3.0294,-3.0834,-3.0021,-2.8498,-2.7234,-2.7377,-2.7841,-2.8213,-2.8306,-2.9382,-3.0464,-3.1114,-3.2401,-3.3342,-3.3445,-3.4801,-3.5852,-3.6158,-3.6819,-3.7411,-3.7704,-3.73,-3.6896,-3.6507,-3.6058,-3.5944,-3.6228,-3.6275,-3.6523,-3.7115,-3.7131,-3.7456,-3.8213,-3.7905,-3.7963,-3.8253,-3.6717,-3.6263,-3.6742,-3.4657,-3.3397,-3.2811,-3.3231,-3.332,-3.3197,-3.3913,-3.4032,-3.3971,-3.5448,-3.5844,-3.5852,-3.734,-3.7905,-3.8024,0.0,0.0,0.0,0.0,0.0,0.0,0.0,0.0,0.0,0.0,0.0,0.0,0.0,0.0,0.0,0.0,0.0,0.0,0.0,0.0,0.0,0.0,0.0,0.0,0.0,-2.7693,-2.7693,0.0,0.0,0.0,0.0,0.0,0.0,-2.3693,0.0,-2.3441,-2.4409,-2.4862,-2.5581,-2.6533,-2.6533,-2.6533,-2.6658,0.0,0.0,0.0,0.0,0.0,0.0,0.0,0.0,0.0,0.0,0.0,0.0,-2.9546,-3.0205,-3.0989,-3.0345,-3.1559,-3.2777,-3.1836,-3.2314,-3.2542,-3.0921,-2.9717,-2.8675,-2.7927,-2.8184,-2.8579,-2.8428,-2.9044,-3.0126,-3.17,-3.2616,-3.3545,-3.4512,-3.5681,-3.6541,-3.6541,-3.6837,-3.7045,-3.7045,-3.6462,-3.6088,-3.6088,-3.6008,-3.6102,-3.6554,-3.6904,-3.7279,-3.7748,-3.7822,-3.7906,-3.8084,-3.7601,-3.7318,-3.711,-3.56,-3.5117,-3.5498,-3.3678,-3.2617,-3.2123,-3.2123,-3.2123,-3.2123,-3.2528,-3.2679,-3.2697,-3.4005,-3.4527,-3.4804,-3.6117,-3.6973,-3.7533,0.0,0.0,0.0,0.0,0.0,0.0,0.0,0.0,0.0,0.0,0.0,0.0,0.0,0.0,0.0,0.0,0.0,0.0,0.0,0.0,0.0,0.0,0.0,0.0,0.0,0.0,0.0,0.0,0.0,0.0,0.0,0.0,-2.3693,-2.1886,0.0,-2.2553,-2.3599,-2.4564,-2.5581,-2.6533,-2.6533,-2.6496,-2.6569,-2.8153,0.0,0.0,0.0,0.0,0.0,0.0,0.0,0.0,0.0,0.0,-2.9984,-3.0469,-3.0756,-3.1127,-3.2363,-3.3235,-3.3941,-3.4611,-3.4194,-3.3128,-3.1232,-3.1073,-3.0906,-2.9334,-2.9502,-2.9643,-2.8732,-2.8477,-2.9349,-3.2203,-3.2609,-3.3394,-3.5755,-3.6552,-3.6894,-3.706,-3.6485,-3.6141,-3.6207,-3.5729,-3.5415,-3.5415,-3.6134,-3.66,-3.6737,-3.7456,-3.7921,-3.7978,-3.7873,-3.752,-3.6901,-3.6726,-3.627,-3.5566,-3.425,-3.3547,-3.3516,-3.3365,-3.2662,-3.1482,-3.1482,-3.1482,-3.1482,-3.1482,-3.1864,-3.24,-3.2571,-3.3308,-3.4332,-3.4559,-3.5438,-3.6624,0.0,0.0,0.0,0.0,0.0,0.0,0.0,0.0,0.0,0.0,0.0,0.0,0.0,0.0,0.0,0.0,0.0,0.0,0.0,0.0,0.0,0.0,0.0,0.0,0.0,0.0,0.0,0.0,0.0,0.0,0.0,0.0,0.0,-2.0934,0.0,-2.2553,-2.3599,-2.4564,-2.5581,-2.6533,-2.6533,-2.6189,-2.5908,-2.683,-2.7647,0.0,0.0,0.0,0.0,0.0,0.0,0.0,-3.0717,-3.1137,-3.179,-3.0887,-3.1719,-3.3013,-3.3345,-3.3973,-3.4643,-3.5385,-3.4244,-3.2786,-3.2253,-3.1043,-2.9436,-2.7509,-2.7952,-2.8234,-2.676,-2.7444,-2.8575,-2.951,-3.0211,-3.1232,-3.2883,-3.2663,-3.2881,-3.4196,-3.3603,-3.3372,-3.4065,-3.4472,-3.4696,-3.4696,-3.5921,-3.6843,-3.7515,-3.8246,-3.8924,-3.9575,-3.852,-3.7892,-3.7728,-3.5999,-3.482,-3.4116,-3.3215,-3.2506,-3.195,-3.1942,-3.1735,-3.1482,-3.1482,-3.1482,-3.1482,-3.1482,-3.1252,-3.1041,-3.2167,-3.246,-3.2455,-3.4023,-3.4787,-3.5226,0.0,0.0,0.0,0.0,0.0,0.0,0.0,0.0,0.0,0.0,0.0,0.0,0.0,0.0,0.0,0.0,0.0,0.0,0.0,0.0,0.0,0.0,0.0,0.0,0.0,0.0,0.0,0.0,0.0,0.0,0.0,0.0,0.0,-2.2048,0.0,-2.3745,-2.4241,-2.5011,-2.5617,-2.6025,-2.5774,-2.5737,-2.5807,-2.6605,-2.7467,-2.8375,-2.9508,0.0,0.0,0.0,0.0,0.0,0.0,0.0,-3.202,-3.1636,-3.251,-3.3665,-3.4018,-3.5119,-3.6322,-3.6701,-3.5453,-3.3814,-3.2451,-3.0806,-2.9083,-2.7365,-2.7774,-2.8103,-2.6868,-2.6955,-2.7514,-2.8379,-2.8583,-2.9187,-3.063,-3.0459,-3.0651,-3.1894,-3.1635,-3.1751,-3.293,-3.3619,-3.4299,-3.4957,-3.6038,-3.7007,-3.776,-3.8206,-3.8454,-3.8539,-3.7799,-3.6954,-3.5975,-3.4801,-3.3512,-3.2176,-3.2043,-3.1869,-3.1482,-3.1482,-3.1482,-3.1482,-3.1482,-3.1482,-3.1482,-3.1482,-3.1315,-3.1087,-3.2189,-3.2569,-3.2692,-3.3742,-3.4544,-3.5148,0.0,0.0,0.0,0.0,0.0,0.0,0.0,0.0,0.0,0.0,0.0,0.0,0.0,0.0,0.0,0.0,0.0,0.0,0.0,0.0,0.0,0.0,0.0,0.0,0.0,0.0,0.0,0.0,0.0,0.0,0.0,0.0,0.0,-2.3514,0.0,-2.5004,-2.5052,-2.5419,-2.5598,-2.5548,-2.5034,-2.5167,-2.5823,-2.6671,-2.7523,-2.8367,-2.9811,-3.0417,-3.0612,-3.1243,0.0,0.0,0.0,0.0,-3.205,-3.2684,-3.3371,-3.406,-3.4695,-3.6451,-3.8041,-3.777,-3.6653,-3.4904,-3.2208,-3.0448,-2.9056,-2.7829,-2.8023,-2.8136,-2.7288,-2.654,-2.6373,-2.7385,-2.6988,-2.709,-2.8539,-2.8747,-2.9058,-2.9937,-3.0158,-3.0747,-3.2049,-3.2976,-3.3985,-3.5146,-3.614,-3.6961,-3.7567,-3.7786,-3.7614,-3.702,-3.6618,-3.5639,-3.3912,-3.3525,-3.2344,-3.0507,-3.0971,-3.1195,-3.1195,-3.1195,-3.1315,-3.1467,-3.13,-3.1255,-3.136,-3.136,-3.136,-3.1417,-3.2114,-3.2734,-3.3287,-3.3479,-3.4301,-3.5207,0.0,0.0,0.0,0.0,0.0,0.0,0.0,0.0,0.0,0.0,0.0,0.0,0.0,0.0,0.0,0.0,0.0,0.0,-2.3065,0.0,0.0,-2.5573,-2.6151,0.0,0.0,0.0,0.0,0.0,0.0,0.0,-2.7324,-2.5755,0.0,-2.3514,0.0,-2.5004,-2.5052,-2.5419,-2.5598,-2.5548,-2.5034,-2.4937,-2.5255,-2.6072,-2.6877,-2.7773,-2.9228,-3.0058,-3.0612,-3.1243,-3.1482,0.0,0.0,0.0,-3.3454,-3.4137,-3.4808,-3.5515,-3.6282,-3.7635,-3.8548,-3.7246,-3.5943,-3.4346,-3.2096,-3.0126,-2.8517,-2.779,-2.7685,-2.7321,-2.5909,-2.5578,-2.529,-2.47,-2.4505,-2.4934,-2.6339,-2.6454,-2.6918,-2.8469,-2.9102,-2.9784,-3.0705,-3.2414,-3.3563,-3.3754,-3.5562,-3.6744,-3.6847,-3.7501,-3.7841,-3.7745,-3.5971,-3.4856,-3.4548,-3.2742,-3.1384,-3.0492,-3.0058,-2.9849,-2.9849,-2.9849,-3.0462,-3.1407,-3.0328,-3.0148,-3.0642,-3.0642,-3.0642,-3.0702,-3.1399,-3.1682,-3.1951,-3.3182,-3.3684,-3.4037,0.0,0.0,0.0,0.0,0.0,0.0,0.0,0.0,0.0,0.0,0.0,0.0,0.0,0.0,0.0,-2.0526,-2.1428,-2.2515,-2.3979,-2.4544,-2.5197,-2.605,-2.6395,-2.704,0.0,0.0,0.0,0.0,0.0,0.0,-2.7826,-2.6956,-2.6032,-2.5205,-2.5652,-2.5873,-2.5836,-2.5702,-2.5598,-2.5523,-2.4695,-2.4913,-2.5689,-2.5752,-2.6519,-2.7705,-2.8666,-2.9445,-3.0088,-3.0731,-3.121,-3.164,-3.2382,0.0,0.0,0.0,-3.4735,-3.5893,-3.7094,-3.7584,-3.7638,-3.695,-3.5774,-3.4078,-3.1636,-3.0345,-2.9158,-2.738,-2.7275,-2.7074,-2.5674,-2.5063,-2.4474,-2.3647,-2.3514,-2.3882,-2.4945,-2.5031,-2.5594,-2.7138,-2.8181,-2.9128,-2.9928,-3.2114,-3.3715,-3.4155,-3.5347,-3.6274,-3.6718,-3.6636,-3.6232,-3.5452,-3.4202,-3.3125,-3.2332,-3.1089,-3.0283,-2.9983,-2.934,-2.922,-2.9564,-2.9205,-2.9549,-3.0402,-2.9834,-2.9729,-2.9983,-2.9983,-3.0193,-3.0593,-3.1268,-3.1784,-3.216,-3.2788,-3.3287,-3.3684,0.0,0.0,0.0,0.0,0.0,0.0,0.0,0.0,0.0,0.0,0.0,0.0,0.0,0.0,0.0,0.0,-2.1049,-2.2519,-2.468,-2.482,-2.531,-2.6483,-2.6314,-2.6688,-2.7446,0.0,0.0,0.0,0.0,0.0,-2.7996,-2.7589,-2.7095,-2.6533,-2.6533,-2.6533,-2.6496,-2.5837,-2.5598,-2.5498,-2.4431,-2.4754,-2.5836,-2.5351,-2.6054,-2.7409,-2.824,-2.8985,-2.9699,-3.0492,-3.1204,-3.191,-3.2641,-3.3287,0.0,0.0,0.0,-3.5876,-3.7009,-3.6949,-3.6477,-3.6274,-3.5367,-3.3842,-3.1415,-3.0662,-2.9763,-2.7263,-2.7006,-2.686,-2.5619,-2.4794,-2.4118,-2.3484,-2.3245,-2.3424,-2.4452,-2.4567,-2.5063,-2.6336,-2.7824,-2.8998,-2.975,-3.2052,-3.3817,-3.4642,-3.5267,-3.5837,-3.6485,-3.5943,-3.5026,-3.3786,-3.2983,-3.2008,-3.0795,-2.9796,-2.934,-2.9325,-2.8667,-2.8592,-2.9056,-2.8562,-2.8607,-2.9071,-2.9071,-2.9175,-2.934,-2.934,-2.9609,-3.0098,-3.096,-3.1513,-3.1921,-3.2408,-3.2839,-3.3153,0.0,0.0,0.0,0.0,0.0,0.0,0.0,0.0,0.0,0.0,0.0,0.0,-1.9431,-1.9299,-1.9299,-1.9365,-2.0139,-2.1859,-2.4616,-2.482,-2.531,-2.6483,-2.5937,0.0,-2.6918,0.0,0.0,0.0,0.0,0.0,-2.7996,-2.7024,-2.6521,-2.6533,-2.6533,-2.6533,-2.6496,-2.5837,-2.5598,-2.5498,-2.4431,-2.4461,-2.5084,-2.4562,-2.5287,-2.6722,-2.7975,-2.8928,-2.9774,-3.1046,-3.1921,-3.2641,-3.3339,-3.3987,-3.4671,0.0,0.0,0.0,-3.5723,-3.5763,-3.558,-3.4904,-3.421,-3.3372,-3.188,-3.1013,-2.9896,-2.7882,-2.6905,-2.623,-2.5508,-2.4794,-2.4292,-2.4234,-2.359,-2.3649,-2.5119,-2.5342,-2.5618,-2.6404,-2.8316,-2.9803,-3.0474,-3.2392,-3.3885,-3.4529,-3.5211,-3.5628,-3.5673,-3.5639,-3.5239,-3.4462,-3.3223,-3.2255,-3.1438,-2.9567,-2.8652,-2.8637,-2.7949,-2.7685,-2.773,-2.7685,-2.7685,-2.773,-2.773,-2.8038,-2.8652,-2.8652,-2.8667,-2.8816,-3.0083,-3.0218,-2.9982,-3.1921,-3.2237,-3.1877,0.0,0.0,0.0,0.0,0.0,0.0,0.0,0.0,0.0,0.0,0.0,0.0,0.0,-1.9299,-1.9299,-1.9299,-2.059,-2.2249,-2.4179,-2.4619,-2.5146,-2.5875,-2.6063,-2.6531,-2.7433,-2.672,0.0,0.0,0.0,-2.7465,-2.7478,-2.7352,-2.7297,-2.7229,-2.6714,-2.6533,-2.6508,-2.6239,-2.6151,-2.6088,-2.5335,-2.5448,-2.6104,-2.6129,-2.6789,-2.7777,-2.8811,-2.9584,-3.0253,-3.0717,-3.1642,-3.2749,-3.3391,-3.4087,-3.4736,-3.5407,-3.5622,-3.5723,-3.6231,-3.5713,-3.4923,-3.4737,-3.381,-3.2655,-3.1201,-3.1005,-3.055,-2.8521,-2.8225,-2.7952,-2.6815,-2.5351,-2.4452,-2.4951,-2.4781,-2.4937,-2.5946,-2.6122,-2.639,-2.7137,-2.8651,-2.9856,-3.051,-3.2412,-3.3887,-3.4528,-3.5207,-3.5402,-3.4928,-3.4895,-3.4336,-3.3119,-3.1499,-2.9689,-2.7734,-2.7433,-2.732,-2.7305,-2.7051,-2.7156,-2.7625,-2.7625,-2.7625,-2.7625,-2.7625,-2.776,-2.7934,-2.7934,-2.8203,-2.8652,-2.9101,-2.9654,-3.0278,-3.1021,-3.1364,-3.1627,0.0,0.0,0.0,0.0,0.0,0.0,0.0,0.0,0.0,0.0,0.0,0.0,0.0,0.0,-1.9759,-1.9759,-2.1037,-2.249,-2.3904,-2.4343,-2.4858,-2.5561,-2.5799,-2.6244,-2.6985,0.0,0.0,0.0,0.0,0.0,0.0,-2.713,-2.7284,-2.7297,-2.6714,-2.6533,-2.6533,-2.6533,-2.6533,-2.6471,-2.6159,-2.6349,-2.6773,-2.71,-2.7708,-2.8482,-2.9528,-3.0462,-3.1329,-3.1784,-3.2671,-3.3689,-3.414,-3.4595,-3.5005,-3.547,-3.5622,-3.574,-3.6248,-3.534,-3.4251,-3.4041,-3.3105,-3.1936,-3.0769,-3.0787,-3.0646,-2.9059,-2.8871,-2.8736,-2.785,-2.6408,-2.5533,-2.6036,-2.5702,-2.5728,-2.6721,-2.6669,-2.6774,-2.7524,-2.8755,-2.9822,-3.0503,-3.2141,-3.3486,-3.4163,-3.4622,-3.4658,-3.4167,-3.3897,-3.2967,-3.1304,-2.9619,-2.7845,-2.5879,-2.6129,-2.6258,-2.6258,-2.6482,-2.6811,-2.7245,-2.752,-2.7625,-2.7625,-2.7625,-2.7745,-2.7919,-2.7919,-2.8308,-2.8936,-2.8936,-2.9445,-3.0193,-3.0193,-3.0492,-3.0863,0.0,0.0,0.0,0.0,0.0,0.0,0.0,0.0,0.0,0.0,0.0,0.0,0.0,0.0,0.0,-2.059,-2.1428,-2.249,-2.3866,-2.3991,-2.4469,-2.5523,-2.5109,-2.5096,-2.5611,0.0,0.0,0.0,0.0,0.0,0.0,0.0,-2.6533,-2.6533,-2.6533,-2.6533,-2.6521,-2.6533,-2.6533,-2.6539,-2.6818,-2.6969,-2.7043,-2.7289,-2.7894,-2.867,-3.0058,-3.148,-3.2928,-3.4296,-3.5176,-3.5679,-3.5712,-3.5635,-3.5622,-3.5622,-3.5622,-3.5577,0.0,0.0,0.0,-3.28,-3.2021,-3.1302,-3.0687,-3.0426,-3.0141,-2.9565,-2.8845,-2.8302,-2.8455,-2.8004,-2.753,-2.753,-2.6369,-2.5946,-2.7408,-2.6982,-2.6826,-2.7509,-2.8721,-2.9748,-3.043,-3.1662,-3.2663,-3.3364,-3.3406,-3.3389,-3.3372,-3.2645,-3.1295,-2.9173,-2.7923,-2.6983,-2.6359,-2.5833,-2.5585,-2.5585,-2.6243,-2.6572,-2.6617,-2.7275,-2.7625,-2.7625,-2.7625,-2.7964,-2.8607,-2.8607,-2.8981,-2.9549,-2.9564,-2.9579,-2.9579,-2.9579,-2.9579,-2.9579,0.0,0.0,0.0,0.0,0.0,0.0,0.0,0.0,0.0,0.0,0.0,0.0,-2.1215,-2.0193,-1.9879,-2.0526,-2.1428,-2.2321,-2.3303,-2.3766,-2.4305,-2.5008,-2.5259,-2.5649,-2.6214,0.0,0.0,0.0,0.0,0.0,0.0,0.0,0.0,0.0,-2.6533,-2.685,-2.7351,-2.6782,-2.685,-2.7338,-2.7433,-2.813,-2.9182,-2.9874,-3.0549,-3.138,-3.296,-3.3756,-3.4275,-3.5181,-3.5602,-3.5696,-3.5629,-3.5621,-3.5622,-3.5622,-3.5622,-3.547,-3.5005,0.0,0.0,0.0,0.0,0.0,-3.13,-3.0764,-3.0406,-3.0851,-3.0248,-2.9892,-3.0513,-2.9766,-2.901,-2.901,-2.7889,-2.7137,-2.756,-2.7408,-2.7357,-2.7575,-2.8721,-2.9748,-3.043,-3.1662,-3.2663,-3.3364,-3.3406,-3.3169,-3.2611,-3.1393,-2.976,-2.7745,-2.7421,-2.655,-2.4978,-2.4895,-2.4896,-2.4866,-2.557,-2.6123,-2.6617,-2.7275,-2.7625,-2.7625,-2.7625,-2.7964,-2.8607,-2.8607,-2.8712,-2.8921,-2.94,-2.9579,-2.9579,-2.9579,-2.9579,-2.9505,0.0,0.0,0.0,0.0,0.0,0.0,0.0,0.0,0.0,0.0,0.0,0.0,-2.208,-2.0819,-2.0654,-2.1709,-2.1875,-2.2357,-2.3416,-2.359,-2.3891,-2.4456,-2.4996,-2.5536,-2.6088,0.0,0.0,0.0,0.0,0.0,0.0,0.0,0.0,0.0,0.0,-2.6845,-2.7328,-2.7126,-2.7484,-2.8325,-2.8944,-2.9697,-3.0623,-3.1729,-3.2638,-3.3425,-3.4616,-3.5498,-3.6206,-3.6847,-3.7034,-3.6848,-3.6519,-3.6337,-3.6207,-3.6011,-3.5941,-3.5749,-3.4814,-3.4137,-3.3443,-3.2803,0.0,0.0,-3.1165,-3.0236,-2.9554,-3.0075,-2.9344,-2.8806,-2.958,-2.8955,-2.8286,-2.8286,-2.7876,-2.7565,-2.7604,-2.7625,-2.766,-2.7959,-2.8852,-2.969,-3.036,-3.1314,-3.2135,-3.2707,-3.2581,-3.2019,-3.0992,-2.9786,-2.844,-2.6981,-2.66,-2.5895,-2.4752,-2.4359,-2.4343,-2.4597,-2.53,-2.5959,-2.6617,-2.7275,-2.7625,-2.7625,-2.7625,-2.7799,-2.8188,-2.8487,-2.8757,-2.9026,-2.9131,-2.934,-2.9505,-2.8951,-2.8921,-2.9086,0.0,0.0,0.0,0.0,0.0,0.0,0.0,0.0,0.0,0.0,0.0,-2.5968,-2.3839,-2.2391,-2.2053,-2.3399,-2.2611,-2.2615,-2.3891,-2.3452,-2.3427,-2.4067,-2.4506,-2.5034,-2.5674,0.0,0.0,0.0,0.0,0.0,0.0,0.0,0.0,0.0,0.0,0.0,-2.7096,-2.755,-2.8309,-2.9233,-3.0654,-3.1329,-3.1598,-3.3075,-3.4106,-3.4883,-3.5559,-3.6789,-3.8157,-3.8844,-3.9001,-3.8721,-3.7974,-3.7591,-3.7344,-3.6719,-3.6537,-3.6251,-3.4878,-3.4086,-3.3555,-3.2804,-3.2129,0.0,-3.0866,-2.9405,-2.8242,-2.8441,-2.7221,-2.6363,-2.7152,-2.6798,-2.641,-2.641,-2.7045,-2.7501,-2.7497,-2.7745,-2.8091,-2.8587,-2.9245,-2.9902,-3.045,-3.0935,-3.1376,-3.1668,-3.1244,-3.0328,-2.8924,-2.8197,-2.7469,-2.6708,-2.5709,-2.5221,-2.5221,-2.4158,-2.3895,-2.4491,-2.5146,-2.5848,-2.6504,-2.716,-2.7509,-2.7625,-2.7625,-2.7625,-2.767,-2.8233,-2.8876,-2.943,-2.8906,-2.9026,-2.9325,-2.8128,-2.8023,-2.8397,-3.4307,0.0,0.0,0.0,0.0,0.0,0.0,0.0,0.0,0.0,-2.5444,-2.423,-2.4118,-2.3143,-2.2734,-2.3454,-2.313,-2.3193,-2.3954,-2.3452,-2.359,-2.4619,-2.4343,-2.4833,-2.6264,-2.5937,0.0,0.0,0.0,0.0,0.0,0.0,0.0,0.0,0.0,0.0,-2.792,-2.8044,-2.887,-3.0129,-3.0917,-3.193,-3.3166,-3.3961,-3.4748,-3.5546,-3.6864,-3.7826,-3.8662,-3.9928,-4.033,-4.0147,-3.9428,-3.9155,-3.8885,-3.7701,-3.7359,-3.6844,-3.4464,-3.4101,-3.4111,-3.2856,-3.2435,0.0,-3.2153,-3.0113,-2.8368,-2.9073,-2.7571,-2.6363,-2.7152,-2.6798,-2.641,-2.641,-2.7045,-2.7339,-2.6808,-2.8619,-2.9871,-2.9428,-3.0684,-3.164,-3.1722,-3.1705,-3.1474,-3.0941,-2.998,-2.9008,-2.8095,-2.7909,-2.7469,-2.6708,-2.5709,-2.5221,-2.5221,-2.4158,-2.3659,-2.3739,-2.4375,-2.5075,-2.5763,-2.6416,-2.7034,-2.7625,-2.7625,-2.7625,-2.7625,-2.7724,-2.8173,-2.8831,-2.9235,-2.9146,-2.8757,-2.8502,-2.8128,-2.7754,-3.4996,0.0,0.0,0.0,0.0,0.0,0.0,0.0,0.0,-2.8399,-2.6259,-2.5093,-2.535,-2.4225,-2.3905,-2.4878,-2.3937,-2.3737,-2.4757,-2.428,-2.4104,-2.4406,-2.4406,-2.4795,-2.5624,-2.5611,0.0,0.0,0.0,0.0,0.0,0.0,0.0,0.0,0.0,0.0,-2.6742,-2.7707,-2.8395,-2.8996,-3.0905,-3.1853,-3.2256,-3.3192,-3.4273,-3.5518,-3.6689,-3.8274,-3.9897,-4.0894,-4.1149,-4.0996,-4.0602,-4.0226,-3.9646,-3.8373,-3.7777,-3.6972,-3.4299,-3.3854,-3.4022,-3.3664,-3.3034,0.0,0.0,-3.0586,-2.8237,-2.8288,-2.6323,-2.4819,-2.5506,-2.5144,-2.476,-2.476,-2.5974,-2.682,-2.6523,-2.8854,-3.0588,-3.0558,-3.1275,-3.1867,-3.2171,-3.1781,-3.1199,-3.0446,-2.9385,-2.8493,-2.7841,-2.7469,-2.6977,-2.6383,-2.5598,-2.5067,-2.4776,-2.3951,-2.3705,-2.4009,-2.4289,-2.5015,-2.6021,-2.6352,-2.6878,-2.7625,-2.7625,-2.7625,-2.7625,-2.7625,-2.7784,-2.8113,-2.8457,-2.8382,-2.8083,-2.8083,-2.7874,-2.7625,-3.528,-3.531,0.0,0.0,0.0,0.0,0.0,0.0,0.0,-2.9096,-2.7574,-2.6653,-2.6766,-2.5578,-2.5306,-2.6716,-2.4835,-2.4213,-2.5711,-2.5071,-2.4506,-2.4167,-2.4481,-2.4771,-2.4988,-2.5287,-2.5778,0.0,0.0,0.0,0.0,0.0,0.0,0.0,0.0,0.0,-2.5345,-2.684,-2.7141,-2.6777,-2.9349,-3.0337,-3.0459,-3.149,-3.3044,-3.4857,-3.6411,-3.8755,-4.1143,-4.17,-4.1869,-4.1722,-4.1341,-4.0942,-4.0362,-3.8738,-3.8006,-3.7117,-3.4332,-3.3678,-3.3884,-3.4379,-3.3545,-3.2855,0.0,0.0,0.0,-2.7391,-2.5103,-2.3414,-2.3766,-2.3452,-2.3078,-2.3078,-2.5069,-2.6576,-2.6576,-2.9134,-3.1158,-3.1646,-3.1618,-3.1783,-3.2401,-3.1664,-3.0796,-2.9989,-2.9229,-2.851,-2.7841,-2.7249,-2.6621,-2.6013,-2.5503,-2.4918,-2.4394,-2.3803,-2.3763,-2.4253,-2.4224,-2.4844,-2.6068,-2.6068,-2.6496,-2.7188,-2.7357,-2.7408,-2.7408,-2.756,-2.7625,-2.7625,-2.7625,-2.7625,-2.7625,-2.7625,-2.7625,-2.7625,-3.4487,-3.4592,-3.4562,0.0,0.0,0.0,0.0,0.0,0.0,-2.8786,-2.776,-2.7369,-2.7871,-2.6909,-2.6709,-2.7833,-2.5494,-2.4668,-2.6264,-2.4933,-2.428,-2.4707,-2.4318,-2.4594,-2.572,-2.5154,-2.5472,0.0,0.0,0.0,0.0,0.0,0.0,0.0,-2.5149,-2.5151,-2.5378,-2.5479,-2.4909,-2.401,-2.4128,-2.5889,-2.8609,-2.9238,-3.0851,-3.3314,-3.7591,-4.0233,-4.1729,-4.2123,-4.2715,-4.2919,-4.1035,-4.134,-4.1779,-3.8596,-3.8121,-3.7858,-3.4512,-3.4046,-3.4327,-3.3757,-3.3501,-3.338,-3.3502,0.0,-2.8747,-2.752,0.0,-2.3766,-2.3314,0.0,0.0,-2.3078,-2.5388,-2.7173,-2.7173,-3.0205,-3.2373,-3.2444,-3.2194,-3.2317,-3.3051,-3.1799,-3.0488,-2.9376,-2.9698,-2.9282,-2.7857,-2.7705,-2.7159,-2.603,-2.5503,-2.4907,-2.4343,-2.3746,-2.3468,-2.3442,-2.3437,-2.3838,-2.4567,-2.4567,-2.4951,-2.5673,-2.6336,-2.6616,-2.6669,-2.7357,-2.7625,-2.7625,-2.7625,-2.7625,-2.7625,-2.7625,-2.7625,-2.7625,-3.4352,-3.4472,-3.4472,0.0,0.0,0.0,0.0,0.0,0.0,-2.8058,-2.7746,-2.7846,-2.8084,-2.7695,-2.7607,-2.8059,-2.6753,-2.6201,-2.6892,-2.5988,-2.5372,-2.5272,-2.5046,-2.5231,-2.5906,-2.5959,-2.6501,-2.7458,-2.6987,0.0,0.0,0.0,0.0,0.0,-2.6645,-2.6011,-2.4906,-2.4682,-2.3078,-2.0672,-1.9671,-2.1203,-2.4206,-2.5708,-2.974,-3.5096,-3.9831,-4.1905,-4.2498,-4.3059,-4.2832,-4.2196,-4.1414,-4.0824,-4.0046,-3.8198,-3.7313,-3.6382,-3.375,-3.3473,-3.3904,-3.3664,-3.3547,-3.3502,-3.3615,-3.1273,-2.8914,-2.7991,0.0,0.0,0.0,0.0,0.0,0.0,-2.5967,-2.7527,-2.8408,-3.0148,-3.1685,-3.25,-3.2434,-3.2138,-3.1614,-3.0931,-3.0177,-2.9255,-2.975,-2.9634,-2.8552,-2.7811,-2.7028,-2.6211,-2.4909,-2.4106,-2.3868,-2.3181,-2.299,-2.331,-2.3206,-2.3606,-2.4292,-2.4292,-2.4681,-2.5398,-2.5728,-2.6122,-2.651,-2.6826,-2.7188,-2.7625,-2.7625,-2.7625,-2.7625,-2.7625,-2.7625,-2.7625,-3.4113,-3.4352,-3.4472,-3.4472,0.0,0.0,0.0,0.0,-2.9484,-2.791,-2.8084,-2.8386,-2.8549,-2.8632,-2.8813,-2.8953,-2.8376,-2.8135,-2.8221,-2.7618,-2.6824,-2.6008,-2.6167,-2.6257,-2.6228,-2.6716,-2.7366,-2.8098,0.0,0.0,0.0,0.0,0.0,0.0,-2.7671,-2.6675,-2.4809,-2.4179,-2.1935,-1.8598,-1.7619,-1.9575,-2.3325,-2.5742,-3.106,-3.7626,-4.1511,-4.3076,-4.3345,-4.3498,-4.2804,-4.1715,-4.1102,-4.0167,-3.9081,-3.8086,-3.7034,-3.5822,-3.3719,-3.3357,-3.3491,-3.3409,-3.3302,-3.3201,-3.3041,-3.111,-2.9066,-2.8071,-2.59,0.0,0.0,0.0,-2.433,-2.5084,0.0,-2.7992,-2.9247,-3.0193,-3.1221,-3.2478,-3.239,-3.1631,-2.9993,-3.0337,-3.0352,-2.9597,-3.0277,-3.0303,-2.9347,-2.8277,-2.7254,-2.6316,-2.4793,-2.3814,-2.3434,-2.291,-2.2858,-2.3218,-2.3175,-2.3424,-2.3943,-2.3943,-2.4279,-2.4781,-2.5231,-2.5826,-2.6472,-2.6688,-2.7255,-2.7844,-2.7685,-2.7625,-2.7625,-2.7625,-2.7625,-2.7625,-3.3529,-3.4038,-3.4472,-3.4472,-3.3948,0.0,0.0,-3.0397,-3.0308,-2.9011,-2.8888,-2.9114,-2.9679,-3.0115,-3.0547,-3.1074,-3.0446,-3.0214,-3.0662,-2.9624,-2.8384,-2.6892,-2.7672,-2.7815,-2.7148,-2.7161,-2.753,-2.8297,0.0,0.0,0.0,0.0,0.0,0.0,-2.7423,-2.6543,-2.5323,-2.3947,-2.165,-1.883,-1.9027,-2.2775,-2.8572,-3.1558,-3.5807,-4.0286,-4.2068,-4.3426,-4.4196,-4.3101,-4.2711,0.0,-3.9563,-3.969,-4.0417,-3.8469,-3.782,-3.7265,-3.5202,-3.4085,-3.3336,-3.2719,-3.2527,-3.2333,-3.1486,-3.0567,-2.9398,-2.736,-2.5794,-2.4632,-2.4104,-2.4133,-2.449,-2.5077,-2.6998,0.0,0.0,-3.0615,-3.1751,-3.2532,-3.2051,-3.0792,-2.8566,-3.031,-3.1205,-3.0401,-3.1596,-3.1679,-3.0154,-2.947,-2.8223,-2.6293,-2.5576,-2.4611,-2.3316,-2.3286,-2.3218,-2.3113,-2.3125,-2.3138,-2.3125,-2.3125,-2.3125,-2.3245,-2.4781,-2.5785,-2.6454,-2.7231,-2.7964,-2.8502,-2.7829,-2.7625,-2.7625,-2.7625,-2.7625,-2.7625,-3.4233,-3.4696,-3.4741,-3.341,-3.335,-3.2662,-3.0192,-3.0689,-3.0858,-2.9644,-3.0394,-3.1122,-3.1228,-3.2024,-3.2395,-3.2119,-3.1543,-3.1072,-3.0812,-3.0543,-2.9734,-2.8361,-2.9022,-2.9136,-2.8606,-2.9049,-2.9419,-2.9773,0.0,0.0,0.0,0.0,0.0,0.0,0.0,-2.7575,-2.6909,-2.5767,-2.4448,-2.3171,-2.5916,-2.9267,-3.2982,-3.609,-3.9164,-4.2314,-4.5287,-4.5576,-4.4499,-4.3883,-4.2409,-4.0648,-3.9821,-3.9293,-3.8775,-3.8121,-3.7549,-3.679,0.0,-3.4503,-3.3994,-3.278,-3.2183,-3.15,-3.0263,-2.9054,-2.781,-2.6627,-2.555,-2.4657,-2.4104,-2.4761,-2.5635,-2.6467,-2.7963,-2.9392,0.0,-3.0749,-3.0822,-3.1028,-3.051,-2.9795,-2.903,-2.9788,-3.0297,-3.0385,-3.0826,-3.0832,-3.0244,-2.9246,-2.7969,-2.6364,-2.4956,-2.3875,-2.3326,-2.2845,-2.2807,-2.3078,-2.3078,-2.3078,-2.3078,-2.3078,-2.3078,-2.3138,-2.3636,-2.4603,-2.5744,-2.603,-2.7099,-2.8532,-2.7844,-2.7844,-2.8203,-2.7739,-2.7625,-2.772,-3.4607,-3.504,-3.5026,-3.3484,-3.3769,-3.3368,-3.0832,-3.1488,-3.1852,-3.0752,-3.1744,-3.2532,-3.2568,-3.3505,-3.3845,-3.3157,-3.3095,-3.2815,-3.2174,-3.1997,-3.1283,-2.9855,-3.0247,-3.024,-2.9678,-3.0133,-3.0396,-3.0507,-2.9156,-2.903,0.0,0.0,0.0,0.0,0.0,-2.9433,-2.9346,-2.8671,-2.8052,-2.7952,-3.2,-3.5281,-3.8063,-4.1048,-4.3031,-4.452,-4.6831,-4.6616,-4.5056,-4.4078,-4.2166,-4.0187,-4.015,-3.9428,-3.8719,-3.8739,-3.8181,-3.7183,-3.5562,-3.4904,0.0,-3.2229,-3.1397,-3.066,-2.9167,-2.8043,-2.7166,-2.6386,-2.56,-2.4933,-2.4393,-2.5387,-2.6566,-2.7211,-2.864,-3.0147,0.0,-3.0837,-3.0182,-2.9952,-2.9765,-2.9577,-2.9347,-2.9894,-3.0191,-3.0101,-3.0525,-3.0538,-3.0027,-2.9243,-2.8031,-2.6426,-2.4991,-2.3933,-2.3256,-2.2819,-2.2786,-2.3078,-2.3078,-2.3078,-2.3078,-2.3078,-2.3078,-2.3138,-2.3914,-2.4967,-2.6133,-2.6664,-2.7704,-2.8891,-2.8203,-2.8053,-2.8173,-2.779,-2.7625,-2.7816,-3.4651,-3.5055,-3.5295,-3.4637,-3.504,-3.4523,-3.1931,-3.2588,-3.309,-3.2346,-3.2787,-3.3279,-3.3688,-3.4569,-3.4816,-3.4153,-3.4986,-3.522,-3.4517,-3.3918,-3.2924,-3.1315,-3.1471,-3.122,-3.0404,-3.0452,-3.0552,-3.0552,-2.928,0.0,0.0,0.0,0.0,0.0,-3.1182,-3.1779,-3.2307,-3.2291,-3.2467,-3.3078,-3.7033,-4.0456,-4.3515,-4.6189,-4.7006,-4.6724,-4.6709,-4.645,-4.5769,-4.3683,-4.2033,-4.078,-4.0237,-4.007,-4.007,-4.0037,-3.9492,-3.8384,-3.6373,-3.5236,-3.3971,-3.1085,-3.0329,-2.9785,-2.8076,-2.7604,-2.7406,-2.6607,-2.5975,-2.5435,-2.4946,-2.6171,-2.7235,-2.7325,-2.916,-3.0776,-3.1377,-3.0837,-3.0113,-2.9507,-2.9939,-2.9981,-2.939,-3.0557,-3.089,-2.9666,-3.0644,-3.0713,-2.9476,-2.9452,-2.8485,-2.6323,-2.5727,-2.4667,-2.3138,-2.3078,-2.3078,-2.3078,-2.3078,-2.3078,-2.3078,-2.3103,-2.3163,-2.3283,-2.5428,-2.6757,-2.7404,-2.8887,-2.9594,-2.9549,-2.8861,-2.8173,-2.7625,-2.7625,-2.764,-2.7861,-3.528,-3.5385,-3.5444,-3.5265,-3.4419,-3.3025,-3.0895,-3.1582,-3.2501,-3.2749,-3.3981,-3.4886,-3.5236,-3.6207,-3.6333,-3.5222,-3.5359,-3.522,-3.4517,-3.4801,-3.4107,-3.2242,-3.2676,-3.2407,-3.1234,-3.123,-3.127,-3.127,-2.9968,0.0,-3.1765,0.0,0.0,0.0,0.0,-3.1808,-3.2696,-3.4153,-3.6653,-3.9738,-4.2113,-4.3875,-4.5229,-4.6481,-4.6511,-4.5899,-4.6379,-4.5716,-4.4395,-4.289,-4.1453,-4.0286,-4.0171,-4.007,-3.9969,-3.9428,-3.8773,-3.7847,-3.6152,-3.4889,-3.3464,-3.1494,-3.024,-2.9132,0.0,0.0,-2.6231,-2.5924,-2.5699,-2.5548,-2.5423,-2.6691,-2.7809,-2.7917,-2.9783,-3.133,-3.1452,-3.0837,-3.0466,-3.0866,-3.0134,-2.9505,-2.9347,-2.9348,-2.9773,-3.0803,-2.9886,-2.9319,-2.945,-2.9474,-2.8312,-2.57,-2.5494,-2.4667,-2.3138,-2.3078,-2.3078,-2.3078,-2.3078,-2.3078,-2.309,-2.3577,-2.3831,-2.4054,-2.5528,-2.6675,-2.7539,-2.8335,-2.9348,-3.0163,-2.9041,-2.8173,-2.7625,-2.7625,-2.7904,-2.8516,-3.492,-3.506,-3.5028,-3.4385,-3.4528,-3.4312,-3.2925,-3.2657,-3.3165,-3.4568,-3.5134,-3.5728,-3.6458,-3.7045,-3.7015,-3.6013,-3.5669,-3.534,-3.4951,-3.5011,-3.4427,-3.3006,-3.2672,-3.2046,-3.0984,-3.0367,-3.0367,-3.097,-2.9451,0.0,-3.1657,0.0,0.0,0.0,0.0,-3.3134,-3.4866,-3.7337,-4.0024,-4.2716,-4.3763,-4.483,0.0,-4.5636,-4.5451,-4.5201,-4.4583,-4.3967,-4.3328,-4.2068,-4.0954,-4.002,-3.9698,-3.9597,-3.9395,-3.8371,-3.7769,-3.699,-3.4946,-3.3761,-3.2531,-3.005,-2.9021,-2.8173,-2.6661,-2.6246,-2.6154,-2.6034,-2.5975,-2.59,-2.5636,-2.6869,-2.8116,-2.8984,-3.047,-3.1482,-3.1482,-3.1087,-3.0852,-3.1049,-3.0319,-2.9797,-2.9797,-2.907,-2.9155,-3.051,-2.9617,-2.9108,-2.9484,-2.9526,-2.8368,-2.5889,-2.58,-2.4922,-2.3138,-2.3389,-2.3389,-2.3078,-2.3078,-2.3078,-2.309,-2.3728,-2.4221,-2.4773,-2.6351,-2.7353,-2.7948,-2.8907,-2.9489,-2.9564,-2.8547,-2.7919,-2.7625,-2.791,-2.8252,-2.8763,-3.4511,-3.481,-3.4692,-3.3213,-3.5095,-3.6678,-3.6173,-3.4671,-3.4353,-3.6518,-3.6059,-3.6019,-3.7286,-3.744,-3.7165,-3.6537,-3.5893,-3.5504,-3.5504,-3.4936,-3.4277,-3.3529,-3.2123,-3.1036,-3.0343,-2.8984,-2.897,-3.0329,-2.8598,0.0,0.0,0.0,0.0,0.0,0.0,-3.4955,-3.7541,-4.0325,-4.2017,-4.2852,-4.3082,-4.402,-4.5163,-4.3886,-4.3866,-4.4259,-4.215,-4.1864,-4.2359,-4.1076,-4.0343,-3.9817,-3.9089,-3.8787,-3.8437,-3.697,-3.6403,-3.5717,-3.3118,-3.2206,-3.1278,-2.8029,-2.7439,-2.7249,-2.5798,-2.5887,-2.6319,-2.6319,-2.6302,-2.6189,-2.5686,-2.6815,-2.84,-2.9911,-3.0911,-3.1422,-3.1243,-3.1287,-3.118,-3.0567,-3.0357,0.0,-3.0492,-2.943,-2.9094,-2.9937,-2.9907,-2.9848,-2.9788,-2.9748,-2.8664,-2.639,-2.626,-2.5239,-2.3251,-2.3753,-2.3753,-2.3251,-2.3115,-2.3078,-2.309,-2.3851,-2.4519,-2.5354,-2.7465,-2.8361,-2.8507,-2.9956,-2.9759,-2.8547,-2.8038,-2.7775,-2.769,-2.847,-2.8761,-2.8951,-3.6082,-3.6172,-3.5971,-3.5119,-3.5503,-3.6085,-3.6619,-3.5416,-3.4847,-3.5624,-3.5898,-3.6487,-3.7512,-3.747,-3.7165,-3.6537,-3.5893,-3.5504,-3.5504,-3.5385,-3.4771,-3.3544,-3.2562,-3.1498,-3.0358,-2.933,-2.933,-3.0329,-2.9419,-2.9829,0.0,0.0,0.0,0.0,0.0,-3.5422,-3.7792,-3.9283,-4.0075,-4.0409,-4.1141,-4.1896,-4.2463,-4.1288,-4.138,-4.1952,-4.0617,-4.081,-4.1445,-3.9873,-3.9255,-3.9056,-3.8328,-3.7684,-3.6887,-3.5464,-3.4309,-3.3071,-3.1394,-3.0517,-2.9607,-2.7689,-2.7239,-2.6891,-2.5281,-2.5034,-2.5109,-2.5109,-2.5448,-2.5724,-2.5611,-2.7327,-2.8899,-2.9385,-3.0616,-3.115,-3.0073,-3.0357,-3.0642,-3.0507,-2.9579,-2.9355,-3.0402,-2.9849,-3.015,-3.1936,-3.1574,-3.1239,-3.1133,-3.0701,-2.9167,0.0,-2.626,-2.544,0.0,0.0,-2.3954,-2.3841,-2.3364,-2.3078,-2.315,-2.4361,-2.5063,-2.5478,-2.8022,-2.8913,-2.8687,-2.9958,-2.9759,-2.8637,-2.9071,-2.8547,-2.7795,-2.9566,-3.0192,-3.027,-3.6226,-3.6226,-3.6241,-3.627,-3.6534,-3.6825,-3.6965,-3.5953,-3.5336,-3.579,-3.5826,-3.6144,-3.7161,-3.7311,-3.7285,-3.6985,-3.6073,-3.5504,-3.5504,-3.5504,-3.5055,-3.4038,-3.2457,-3.1118,-3.0199,-2.8201,-2.8039,-2.9628,-2.8697,-2.9203,0.0,0.0,0.0,0.0,0.0,-3.4593,-3.6049,-3.6872,-3.7703,-3.8485,-3.8894,-3.9713,-4.0595,-4.0168,-4.0223,-4.0538,-4.0133,-4.0041,-4.0072,-3.9299,-3.8773,-3.8238,-3.6716,-3.5745,-3.4868,-3.3094,-3.2092,-3.1337,-2.995,-2.8966,-2.7997,-2.6592,-2.6088,-2.5694,-2.4634,-2.4619,-2.482,-2.482,-2.5021,-2.5272,-2.5548,-2.7066,-2.8366,-2.8568,-2.9577,-3.0188,-2.966,-2.9834,-3.0028,-3.0028,-2.8861,-2.8712,-3.0342,-2.9639,-2.9766,-3.1402,-3.1569,-3.1401,-3.0943,0.0,-2.9407,0.0,0.0,0.0,-2.4418,0.0,-2.4544,-2.4004,-2.3715,-2.3596,-2.3734,-2.4661,-2.5625,-2.6551,-2.8126,-2.8718,-2.8622,-2.8876,-2.8622,-2.8128,-2.8801,-2.8912,-2.8801,-3.0472,-3.1262,-3.1528,-3.6474,-3.6474,-3.6605,-3.6997,-3.725,-3.7317,-3.7107,-3.6169,-3.5725,-3.6157,-3.5819,-3.5962,-3.7075,-3.7281,-3.7404,-3.7404,-3.6252,-3.5504,-3.5504,-3.5504,-3.519,-3.4502,-3.2276,-3.0721,-3.0044,-2.7433,-2.7,-2.9002,-2.8232,-2.877,0.0,0.0,0.0,0.0,0.0,0.0,0.0,0.0,-3.5646,-3.6748,-3.6867,-3.7818,-3.9127,-3.9125,-3.9446,-3.9884,-3.9851,-3.9497,-3.8937,-3.8518,-3.787,-3.6984,-3.5068,-3.3795,-3.2676,-3.0904,-3.0191,-2.9693,-2.8688,-2.7605,-2.6585,-2.5646,-2.5024,-2.4532,-2.3916,-2.4155,-2.4456,-2.4456,-2.4556,-2.4808,-2.5335,-2.6491,0.0,-2.7387,-2.8355,-2.9087,-2.8981,-2.9227,-2.931,-2.9175,-2.8218,-2.8128,-2.9535,-2.929,-2.9331,-3.0041,-3.0889,-3.123,-3.0879,0.0,0.0,0.0,0.0,-2.6725,-2.5172,0.0,-2.5008,-2.4167,-2.4115,-2.4172,-2.4305,-2.5047,-2.6116,-2.7342,-2.8033,-2.8433,-2.8547,-2.7859,-2.7625,-2.7685,-2.8323,-2.9012,-2.9793,-3.1197,-3.214,-3.2689,-3.8147,-3.8147,-3.7983,-3.7446,-3.6785,-3.6387,-3.6796,-3.6113,-3.5693,-3.6241,-3.6212,-3.673,-3.8365,-3.784,-3.7404,-3.7404,-3.6252,-3.5504,-3.5504,-3.5504,-3.519,-3.4502,-3.2276,-3.0721,-3.0044,-2.8357,-2.7998,-2.9002,-2.9714,-3.0192,0.0,0.0,0.0,0.0,0.0,0.0,0.0,-3.4378,-3.4732,-3.4908,-3.5514,-3.6615,-3.7903,-3.7258,-3.8278,-3.9986,-3.9262,-3.9039,-3.8719,-3.6852,-3.5678,-3.487,-3.3978,-3.2418,-3.0744,-2.9912,-2.877,-2.7783,-2.7727,-2.6664,-2.5536,-2.5425,-2.4875,-2.4145,-2.3346,-2.319,-2.3228,-2.3228,-2.3703,-2.4243,-2.4795,-2.5664,-2.6043,-2.5474,-2.7137,-2.8078,-2.6963,-2.7912,-2.8457,-2.788,-2.77,-2.741,-2.6991,-2.9042,-2.9952,-2.879,-2.9928,-3.1149,-3.2235,0.0,0.0,-2.8741,-2.8745,-2.8007,-2.6382,-2.5372,-2.4845,-2.4732,-2.4421,-2.4287,-2.435,-2.5743,-2.6437,-2.6693,-2.8015,-2.8599,-2.8547,-2.7859,-2.7625,-2.7685,-2.8323,-2.9012,-2.9855,-3.1803,-3.2918,-3.3591,-3.9005,-3.8676,-3.8556,-3.911,-3.7723,-3.6855,-3.7839,-3.6526,-3.5666,-3.6522,-3.6599,-3.6845,-3.7509,-3.7105,-3.6851,-3.6851,-3.5503,-3.461,-3.461,-3.4041,-3.3926,-3.4163,-3.2419,-3.1397,-3.1318,-2.9845,-2.9297,-2.9766,-3.0492,-3.1127,-3.1704,0.0,0.0,0.0,0.0,-3.1708,-3.2398,-3.3075,-3.3541,-3.4029,-3.5159,-3.6164,-3.7128,-3.7809,-3.829,-3.8735,-3.8906,-3.787,-3.6302,-3.5446,-3.4693,-3.3745,-3.179,-3.0076,-2.8636,-2.7928,-2.7334,-2.6827,-2.6394,-2.5837,-2.5287,-2.4851,-2.4163,-2.3484,-2.3185,-2.3078,-2.3078,-2.3078,-2.359,-2.4067,-2.4293,-2.49,-2.529,-2.5122,-2.5859,-2.6465,-2.6519,-2.7006,-2.7247,-2.7016,-2.6632,-2.6437,-2.6572,-2.7936,-2.8905,-2.9158,-3.1555,-3.2672,-3.1898,0.0,0.0,-2.9463,0.0,-2.7755,-2.6521,-2.5686,-2.5204,-2.4968,-2.4852,-2.5087,-2.5618,-2.6229,-2.6721,-2.7218,-2.7757,-2.7979,-2.7964,-2.7679,-2.7625,-2.7685,-2.8323,-2.9255,-3.0432,-3.2026,-3.3291,-3.4306,-3.9424,-3.9035,-3.899,-3.9948,-3.8458,-3.7457,-3.8495,-3.6988,-3.6094,-3.7227,-3.6994,-3.675,-3.6939,-3.668,-3.641,-3.6096,-3.4772,-3.3876,-3.3602,-3.2961,-3.289,-3.3533,-3.2443,-3.1828,-3.1752,-3.0856,-3.0375,-3.0329,-3.0945,-3.1617,-3.2228,0.0,0.0,0.0,-3.1031,-3.1076,-3.1511,-3.2243,-3.2781,-3.3321,-3.453,-3.5533,-3.6472,-3.7543,-3.774,-3.7576,-3.8137,-3.6638,-3.4366,-3.3942,-3.3058,-3.1817,-2.989,-2.8323,-2.7086,-2.6358,-2.6014,-2.5783,-2.5453,-2.5063,-2.4667,-2.4394,-2.3708,-2.3078,-2.3078,-2.3078,-2.3078,-2.3078,-2.3464,-2.3753,-2.3753,-2.4054,-2.4381,-2.4499,-2.4721,-2.5083,-2.5816,-2.605,-2.625,-2.6281,-2.5857,-2.5612,-2.5749,-2.6861,-2.781,-2.8373,-3.1674,-3.2998,-3.1512,0.0,0.0,0.0,0.0,0.0,-2.6521,-2.5978,-2.5498,-2.509,-2.5378,-2.5868,-2.651,-2.6721,-2.71,-2.7625,-2.7625,-2.7625,-2.7625,-2.7625,-2.7625,-2.767,-2.8113,-2.9256,-3.0728,-3.1868,-3.3258,-3.4659,-3.9424,-3.9409,-3.9409,-3.9424,-3.8546,-3.7926,-3.8355,-3.7477,-3.7184,-3.8442,-3.74,-3.6746,-3.736,-3.6866,-3.6096,-3.5102,-3.4387,-3.3602,-3.2664,-3.2593,-3.2593,-3.2593,-3.2097,-3.1488,-3.0812,-3.1034,-3.0859,-3.0329,-3.1102,-3.1482,-3.1482,0.0,-3.1482,-3.1482,-3.1467,-3.1467,-3.1511,-3.2243,-3.2512,-3.2587,-3.3245,-3.4398,-3.5726,-3.5726,-3.6194,-3.6801,-3.6801,-3.5493,-3.3505,-3.2186,-3.033,-2.8538,-2.8508,-2.7617,-2.6351,-2.5618,-2.4908,-2.4452,-2.5175,-2.4266,-2.3305,-2.4118,-2.3708,-2.3078,-2.3078,-2.3078,-2.3078,-2.3078,-2.3078,-2.3078,-2.3078,-2.309,-2.309,-2.3138,0.0,-2.4366,-2.4394,-2.5053,-2.5567,-2.5595,-2.5555,-2.5027,-2.3836,-2.6,-2.6967,-2.5749,-2.9326,-3.1539,-3.1524,0.0,0.0,-2.9821,-2.9107,0.0,-2.6533,-2.6078,-2.5643,-2.509,-2.6036,-2.6472,-2.651,-2.7255,-2.7575,-2.7625,-2.7625,-2.7625,-2.7625,-2.7625,-2.7625,-2.7625,-2.7625,-2.8817,-3.0573,-3.1341,-3.2866,-3.4607,-3.9424,-3.9424,-3.9424,-3.9424,-3.9104,-3.8794,-3.8411,-3.7708,-3.7351,-3.7864,-3.6687,-3.606,-3.6761,-3.5606,-3.47,-3.4329,-3.2249,-3.1135,-3.1596,-3.029,-3.0139,-3.1596,-3.2072,-3.2319,-3.2354,-3.2645,-3.2448,-3.1812,0.0,0.0,0.0,-3.2198,-3.1958,-3.1482,-3.1482,-3.1482,-3.1511,-3.2243,-3.2512,-3.2631,-3.3859,-3.4574,-3.5059,-3.5584,-3.5605,-3.5396,-3.5396,-3.401,-3.2118,-3.1223,-2.9531,-2.7642,-2.6694,-2.573,-2.4951,-2.4738,-2.4452,-2.4234,-2.393,-2.3884,-2.3826,-2.3531,-2.3708,-2.3767,-2.3258,-2.3078,-2.3078,-2.3078,-2.3078,-2.3078,-2.3078,-2.3078,-2.3078,-2.3078,-2.3767,-2.4296,-2.438,-2.5039,-2.5342,-2.4969,-2.4531,-2.4077,-2.3626,-2.5221,-2.6457,-2.6852,-3.0172,-3.2003,0.0,0.0,0.0,0.0,-2.946,0.0,-2.6621,-2.6738,-2.6565,-2.6077,-2.6383,-2.6774,-2.7255,-2.7509,-2.7625,-2.7625,-2.7625,-2.7625,-2.7625,-2.7625,-2.7625,-2.7625,-2.7625,-2.8268,-2.9265,-2.9982,-3.0925,-3.1983,-3.9424,-3.9424,-3.9424,-3.9424,-3.9424,-3.9185,-3.8497,-3.7823,-3.7488,-3.7589,-3.6353,-3.5638,-3.6058,-3.4153,-3.2877,-3.2877,-3.0786,-2.963,-3.0012,-2.8785,-2.902,-3.1106,-3.2105,-3.2765,-3.3082,-3.3613,0.0,-3.2512,-3.2273,-3.2138,-3.2138,-3.2138,-3.1928,-3.1482,-3.1482,-3.1482,-3.1497,-3.1973,-3.2138,-3.2183,-3.3145,-3.3644,-3.397,-3.4439,-3.4317,-3.3899,-3.3899,-3.2763,-3.1029,-3.0099,-2.8567,-2.682,-2.5423,-2.4452,-2.3826,-2.3826,-2.3826,-2.3767,-2.3245,-2.3484,-2.3826,-2.359,-2.3943,-2.4176,-2.3649,-2.3305,-2.3078,-2.3078,-2.3078,-2.3078,-2.3078,-2.3078,-2.3078,-2.3078,-2.3767,-2.423,-2.4079,-2.4634,-2.4968,-2.4596,-2.399,-2.3674,-2.3865,-2.4929,-2.5926,-2.6736,-2.964,0.0,0.0,0.0,-3.1546,-3.0656,-2.9803,-2.857,-2.6899,-2.7387,-2.7117,-2.6136,-2.641,-2.6916,-2.7625,-2.7625,-2.7625,-2.7625,-2.7625,-2.7625,-2.7625,-2.7625,-2.7625,-2.7625,-2.7625,-2.7981,-2.8627,-2.9326,-2.9998,-3.0749,-3.9424,-3.9424,-3.9424,-3.9424,-3.9424,-3.9185,-3.8497,-3.7868,-3.7533,-3.7604,-3.6398,-3.5474,-3.522,-3.2737,-3.1069,-3.0908,0.0,0.0,-2.8164,-2.8096,-2.902,-3.1106,-3.2164,-3.2835,-3.3258,-3.4203,-3.3999,-3.2556,-3.1854,-3.1482,-3.1482,-3.1422,-3.1437,-3.1482,-3.1422,-3.1437,-3.1482,-3.1422,-3.1437,-3.1482,-3.1422,-3.1864,-3.2532,-3.2532,-3.2477,-3.2422,-3.2422,-3.1551,-3.0164,-2.8782,-2.7414,-2.607,-2.4753,-2.3767,-2.3078,-2.3078,-2.3078,-2.3078,-2.3078,-2.3078,-2.3305,-2.4118,-2.4292,-2.4292,-2.435,-2.3708,-2.3078,-2.3078,-2.3078,-2.3078,-2.3078,-2.3078,-2.3138,-2.3185,-2.3826,-2.4153,-2.3571,-2.4069,-2.4517,-2.4425,-2.3797,0.0,-2.4443,-2.5038,-2.5516,-2.5689,-2.8157,0.0,0.0,0.0,-3.2269,-3.0387,-3.0129,-2.9115,-2.728,-2.8025,-2.7446,-2.564,-2.6337,-2.6976,-2.7625,-2.7625,-2.7625,-2.7625,-2.7625,-2.7625,-2.7625,-2.7625,-2.7625,-2.7625,-2.7625,-2.7944,-2.8541,-2.9208,-2.9799,-3.0493,0.0,-3.9424,-3.9424,-3.9424,-3.9424,-3.9185,-3.8497,-3.8257,-3.8062,-3.7666,-3.6808,-3.5983,-3.5265,-3.3391,-3.1575,-2.9961,-2.8227,-2.7498,-2.8084,-2.8096,-2.902,-3.1106,-3.2722,-3.3864,-3.4673,-3.5718,-3.5316,-3.3424,-3.2113,-3.1482,-3.1467,-3.1001,-3.1031,-3.1452,-3.0986,-3.1046,-3.1437,-3.0971,-3.1046,-3.1437,-3.0956,-3.1174,-3.1739,-3.1739,-3.1364,-3.0852,-3.0852,-2.9956,-2.8612,-2.7743,-2.6603,-2.536,-2.458,-2.3767,-2.3078,-2.3078,-2.3078,-2.3078,-2.3078,-2.3078,-2.3305,-2.4118,-2.4292,-2.4452,-2.5007,-2.4105,-2.3078,-2.3078,-2.3078,-2.3078,-2.3078,-2.3078,-2.3305,-2.3943,-2.4681,-2.4915,-2.434,-2.4482,-2.4393,-2.3822,-2.3203,-2.3285,-2.4348,-2.5142,-2.6017,0.0,-2.8621,-2.9789,-3.0253,-3.1812,-3.1941,-3.0358,-3.0276,-2.9494,-2.8039,-2.8861,-2.8536,-2.7119,-2.7285,-2.7475,-2.7625,-2.7625,-2.7625,-2.7625,-2.7625,-2.7625,-2.7625,-2.7625,-2.7625,-2.7625,-2.7625,-2.766,-2.7825,-2.8026,-2.8171,-2.8468,-3.9424,-3.9424,-3.9424,-3.9424,-3.9424,-3.929,-3.8916,-3.8601,-3.8226,-3.7623,-3.6893,-3.6045,-3.4817,-3.2989,-3.1256,-2.9669,-2.8104,-2.7452,-2.8084,-2.8524,-2.9847,-3.2297,-3.3704,-3.5031,-3.6369,-3.697,-3.626,-3.4172,-3.2384,-3.1384,-3.1046,-3.0387,-3.0283,-3.0627,-3.0253,-3.0298,-3.0556,-2.9859,-2.9734,-3.0057,-2.9624,-2.9696,-2.9999,-3.0288,-2.9961,-2.9341,-2.9341,-2.8675,-2.7626,-2.6617,-2.5781,-2.5005,-2.4053,-2.3424,-2.3078,-2.3078,-2.3078,-2.3078,-2.3078,-2.3078,-2.3365,-2.4509,-2.4567,-2.4509,-2.5231,-2.4208,-2.3078,-2.3078,-2.3078,-2.3078,-2.3078,-2.3078,-2.3365,-2.4176,-2.4894,-2.5284,-2.4991,-2.4817,-2.4615,-2.446,-2.3393,-2.322,-2.4755,-2.5326,-2.5988,-2.7011,-2.8634,0.0,-3.0058,-3.1345,-3.1649,-3.0851,-3.113,-3.0646,-2.9342,-2.8872,-2.8344,-2.7625,-2.726,-2.7275,-2.7625,-2.7625,-2.7625,-2.7625,-2.7625,-2.7625,-2.7625,-2.7625,-2.7625,-2.7625,-2.7625,-2.7625,-2.7625,-2.7625,-2.776,-2.8125,-3.9424,-3.9334,-3.926,-3.926,-3.9185,-3.911,-3.911,-3.8616,-3.8003,-3.736,-3.6806,-3.5859,-3.4167,-3.2354,-3.0935,-3.0049,-2.9127,-2.8469,-2.8299,-2.9309,-3.1163,-3.3879,-3.5001,-3.6322,-3.7921,-3.7769,-3.6628,-3.455,-3.2586,-3.1159,-3.0357,-2.9729,-2.9535,-2.9714,-2.9396,-2.9372,-2.952,-2.8536,-2.8197,-2.834,-2.8148,-2.8138,-2.8346,-2.8761,-2.8484,-2.7968,-2.7933,-2.7446,-2.659,-2.5389,-2.4938,-2.4661,-2.3504,-2.3078,-2.3078,-2.3078,-2.3078,-2.3078,-2.3078,-2.3198,-2.359,-2.4894,-2.4738,-2.4452,-2.5063,-2.4163,-2.3078,-2.3078,-2.3078,-2.3078,-2.3078,-2.3078,-2.345,-2.4456,-2.5075,-2.545,-2.55,0.0,-2.474,-2.5034,-2.3708,-2.3454,-2.5171,-2.551,-2.595,-2.6538,-2.8263,-2.937,-2.9564,-3.0642,-3.133,-3.1467,-3.2078,-3.1764,-3.0507,-2.8652,-2.7724,-2.7724,-2.7051,-2.7036,-2.7625,-2.7625,-2.7625,-2.7625,-2.7625,-2.7625,-2.7625,-2.7625,-2.7625,-2.7625,-2.7625,-2.7625,-2.7625,-2.7625,-2.7993,-2.8606,-3.9424,-3.8945,-3.8556,-3.8556,-3.8093,-3.7719,-3.7719,-3.7629,-3.733,-3.6716,-3.6552,-3.5859,-3.4167,-3.3003,-3.228,-3.2136,-3.1275,-3.0303,-2.9309,-3.0869,-3.2779,-3.4901,-3.6381,-3.7623,-3.869,-3.7547,-3.5945,-3.385,-3.2353,-3.0983,-2.9714,-2.9056,-2.9325,-3.0313,-2.858,-2.8405,-2.9305,-2.7499,-2.7321,-2.8154,-2.7571,-2.7953,-2.8809,-2.8457,-2.7816,-2.7053,-2.6561,-2.5598,-2.4453,-2.4253,-2.3837,-2.3419,-2.3163,-2.3078,-2.3078,-2.3078,-2.3078,-2.3078,-2.3078,-2.3603,-2.4176,-2.4408,-2.4408,-2.435,-2.4452,-2.3767,-2.3078,-2.3078,-2.3078,-2.3078,-2.3078,-2.3078,-2.3744,-2.5731,-2.5673,-2.545,-2.5552,0.0,-2.417,-2.3186,-2.328,-2.3775,-2.4611,-2.5727,-2.6475,-2.6587,-2.7395,-2.8382,-2.952,-2.9774,-3.0387,-3.1437,-3.1571,-3.13,-3.0507,-2.9131,-2.8442,-2.8427,-2.7754,-2.752,-2.7625,-2.7625,-2.7625,-2.7625,-2.7625,-2.7625,-2.7625,-2.7625,-2.7625,-2.7625,-2.7625,-2.7625,-2.7625,-2.7625,-2.7993,-2.8606,-3.8931,-3.8601,-3.8287,-3.7913,-3.7614,-3.7404,-3.7404,-3.7404,-3.718,-3.6567,-3.6492,-3.6075,-3.4913,-3.3959,-3.338,-3.338,-3.2536,-3.2109,-3.2569,-3.3414,-3.4803,-3.6821,-3.8072,-3.8952,-3.9376,-3.8016,-3.6092,-3.3719,-3.1903,-3.037,-2.9041,-2.8742,-2.85,-2.8301,-2.7781,-2.7596,-2.7581,-2.5955,-2.5756,-2.6479,-2.6056,-2.609,-2.6314,-2.6656,-2.6166,-2.5318,-2.506,-2.4364,-2.354,-2.354,-2.3364,-2.3078,-2.3078,-2.3078,-2.3078,-2.3078,-2.3078,-2.3078,-2.3078,-2.3365,-2.3767,-2.4176,-2.3943,-2.3767,-2.4176,-2.3649,-2.3078,-2.3078,-2.3078,-2.3078,-2.3078,-2.3078,-2.3662,-2.54,-2.5172,-2.5077,-2.5839,-2.5089,-2.441,-2.4196,-2.3865,-2.3883,-2.4487,-2.5471,-2.6063,-2.6063,-2.7335,-2.8547,-2.9535,-2.9894,-3.0522,-3.1437,-3.1482,-3.121,-3.0507,-2.9579,-2.8951,-2.8592,-2.7904,-2.7625,-2.7625,-2.7625,-2.7625,-2.7625,-2.7625,-2.7625,-2.7625,-2.7625,-2.7625,-2.7625,-2.7625,-2.7625,-2.7625,-2.7625,-2.8174,-2.8966,-3.8302,-3.8048,-3.7793,-3.7285,-3.706,-3.6971,-3.6971,-3.6971,-3.6791,-3.6327,-3.6252,-3.6073,-3.5564,-3.461,-3.4095,-3.4312,-3.3463,-3.3722,-3.5715,-3.5763,-3.6682,-3.8623,-3.9598,-3.9819,-3.9319,-3.8112,-3.6008,-3.2969,-3.1365,-2.9802,-2.8353,-2.8196,-2.7621,-2.6755,-2.6887,-2.6581,-2.5922,-2.4734,-2.4471,-2.484,-2.4697,-2.4456,-2.4268,-2.4958,-2.472,-2.3979,-2.3841,-2.3514,-2.3078,-2.3078,-2.3078,-2.3078,-2.3078,-2.3078,-2.3078,-2.3078,-2.3078,-2.3078,-2.3078,-2.3078,-2.3245,-2.3884,-2.3543,-2.3245,-2.3884,-2.3531,-2.3078,-2.3078,-2.3078,-2.3078,-2.3078,-2.3078,-2.3542,-2.4925,0.0,-2.4886,-2.5905,-2.5424,-2.5047,-2.5279,-2.4468,-2.4067,-2.453,-2.5044,-2.5364,-2.5571,-2.7276,-2.8643,-2.9325,-3.0088,-3.0821,-3.1452,-3.1482,-3.1285,-3.0746,-3.0118,-2.9475,-2.8816,-2.8128,-2.7724,-2.7625,-2.7625,-2.7625,-2.7625,-2.7625,-2.7625,-2.7625,-2.7625,-2.7625,-2.7625,-2.7625,-2.7625,-2.7625,-2.7625,-2.8271,-2.9134,-3.7614,-3.7015,-3.6611,-3.6567,-3.6043,-3.5654,-3.5654,-3.5654,-3.5624,-3.5579,-3.5579,-3.5549,-3.5504,-3.461,-3.4394,-3.5294,-3.4461,-3.4955,-3.7424,-3.7616,-3.8221,-3.9632,-4.0408,-3.9881,-3.7891,-3.7202,-3.4885,-3.0818,-3.0658,-2.9607,-2.7649,-2.6951,-2.6924,-2.7374,-2.5935,-2.5256,-2.523,-2.441,-2.4016,-2.4054,-2.4042,-2.4343,-2.472,-2.428,-2.4067,-2.3929,-2.3389,-2.3115,-2.3078,-2.3078,-2.3078,-2.3078,-2.3078,-2.3078,-2.3078,-2.3078,-2.3078,-2.3078,-2.3078,-2.3078,-2.3138,-2.3185,-2.3125,-2.3138,-2.3185,-2.3125,-2.3078,-2.3078,-2.3078,-2.3078,-2.3078,-2.3078,-2.3542,-2.4958,0.0,0.0,-2.5536,-2.6026,-2.594,-2.4896,-2.4512,-2.4413,-2.4517,-2.4498,-2.4759,-2.5445,-2.6804,-2.7871,-2.8614,-2.9834,-3.0821,-3.1452,-3.1482,-3.1452,-3.1465,-3.0776,-3.0118,-2.9505,-2.8846,-2.8188,-2.7625,-2.7625,-2.7625,-2.7625,-2.7625,-2.7625,-2.7625,-2.7625,-2.7625,-2.7625,-2.7625,-2.7625,-2.7625,-2.7625,-2.7993,-2.8559,-3.7539,-3.7225,-3.6941,-3.6552,-3.6282,-3.5968,-3.5564,-3.5504,-3.5504,-3.5504,-3.5504,-3.5504,-3.5504,-3.5133,-3.5067,-3.5439,-3.5133,-3.5514,-3.6964,-3.7833,-3.8941,-4.0408,-4.0285,-3.9388,-3.7759,-3.6158,-3.4002,-3.1228,-3.0409,-2.9162,-2.753,-2.7248,-2.6564,-2.5531,-2.5261,-2.4896,-2.4423,-2.3725,-2.3665,-2.4004,-2.4004,-2.3904,-2.3729,-2.3941,-2.3778,-2.3439,-2.3153,-2.3078,-2.3078,-2.3078,-2.3078,-2.3078,-2.3078,-2.3078,-2.3078,-2.3078,-2.3078,-2.3078,-2.3078,-2.3078,-2.3078,-2.3078,-2.3078,-2.3078,-2.3078,-2.3078,-2.3078,-2.3078,-2.3078,-2.3078,-2.3078,-2.3078,-2.3542,-2.4925,0.0,-2.503,-2.5838,-2.624,-2.6179,-2.5322,-2.5103,-2.4952,-2.454,-2.4465,-2.4664,-2.5254,-2.6657,-2.7958,-2.8995,-3.0359,-3.127,-3.1467,-3.1482,-3.1482,-3.1482,-3.0851,-3.0193,-2.9564,-2.8921,-2.8472,-2.8203,-2.7769,-2.785,-2.8188,-2.7754,-2.7625,-2.7625,-2.7625,-2.7625,-2.7625,-2.7625,-2.7625,-2.7625,-2.7625,-2.7993,-2.8463,-3.7539,-3.7404,-3.727,-3.6851,-3.6611,-3.6327,-3.5878,-3.5639,-3.5504,-3.5504,-3.5504,-3.5504,-3.5504,-3.5504,-3.5359,-3.5067,-3.5052,-3.5335,-3.612,-3.7556,-3.9049,-4.0753,-3.9692,-3.8418,-3.7035,-3.5185,-3.3187,-3.0952,-2.9798,-2.8634,-2.7432,-2.6791,-2.5878,-2.4833,-2.4988,-2.4664,-2.3991,-2.3941,-2.3841,-2.374,-2.3929,-2.3653,-2.3175,-2.3577,-2.3477,-2.3078,-2.3078,-2.3078,-2.3078,-2.3078,-2.3078,-2.3078,-2.3078,-2.3078,-2.3078,-2.3078,-2.3078,-2.3078,-2.3078,-2.3078,-2.3078,-2.3078,-2.3078,-2.3078,-2.3078,-2.3078,-2.3078,-2.3078,-2.3078,-2.3078,-2.3078,-2.3078,-2.3542,-2.4925,-2.5042,-2.5327,-2.6468,-2.7135,-2.7243,-2.6535,-2.6189,-2.5866,-2.5388,-2.4847,-2.4761,-2.5382,-2.656,-2.7965,-2.9504,-3.0586,-3.13,-3.1467,-3.1482,-3.1482,-3.1482,-3.1061,-3.0507,-2.9864,-2.9415,-2.9101,-2.8891,-2.8203,-2.8263,-2.8876,-2.8188,-2.8008,-2.8188,-2.7979,-2.7889,-2.7874,-2.77,-2.7625,-2.7625,-2.7625,-2.786,-2.814,-3.7539,-3.7404,-3.7404,-3.7419,-3.6896,-3.6492,-3.6492,-3.5923,-3.5504,-3.5504,-3.5504,-3.5504,-3.5504,-3.5504,-3.5067,-3.4095,-3.4027,-3.4374,-3.519,-3.6826,-3.8597,-4.0498,-3.869,-3.7019,-3.5498,-3.4298,-3.2327,-2.9594,-2.8761,-2.8008,-2.7209,-2.5222,-2.4886,-2.5831,-2.509,-2.4506,-2.4067,-2.5134,-2.4644,-2.3201,-2.3778,-2.3665,-2.309,-2.309,-2.3078,-2.3078,-2.3078,-2.3078,-2.3078,-2.3078,-2.3078,-2.3078,-2.3078,-2.3078,-2.3078,-2.3078,-2.3078,-2.3078,-2.3078,-2.3078,-2.3078,-2.3078,-2.3078,-2.3078,-2.3078,-2.3078,-2.3078,-2.3078,-2.3078,-2.3078,-2.3078,-2.3078,-2.3542,-2.4945,-2.5877,-2.6651,-2.7391,-2.87,-2.934,-2.8682,-2.7769,-2.7193,-2.7193,-2.5709,-2.5116,-2.5857,-2.6535,-2.7931,-3.0165,-3.0452,-3.0821,-3.1452,-3.1482,-3.1482,-3.1482,-3.1482,-3.118,-3.0507,-3.0507,-3.0178,-2.9564,-2.8906,-2.8966,-2.9549,-2.8891,-2.8966,-2.952,-2.8861,-2.8607,-2.8532,-2.7844,-2.7625,-2.7625,-2.7625,-2.7625,-2.7625,-3.8048,-3.7375,-3.7045,-3.7943,-3.721,-3.6492,-3.6492,-3.5923,-3.5504,-3.5504,-3.5504,-3.5504,-3.5504,-3.5504,-3.5067,-3.4095,-3.4624,-3.54,-3.612,-3.6197,-3.6661,-3.7753,-3.6374,-3.5122,-3.4063,-3.2257,-3.044,-2.8621,-2.7933,-2.6979,-2.5778,-2.4762,-2.4184,-2.392,-2.4179,-2.4155,-2.4054,-2.4757,-2.477,-2.433,-2.4506,-2.4469,-2.4318,-2.4318,-2.4079,-2.374,-2.374,-2.3477,-2.3078,-2.3078,-2.3078,-2.3078,-2.3078,-2.3078,-2.3078,-2.3078,-2.3078,-2.3078,-2.3078,-2.3078,-2.3226,-2.364,-2.3439,-2.3238,-2.364,-2.3427,-2.3078,-2.3078,-2.3078,-2.3078,-2.3078,-2.3464,-2.3898,-2.4465,-2.5369,-2.6399,-2.7338,-2.7683,-2.794,-2.8361,-2.7128,-2.6276,-2.6276,-2.5408,-2.5036,-2.5625,-2.7386,-2.8934,-3.0254,-3.0895,-3.1315,-3.1467,-3.1482,-3.1482,-3.1482,-3.1482,-3.118,-3.0507,-3.0507,-3.0417,-3.0208,-2.9579,-2.9624,-3.0163,-2.9071,-2.8712,-2.8876,-2.8682,-2.8308,-2.7904,-2.8188,-2.7993,-2.7625,-2.7625,-2.7625,-2.7625,-3.8257,-3.7569,-3.709,-3.7868,-3.7165,-3.6492,-3.6492,-3.5923,-3.5504,-3.5504,-3.5504,-3.5504,-3.5504,-3.5504,-3.492,-3.3602,-3.3973,-3.4714,-3.5518,-3.5494,-3.5509,-3.5582,-3.4602,-3.3711,-3.2936,-3.1104,-2.9633,-2.8651,-2.7611,-2.6816,-2.6257,-2.5061,-2.4451,-2.4456,-2.4582,-2.4632,-2.4669,-2.5234,-2.5222,-2.4845,-2.5046,-2.487,-2.4494,-2.4494,-2.4142,-2.3653,-2.3653,-2.3427,-2.3078,-2.3078,-2.3078,-2.3078,-2.3078,-2.3078,-2.3078,-2.3078,-2.3078,-2.3078,-2.3078,-2.3301,-2.3664,-2.4591,-2.4126,-2.3565,-2.3916,-2.3728,-2.3477,-2.3477,-2.3477,-2.354,-2.3766,-2.4092,-2.4519,-2.5214,-2.5876,-2.6626,-2.7595,-2.775,-2.7861,-2.8116,-2.7271,-2.6604,-2.6604,-2.5948,-2.5598,-2.5912,-2.7525,-2.8876,-2.9766,-3.0584,-3.1161,-3.1482,-3.1482,-3.1482,-3.1482,-3.1482,-3.133,-3.0911,-3.0911,-3.0911,-3.0881,-3.0238,-3.0148,-3.0447,-2.943,-2.8996,-2.8966,-2.8712,-2.8353,-2.7993,-2.8128,-2.7934,-2.7625,-2.7625,-2.7625,-2.7625,-3.8167,-3.7734,-3.7285,-3.7389,-3.6851,-3.6417,-3.6477,-3.5923,-3.5504,-3.5504,-3.5504,-3.5504,-3.5504,-3.5504,-3.4706,-3.2749,-3.2522,-3.289,-3.3808,-3.4758,-3.4839,-3.3876,-3.3293,-3.2625,-3.2047,-3.0494,-2.9434,-2.895,-2.7485,-2.7093,-2.7701,-2.5716,-2.536,-2.6302,-2.5812,-2.5598,-2.5636,-2.6214,-2.5887,-2.5008,-2.5485,-2.5084,-2.4217,-2.4217,-2.3828,-2.3228,-2.3228,-2.3165,-2.3078,-2.3078,-2.3078,-2.3078,-2.3078,-2.3078,-2.3078,-2.3078,-2.3078,-2.3078,-2.3078,-2.3527,-2.4241,-2.5739,-2.5146,-2.4204,-2.4255,-2.4129,-2.4017,-2.4067,-2.4029,-2.4167,-2.472,-2.4858,-2.528,-2.6542,-2.6828,-2.7123,-2.7796,-2.8428,-2.8543,-2.8057,-2.7731,-2.7604,-2.7604,-2.6905,-2.6533,-2.6533,-2.7229,-2.8051,-2.8939,-2.9827,-3.0644,-3.1467,-3.1482,-3.1482,-3.1482,-3.1482,-3.1482,-3.1482,-3.1482,-3.1482,-3.1452,-3.0881,-3.0597,-3.0552,-2.9879,-2.9579,-2.9535,-2.8876,-2.8562,-2.8457,-2.7874,-2.7619,-2.7625,-2.7625,-2.7625,-2.7625,-3.7509,-3.6701,-3.6237,-3.724,-3.6477,-3.5893,-3.6417,-3.5923,-3.5504,-3.5504,-3.5504,-3.5504,-3.5504,-3.5504,-3.4706,-3.2749,-3.196,-3.1888,-3.282,-3.3101,-3.3101,-3.289,-3.2055,-3.137,-3.0791,-2.944,-2.7987,-2.6401,-2.6036,-2.5766,-2.5473,-2.4987,-2.4946,-2.5197,-2.5473,-2.5598,-2.5636,-2.6214,-2.6395,-2.6113,-2.6226,-2.6138,-2.5925,-2.5925,-2.531,-2.4456,-2.4456,-2.3891,-2.3078,-2.3078,-2.3078,-2.3078,-2.3078,-2.3078,-2.3078,-2.3078,-2.3078,-2.3078,-2.3078,-2.3226,-2.3735,-2.5634,-2.5853,-2.5769,-2.6151,-2.5089,-2.4117,-2.4556,-2.4305,-2.4167,-2.472,-2.5159,-2.5401,-2.528,-2.6031,-2.6693,-2.7059,-2.7052,-2.7245,-2.7682,-2.7152,-2.6782,-2.6782,-2.6589,-2.6533,-2.6533,-2.7229,-2.8051,-2.8939,-2.9827,-3.0644,-3.1467,-3.1482,-3.1482,-3.1482,-3.1482,-3.1482,-3.1482,-3.1482,-3.1482,-3.1482,-3.1375,-3.13,-3.124,-3.0088,-2.9579,-2.9535,-2.8876,-2.8278,-2.7829,-2.8218,-2.8053,-2.7625,-2.7625,-2.7625,-2.7675,-3.6851,-3.6178,-3.5714,-3.6387,-3.5953,-3.5624,-3.5968,-3.5729,-3.5504,-3.5504,-3.5504,-3.5504,-3.5504,-3.5067,-3.4177,-3.2749,-3.1742,-3.1609,-3.2522,-3.2593,-3.2393,-3.196,-3.1462,-3.0695,-2.9731,-2.9039,-2.8293,-2.7443,-2.6455,-2.6177,-2.6526,-2.5899,-2.5598,-2.5611,-2.5887,-2.6013,-2.6025,-2.6395,-2.6533,-2.6533,-2.6533,-2.6302,-2.605,-2.605,-2.5536,-2.482,-2.482,-2.4268,-2.3502,-2.3226,-2.3078,-2.3078,-2.3078,-2.3078,-2.3078,-2.3078,-2.3265,-2.3552,-2.3552,-2.4213,-2.5296,-2.6754,-2.6992,-2.6839,-2.6865,-2.6101,-2.5345,-2.5199,-2.4958,-2.4933,-2.5498,-2.5824,-2.5912,-2.5649,-2.6088,-2.6557,-2.6709,-2.6591,-2.6658,-2.7095,-2.6782,-2.6533,-2.6533,-2.6533,-2.6533,-2.6533,-2.6905,-2.767,-2.8939,-2.9442,-3.0269,-3.1467,-3.1482,-3.1482,-3.1482,-3.1482,-3.1482,-3.1482,-3.1482,-3.1482,-3.1482,-3.1482,-3.1195,-3.0567,-2.9879,-2.922,-2.8592,-2.8248,-2.7904,-2.7655,-2.7979,-2.7889,-2.7625,-2.7625,-2.7625,-2.7615,-3.6207,-3.5878,-3.5504,-3.5504,-3.5504,-3.5504,-3.5504,-3.5504,-3.5504,-3.5504,-3.5504,-3.5504,-3.5504,-3.4476,-3.338,-3.2464,-3.1462,-3.1254,-3.2046,-3.2105,-3.1756,-3.097,-3.097,-3.04,-2.9076,-2.8976,-2.9007,-2.9183,-2.7576,-2.736,-2.8425,-2.7176,-2.6672,-2.6603,-2.6571,-2.6533,-2.6533,-2.6533,-2.6533,-2.6533,-2.6533,-2.6176,-2.5737,-2.5737,-2.541,-2.4958,-2.4958,-2.4544,-2.3916,-2.3265,-2.3078,-2.3078,-2.3078,-2.3078,-2.3078,-2.3078,-2.354,-2.4004,-2.4004,-2.5268,-2.6746,-2.7769,-2.7786,-2.7485,-2.7103,-2.688,-2.6518,-2.5845,-2.5661,-2.5774,-2.642,-2.6533,-2.6533,-2.6533,-2.6533,-2.6533,-2.6533,-2.6533,-2.6559,-2.6659,-2.6672,-2.6634,-2.6533,-2.6533,-2.6533,-2.6533,-2.6533,-2.7268,-2.9091,-2.9058,-2.9808,-3.1631,-3.1541,-3.1482,-3.1482,-3.1482,-3.1482,-3.1482,-3.1482,-3.1482,-3.1482,-3.1482,-3.0881,-2.9744,-2.9744,-2.8981,-2.779,-2.779,-2.773,-2.7625,-2.7625,-2.7625,-2.7625,-2.7625,-2.7625,-2.757,-3.5624,-3.5564,-3.5504,-3.5504,-3.5504,-3.5504,-3.5504,-3.5504,-3.5504,-3.5504,-3.5504,-3.5504,-3.5504,-3.3905,-3.2393,-3.1462,-3.0558,-3.0075,-3.0152,-3.0139,-3.0139,-2.9998,-3.0011,-2.9896,-2.9679,-2.9189,-2.8724,-2.8315,-2.8019,-2.7994,-2.8116,-2.749,-2.7168,-2.7155,-2.6747,-2.6533,-2.6533,-2.6533,-2.6533,-2.6533,-2.6533,-2.6483,-2.6408,-2.6408,-2.5988,-2.5485,-2.5485,-2.4845,-2.3916,-2.3265,-2.3078,-2.3078,-2.3078,-2.3078,-2.3078,-2.3078,-2.354,-2.4004,-2.4004,-2.4507,-2.5409,-2.6746,-2.7059,-2.7103,-2.7525,-2.6646,-2.587,-2.6307,-2.5937,-2.5774,-2.642,-2.6533,-2.6533,-2.6533,-2.6533,-2.6533,-2.6533,-2.6533,-2.664,-2.7118,-2.7168,-2.6979,-2.6584,-2.6533,-2.6533,-2.6533,-2.6533,-2.7504,-2.9748,-2.9342,-3.0007,-3.2303,-3.1824,-3.1482,-3.1482,-3.1482,-3.1482,-3.1482,-3.1482,-3.1482,-3.1482,-3.1482,-3.1106,-3.0372,-3.0372,-2.9654,-2.8457,-2.8457,-2.8113,-2.7625,-2.7625,-2.7625,-2.7625,-2.7625,-2.7625,-2.752,-3.5504,-3.5504,-3.5504,-3.5504,-3.5504,-3.5504,-3.5504,-3.5504,-3.5504,-3.5504,-3.5504,-3.5504,-3.5504,-3.3754,-3.2033,-3.0558,-3.0075,-2.9792,-2.9792,-2.9792,-2.9792,-2.9792,-2.9792,-2.9792,-2.9792,-2.9541,-2.9289,-2.9051,-2.8411,-2.826,-2.8549,-2.7682,-2.7281,-2.7256,-2.6703,-2.6533,-2.6533,-2.6533,-2.6533,-2.6533,-2.6533,-2.6533,-2.6533,-2.6533,-2.6302,-2.6,-2.5385,-2.4858,-2.4318,-2.3366,-2.3078,-2.3078,-2.3078,-2.3364,-2.3615,-2.3615,-2.4217,-2.4883,-2.4883,-2.5677,-2.6544,-2.7157,-2.7353,-2.7419,-2.7683,-2.6889,-2.6151,-2.6483,-2.6319,-2.6151,-2.6483,-2.6533,-2.6533,-2.6533,-2.6533,-2.6533,-2.6533,-2.6533,-2.6622,-2.6791,-2.6816,-2.6728,-2.6546,-2.6533,-2.6533,-2.6533,-2.6753,-2.7606,-2.9067,-2.9313,-3.0136,-3.1652,-3.156,-3.1482,-3.1482,-3.1482,-3.1482,-3.1482,-3.1482,-3.1482,-3.1482,-3.1482,-3.115,-3.0507,-3.0507,-2.9774,-2.8607,-2.8607,-2.8188,-2.7625,-2.7625,-2.7625,-2.7625,-2.7625,-2.7625,-2.758]}]]